GFSSGP_250_spd_000.txt.gz
Wind_Speed
63 63 66 64 54 56 53 50 53 47 45 41 40 37 38 40 39 39 39 36 35 38 39 42 44 45 43 42 44 44 41 41 42 45 50 50 50 50 50 48 47 44 40 40 42 40 42 42 40
66 68 61 63 58 62 52 49 48 50 46 44 42 43 43 42 40 42 44 41 40 40 39 42 42 44 46 45 44 40 41 43 44 47 49 50 47 48 46 43 42 38 36 39 39 40 41 37 37
66 69 67 64 61 65 59 52 55 55 51 51 47 49 48 48 49 50 51 48 47 44 45 46 42 43 43 41 41 43 44 47 52 51 51 49 46 44 42 40 37 37 37 37 37 37 41 40 42
74 68 70 70 65 62 55 64 62 57 58 56 56 54 52 52 52 54 57 54 50 47 47 48 47 49 49 48 51 50 52 52 53 52 52 47 41 40 40 38 39 37 36 35 37 38 39 40 37
77 76 72 72 71 69 62 54 52 57 57 55 57 55 54 53 52 53 53 52 49 51 53 52 50 53 54 53 55 54 55 56 54 54 51 44 36 37 38 37 39 35 36 37 39 42 41 37 40
78 80 75 74 71 72 68 64 58 62 59 57 60 57 55 52 53 55 53 51 51 54 53 55 59 58 59 57 56 54 55 56 52 48 47 38 32 35 38 39 33 29 38 38 35 36 40 40 41
80 80 78 78 74 71 69 68 66 67 65 62 62 59 58 60 55 57 59 56 57 60 64 63 63 62 61 59 57 55 55 50 46 46 42 32 30 35 38 36 40 37 40 41 43 43 44 42 44
70 81 80 80 76 72 67 68 72 70 67 64 63 63 64 59 59 59 58 60 63 66 63 62 63 63 63 58 57 53 51 46 44 43 37 29 31 36 36 36 40 46 43 45 45 43 43 46 49
71 72 79 82 77 74 70 70 73 71 68 64 62 64 64 62 59 57 59 64 65 65 65 64 65 62 59 55 53 48 44 43 43 40 34 29 32 36 36 38 39 38 40 41 43 45 48 50 47
62 65 73 77 77 75 74 71 72 74 69 65 63 64 65 63 62 63 64 65 63 62 61 59 58 55 52 45 42 39 41 41 42 37 32 29 33 36 39 40 37 39 40 45 48 48 43 45 49
60 61 67 68 64 69 72 74 72 70 69 67 67 67 66 67 64 62 61 60 58 56 52 50 49 48 44 37 36 37 40 41 39 35 32 30 34 38 42 40 39 40 44 46 45 43 47 51 50
61 62 62 61 60 61 65 68 70 68 62 62 61 60 58 56 57 56 54 52 48 44 42 43 41 40 34 30 34 36 38 38 36 33 33 30 36 41 47 45 45 45 44 44 46 50 52 52 54
65 63 60 54 51 54 56 60 61 64 62 61 56 54 51 52 49 48 43 38 38 39 40 38 35 31 28 28 32 35 37 35 34 33 33 31 36 42 44 48 49 51 49 52 53 54 55 55 54
68 63 60 51 51 51 51 50 54 51 48 50 50 47 45 43 38 33 35 37 39 39 36 34 31 27 27 28 29 33 35 33 31 32 33 32 35 40 47 50 51 54 56 58 58 56 56 56 56
70 60 55 49 50 52 49 47 46 38 40 44 43 40 40 38 34 34 35 34 36 35 30 28 27 26 27 28 30 30 32 30 30 32 33 35 38 41 44 47 48 48 53 54 56 57 59 59 58
69 60 53 52 50 53 48 47 38 37 36 37 38 37 37 34 33 34 35 36 34 28 24 23 23 23 24 28 33 30 29 29 30 31 33 36 39 41 43 45 49 52 52 55 57 59 60 59 58
68 56 57 51 51 51 49 43 39 38 33 34 35 34 32 30 31 33 35 32 27 24 23 22 22 24 27 30 31 29 28 27 27 30 33 36 40 42 45 48 50 52 54 55 55 56 57 59 62
60 58 60 52 51 49 45 43 38 38 32 31 31 28 27 30 31 30 33 27 25 27 26 23 22 24 28 30 30 28 27 27 28 29 33 37 41 44 45 48 48 48 49 53 56 59 62 64 64
66 70 61 54 52 47 44 44 36 35 30 28 28 26 25 27 28 27 26 22 25 27 25 23 25 27 29 30 31 30 27 27 29 30 32 35 39 42 44 46 47 49 53 56 60 63 62 62 60
72 67 61 52 52 49 44 44 35 33 27 25 25 22 19 21 26 23 20 23 23 26 26 26 27 28 30 32 32 33 32 30 31 32 33 35 38 41 43 46 50 54 57 59 60 60 60 63 64
70 66 62 55 55 49 44 42 33 33 28 27 25 23 21 18 20 23 23 22 26 27 27 27 28 29 32 32 33 35 37 37 37 38 38 40 42 45 49 52 54 56 59 61 60 62 64 65 69
72 68 59 57 55 51 46 40 34 29 26 27 27 23 25 20 20 21 23 21 27 29 30 31 31 31 34 35 35 35 36 39 41 42 43 45 46 49 51 55 56 59 60 61 65 68 70 72 74
77 70 59 61 55 52 46 43 37 32 30 29 26 26 25 26 26 23 24 25 25 32 35 33 34 35 36 36 36 38 39 40 40 41 43 45 48 50 53 55 58 60 63 67 70 73 76 79 81
77 70 61 61 56 53 47 42 36 32 31 30 28 26 26 28 27 27 25 26 29 30 35 37 37 37 38 39 41 42 41 41 41 43 45 46 48 51 54 58 62 66 69 73 76 79 82 86 90
76 70 65 61 54 53 45 42 38 33 32 30 30 31 31 30 30 30 31 31 30 34 35 36 39 42 43 43 44 47 48 47 47 49 51 53 55 57 60 64 68 71 75 78 82 85 89 92 96
71 68 62 58 56 53 46 45 36 33 31 30 31 34 35 33 33 33 36 37 38 38 39 39 40 42 46 47 49 51 53 55 56 59 61 62 63 64 67 70 73 77 81 85 88 90 94 99 102
71 65 60 60 58 54 49 46 40 35 32 32 34 37 36 36 38 38 38 41 43 45 47 48 47 47 48 51 53 54 57 60 64 66 67 68 69 71 73 76 81 84 86 88 91 96 100 104 108
71 68 62 59 59 55 48 47 43 40 37 36 37 39 41 40 41 42 43 45 46 49 51 53 53 52 53 55 56 59 63 66 67 70 73 76 77 78 81 85 86 87 89 92 97 100 104 108 110
68 64 61 60 57 55 52 48 46 43 41 41 41 41 42 45 45 46 47 49 51 52 55 57 59 59 59 60 60 62 64 67 71 75 78 81 84 85 88 87 88 90 93 96 102 106 107 109 110
70 67 63 57 58 58 57 48 45 45 46 45 45 46 48 48 49 50 52 54 55 56 57 59 62 64 65 66 67 70 75 75 75 79 80 82 82 84 83 88 91 95 98 102 104 105 107 109 114

GFSSGP_250_spd_003.txt.gz
Wind_Speed
71 69 64 69 67 63 59 55 54 55 51 52 55 52 47 42 40 39 34 34 37 39 38 37 36 37 38 38 38 38 37 42 41 42 41 42 44 50 50 50 50 50 49 48 47 44 41 42 45
74 72 68 64 68 69 67 56 54 55 56 54 56 56 51 42 37 31 35 37 36 41 42 43 44 43 43 43 42 40 41 42 42 45 46 48 49 51 52 52 51 48 47 44 43 38 37 42 42
72 74 74 68 65 62 66 66 55 54 53 54 56 57 50 41 38 39 44 45 45 47 49 50 50 49 46 45 44 44 45 47 50 52 54 54 55 54 54 52 47 46 45 42 38 36 41 42 42
79 75 79 75 69 66 59 63 65 61 62 55 56 56 51 45 45 49 47 50 44 45 49 52 52 50 50 49 49 49 50 53 53 53 54 56 56 53 49 49 44 44 42 38 37 40 42 39 38
80 79 76 78 73 70 67 65 61 61 66 61 61 59 56 51 53 50 53 50 48 47 48 51 51 51 53 53 53 55 56 58 56 55 56 55 52 49 48 44 40 40 39 38 43 38 38 41 42
75 80 76 80 79 73 71 71 71 65 59 60 63 61 54 54 54 51 51 52 50 52 51 53 56 53 56 58 57 59 59 59 58 55 54 51 47 47 45 37 35 38 37 39 42 38 41 41 38
65 75 77 77 82 79 70 69 72 71 69 63 66 59 55 54 53 51 51 52 52 56 55 59 56 57 60 62 65 64 63 61 57 54 51 46 44 44 40 34 33 37 39 39 32 34 43 41 44
64 70 76 79 82 80 77 71 72 74 76 76 72 68 58 60 55 56 56 58 58 58 57 57 58 62 66 65 65 66 62 55 52 48 43 40 41 40 36 33 34 36 37 37 42 40 46 50 46
65 63 69 75 82 81 75 78 76 75 76 74 75 70 66 64 62 59 58 60 60 61 61 59 65 67 67 66 62 60 54 49 43 39 37 38 39 37 34 33 34 35 38 40 39 46 43 41 46
66 63 64 70 75 80 78 78 79 77 75 74 71 68 69 68 66 65 60 60 60 62 65 67 66 64 63 57 55 48 45 43 37 35 36 38 38 35 33 34 35 35 38 37 39 43 45 47 49
68 62 70 70 68 73 76 79 82 80 78 75 70 65 69 68 66 64 59 61 65 67 67 64 62 59 53 48 46 42 39 36 31 34 37 38 37 34 32 33 34 36 40 38 39 41 45 48 50
71 68 70 69 65 64 66 74 80 78 77 73 69 67 67 66 65 64 66 63 62 62 61 57 52 47 45 43 41 38 36 31 32 35 35 36 36 33 32 35 38 41 43 43 41 44 47 48 47
76 73 72 70 62 61 62 63 68 75 76 71 68 69 70 68 67 62 57 55 58 56 50 46 45 45 44 40 37 36 33 31 33 34 33 35 35 34 33 35 39 42 46 49 50 51 52 54 58
81 80 74 69 61 57 57 59 58 63 58 58 63 64 66 65 61 55 54 51 45 41 39 42 42 44 41 36 37 34 32 31 36 36 34 35 34 34 33 35 38 44 50 52 56 58 59 61 60
89 83 76 67 62 57 56 54 53 53 50 50 53 55 52 53 49 48 49 41 39 37 40 42 42 39 34 33 32 29 31 34 37 38 35 35 34 33 34 35 37 43 50 54 57 60 63 66 68
90 87 75 67 63 58 54 52 51 44 46 46 47 43 43 41 40 38 36 38 38 40 42 41 39 32 32 29 28 29 31 34 36 36 36 34 33 34 36 38 41 45 52 55 57 56 60 59 59
93 85 73 68 62 59 52 54 50 46 43 43 43 41 36 32 31 33 35 36 37 41 40 38 32 31 29 27 28 29 33 34 34 35 35 34 33 34 36 39 43 46 47 48 51 53 55 58 59
88 82 76 69 62 57 55 57 48 46 43 43 39 36 31 31 32 35 35 35 37 39 39 32 32 30 29 28 30 30 32 32 32 33 35 37 36 35 37 39 41 44 48 51 52 54 54 55 57
90 86 81 74 66 55 56 57 48 47 45 42 38 33 32 33 34 36 35 34 28 28 28 29 31 31 33 34 31 31 33 32 32 33 36 37 38 38 38 39 42 44 47 49 50 53 56 60 63
94 88 83 74 63 57 56 56 50 47 46 43 36 33 33 30 29 31 33 29 26 24 27 28 29 32 33 33 32 33 35 35 36 38 37 38 41 42 41 42 44 46 48 51 55 59 62 65 66
95 88 81 71 61 57 57 56 51 47 46 43 37 34 30 26 25 26 25 21 22 21 28 29 30 33 33 35 35 36 36 36 37 39 40 43 44 45 46 47 50 52 55 58 60 61 64 65 68
91 84 79 71 61 61 60 58 50 48 47 41 37 33 27 26 26 23 19 20 20 22 22 29 34 36 37 37 37 38 38 37 39 42 42 44 44 45 47 51 53 56 58 60 62 64 66 68 70
83 89 80 69 63 60 58 57 54 50 46 42 37 31 26 27 26 24 23 24 24 24 24 27 26 30 36 40 41 40 39 40 42 43 45 47 48 49 50 52 56 59 62 64 66 68 72 75 78
91 85 76 71 64 60 60 59 53 49 40 37 33 28 27 30 27 26 25 25 28 29 28 27 28 31 33 35 39 42 43 44 46 47 47 47 50 53 57 59 62 65 69 71 73 76 79 82 84
91 82 77 70 64 64 63 59 55 45 39 36 32 30 30 30 27 27 28 29 30 32 33 34 35 35 37 39 41 42 44 45 48 49 51 54 57 59 61 64 67 70 73 77 80 83 85 88 92
89 78 69 60 63 65 63 59 54 46 41 36 34 31 31 32 31 31 32 32 34 35 37 40 42 44 46 48 50 49 49 51 53 55 56 58 59 62 65 69 73 76 79 83 86 90 92 94 92
85 81 73 66 65 60 61 60 55 47 41 37 35 33 32 32 33 35 34 35 37 39 41 45 47 48 50 53 54 56 58 59 61 62 64 66 68 71 71 74 77 79 82 84 86 87 88 90 95
77 72 66 69 67 65 64 61 54 47 44 40 39 36 33 33 35 36 37 40 41 44 46 49 52 53 54 57 59 61 63 63 65 67 69 72 73 75 77 78 78 80 83 86 85 88 93 96 100
74 68 69 72 67 65 65 61 51 50 45 43 42 39 37 37 38 39 41 42 45 47 49 52 55 57 59 62 64 65 66 68 69 70 71 73 75 79 80 79 79 81 83 86 89 92 96 103 108
77 76 74 70 66 65 64 56 55 53 49 45 44 42 41 43 43 44 46 48 49 51 54 57 61 63 65 68 69 71 71 72 73 74 75 76 79 80 79 79 80 84 89 92 94 101 105 105 100

GFSSGP_250_spd_006.txt.gz
Wind_Speed
71 75 74 75 66 69 70 66 60 56 53 55 55 55 47 48 47 44 42 43 40 36 33 36 37 37 39 41 40 39 40 40 40 40 41 43 46 44 45 48 50 53 55 56 57 54 52 50 51
70 78 74 76 71 67 70 70 60 52 58 58 57 56 50 47 49 48 43 39 35 31 32 32 35 42 45 46 46 47 45 44 43 44 44 43 46 50 54 56 58 58 58 57 55 53 50 48 44
75 76 77 78 76 72 68 62 66 66 63 60 60 61 56 48 48 46 47 43 36 36 38 42 44 45 49 50 50 50 51 50 50 50 49 51 54 53 54 56 57 57 55 52 52 52 48 44 39
71 73 79 79 77 76 74 67 59 68 65 66 65 61 57 52 50 45 41 43 42 42 44 47 48 48 49 48 52 53 54 54 51 53 55 58 58 57 57 55 55 55 52 51 50 49 45 40 39
59 76 74 79 79 75 74 71 68 58 68 71 71 61 58 52 48 46 47 49 47 47 46 50 50 50 49 47 49 52 55 53 55 56 59 59 60 60 58 55 53 53 51 49 48 46 42 39 41
59 69 76 75 79 77 74 77 73 70 61 62 70 72 59 58 57 54 51 48 48 51 47 49 50 53 54 54 55 52 53 57 60 61 63 62 63 61 53 52 50 50 49 47 45 43 41 41 42
61 61 71 75 78 79 77 72 77 73 68 67 61 65 54 57 59 52 50 49 51 50 50 51 53 55 57 54 59 60 60 61 66 68 66 64 60 54 49 45 46 48 47 44 42 39 38 40 38
67 64 63 65 66 80 81 74 76 75 76 69 74 69 57 68 52 51 52 52 52 51 53 55 59 59 59 61 62 63 67 67 68 65 64 60 50 44 42 40 45 45 42 39 37 37 35 36 38
72 68 63 65 68 69 84 77 74 76 76 73 76 72 68 72 60 58 58 60 60 61 59 60 61 60 60 64 64 69 68 68 66 63 56 47 43 41 37 40 42 41 37 36 37 38 41 42 40
76 70 67 70 70 67 71 77 78 80 78 78 76 72 70 71 70 68 68 68 64 64 65 66 66 67 66 68 67 69 68 65 60 52 46 42 40 38 38 39 40 39 37 37 38 39 42 43 41
81 73 75 71 71 68 61 73 80 80 82 80 77 68 65 73 72 69 67 65 65 63 63 66 64 65 68 66 68 67 62 54 51 47 41 39 38 39 38 39 38 38 37 38 39 41 45 48 47
84 79 78 75 72 65 62 65 67 78 83 78 76 76 73 72 72 71 66 64 63 64 67 65 67 68 64 64 61 59 53 50 49 40 38 37 39 40 40 39 37 36 37 38 39 41 44 42 43
83 84 83 81 74 66 63 60 65 66 76 81 76 74 74 76 74 69 69 68 68 66 67 68 64 64 60 53 52 51 49 46 39 38 36 37 40 42 42 41 39 37 37 38 41 44 47 47 50
81 85 87 86 77 69 63 61 60 66 65 72 75 77 77 77 73 69 66 67 68 68 68 63 61 55 49 47 49 50 45 38 35 36 37 40 39 40 41 42 41 38 38 38 42 46 49 54 54
83 84 90 87 78 70 66 60 58 65 62 54 64 71 72 73 74 71 68 66 64 64 60 58 50 46 44 47 48 46 37 33 34 36 39 38 39 38 39 42 42 40 39 40 42 46 50 53 57
90 89 87 85 81 73 68 58 62 59 51 53 53 56 54 56 58 59 61 58 55 54 49 45 42 43 44 47 43 36 34 34 36 39 39 38 38 37 38 39 42 42 41 41 42 45 51 56 61
91 89 83 88 84 78 70 62 63 58 49 48 45 47 47 48 46 44 44 47 44 43 41 38 40 42 45 45 35 36 35 36 39 38 38 37 37 37 38 38 39 42 43 43 44 46 50 56 58
78 90 88 87 84 81 73 63 64 56 53 47 44 45 44 39 36 36 38 38 36 35 36 36 39 44 44 35 35 36 38 39 38 38 37 36 36 38 39 40 41 43 43 44 46 49 51 53 54
80 90 95 88 87 83 75 67 66 57 53 46 44 45 40 36 32 33 35 34 34 34 35 34 37 36 32 31 33 36 37 38 38 38 38 37 37 37 39 43 44 44 45 47 48 49 51 54 55
71 89 95 90 87 86 76 66 65 56 52 47 46 44 39 36 33 35 33 33 35 34 36 37 34 29 31 30 32 35 36 37 38 39 39 39 38 39 41 42 43 44 47 49 51 54 57 59 61
62 84 90 87 87 82 76 66 63 54 53 49 47 45 41 35 35 35 31 28 29 33 32 30 24 26 30 33 34 35 37 37 37 38 40 41 41 43 44 44 45 46 49 50 52 56 58 62 66
61 75 86 83 82 79 74 64 66 55 51 49 48 45 41 38 37 33 28 27 29 28 27 24 25 23 25 26 28 31 37 39 40 41 43 44 45 46 47 48 49 50 51 52 56 59 62 64 68
64 83 87 91 88 81 74 66 60 51 50 52 48 45 42 40 37 30 27 29 32 29 26 24 24 24 25 26 27 30 32 35 38 41 42 44 45 47 48 51 53 55 56 57 60 63 66 68 71
90 92 96 85 83 80 71 66 64 53 54 55 46 44 45 41 36 29 27 30 30 29 29 29 26 27 28 30 32 34 36 38 40 42 44 46 49 51 52 53 56 59 61 64 67 69 72 74 77
86 92 96 88 82 84 73 65 63 55 52 52 46 45 45 42 35 31 30 30 31 30 30 30 31 33 34 37 38 40 42 45 48 49 51 53 55 58 60 61 62 64 67 69 71 75 76 79 81
81 88 86 88 87 75 66 62 58 52 53 52 47 46 47 42 34 32 32 32 35 34 33 34 35 36 39 42 44 47 48 51 53 56 58 60 61 63 64 67 68 70 71 73 76 78 80 81 82
89 85 80 80 78 75 67 66 59 54 52 50 48 46 44 38 35 32 33 34 36 36 36 38 40 41 44 46 48 51 54 57 60 63 65 66 68 68 70 72 73 75 76 78 80 82 83 83 83
89 85 82 84 81 71 69 66 59 54 52 53 50 46 41 37 35 35 34 34 36 36 37 40 41 46 48 50 53 57 60 63 66 68 70 73 73 74 76 77 79 80 81 83 82 83 82 84 87
90 91 88 73 75 72 68 62 57 54 56 55 52 46 41 37 37 37 36 38 37 39 42 44 46 50 52 54 59 63 65 69 71 73 75 77 78 79 81 82 82 84 86 85 84 85 86 88 92
86 84 82 79 72 70 67 63 59 57 56 56 51 46 41 40 41 41 41 41 42 44 46 48 52 56 58 60 64 68 71 74 77 78 80 80 82 83 84 84 85 88 89 88 88 88 91 95 101

GFSSGP_250_spd_009.txt.gz
Wind_Speed
68 71 75 74 70 69 69 66 65 60 60 62 58 55 52 49 48 44 45 45 41 40 41 38 35 33 33 36 38 38 39 40 41 43 43 44 43 45 48 47 46 48 52 55 57 59 60 62 61
66 70 73 75 77 77 73 72 63 65 67 67 62 58 54 50 49 49 45 47 47 45 44 46 40 32 31 34 37 41 43 45 47 47 47 52 53 51 52 53 54 57 57 57 59 60 61 59 59
64 67 75 74 80 79 75 69 71 68 68 70 66 64 55 51 55 49 49 50 51 48 46 41 37 35 37 40 42 44 47 49 51 52 53 54 54 56 58 60 60 63 64 61 61 60 60 59 58
62 60 69 75 76 80 80 71 73 76 64 72 72 65 61 55 57 54 49 50 51 47 46 46 43 43 43 43 46 45 48 46 47 50 51 53 54 56 59 59 61 65 63 64 65 61 59 57 58
60 62 62 70 78 77 79 73 78 77 76 65 65 68 65 61 56 55 54 54 54 49 44 42 45 48 50 50 48 48 49 50 53 55 54 52 56 59 63 66 67 65 65 64 59 55 53 54 55
65 62 62 61 68 78 75 74 78 79 75 74 67 59 70 67 62 60 58 55 55 52 51 49 44 48 50 52 47 49 52 54 56 58 58 59 61 64 68 68 63 66 61 57 52 49 50 51 51
71 67 63 64 60 67 76 75 77 80 79 75 75 71 62 59 70 68 62 57 59 58 52 45 46 52 53 49 50 52 56 59 61 60 62 62 67 67 64 65 64 55 51 48 47 48 49 49 48
76 71 65 63 65 62 69 75 79 78 82 79 78 75 69 62 64 58 53 64 53 53 49 49 51 55 54 52 57 59 62 66 68 68 69 66 68 65 67 58 51 46 44 45 48 48 48 46 45
75 72 69 70 69 73 63 70 77 76 76 77 77 78 71 70 63 56 54 53 50 52 54 55 56 56 58 59 62 65 67 68 68 69 69 69 66 64 55 49 42 41 45 46 46 47 47 44 44
73 74 74 76 74 71 68 65 68 75 77 77 75 78 74 73 69 67 63 60 61 61 60 62 62 62 62 62 64 64 64 67 72 70 68 66 61 55 50 40 38 42 45 45 46 45 45 45 45
69 74 78 79 78 75 68 59 62 70 75 78 78 77 74 72 74 74 67 65 67 65 66 67 67 66 64 63 65 66 65 69 70 68 62 60 55 51 39 37 41 43 45 46 46 44 43 43 45
67 70 79 82 80 77 71 65 61 65 69 77 78 79 73 74 72 71 65 66 69 69 70 68 68 67 67 67 68 66 69 69 65 60 58 56 53 42 37 41 44 42 44 45 45 44 43 44 45
71 72 72 81 81 79 75 68 67 61 69 67 74 79 76 73 75 70 67 68 64 65 68 67 67 69 70 71 72 73 68 61 57 57 55 51 44 37 41 44 45 43 42 43 43 44 43 44 47
75 74 71 74 81 82 78 72 70 65 65 66 64 74 75 76 76 76 73 70 69 71 70 69 68 67 69 69 69 65 60 54 54 53 52 43 38 39 43 44 45 43 43 43 42 44 45 44 47
64 75 74 72 76 81 82 73 70 72 64 62 59 58 65 75 75 73 75 74 74 73 71 68 67 65 65 65 61 58 52 51 51 50 40 38 39 42 43 45 44 42 43 43 42 43 45 45 47
60 66 74 76 78 79 85 75 75 76 65 60 60 56 52 57 68 71 73 73 73 74 70 69 68 68 66 59 51 49 49 49 50 43 40 41 43 43 41 40 41 41 42 42 43 42 43 46 48
56 60 67 71 81 82 85 78 80 81 67 60 58 54 49 52 52 55 63 68 72 66 62 63 59 57 53 46 43 44 48 49 43 39 41 43 41 40 38 38 39 40 40 42 43 43 44 45 47
63 65 66 64 75 87 82 78 82 84 68 62 59 52 47 49 47 49 45 46 51 53 50 49 46 44 41 39 39 45 45 39 40 40 40 39 40 42 39 39 40 39 37 38 40 42 43 45 48
61 64 65 64 74 90 83 80 81 86 70 65 58 50 45 44 40 40 40 41 42 43 42 41 39 34 34 36 40 40 32 36 38 38 38 39 40 41 41 40 41 42 44 44 45 45 46 45 46
67 66 61 64 71 89 87 80 84 84 71 66 59 48 44 42 40 38 38 38 39 36 35 33 31 32 33 36 36 35 36 37 38 37 39 40 40 41 42 44 46 48 49 49 49 50 53 54 53
70 65 65 62 71 78 89 84 82 79 72 67 58 47 44 43 40 37 38 37 35 32 32 31 31 32 32 31 30 31 33 35 35 38 40 40 41 42 43 45 46 48 49 50 51 53 55 58 60
74 74 75 68 73 69 82 83 77 76 73 67 57 45 45 45 40 40 38 38 34 32 29 26 26 26 28 28 30 30 32 32 31 32 34 36 38 40 42 44 46 49 51 53 55 56 57 60 64
77 79 74 72 67 68 81 82 75 81 77 63 54 44 45 47 42 42 40 39 35 33 29 28 28 27 26 28 29 31 32 32 34 36 37 40 41 42 45 47 49 51 54 56 58 60 63 64 66
72 72 68 66 62 72 80 75 76 75 69 61 52 47 47 47 45 44 42 40 37 34 28 28 30 30 30 32 32 34 36 38 40 41 43 46 49 51 53 55 57 59 61 62 63 65 66 69 71
55 60 58 61 63 67 70 69 74 73 69 60 50 50 49 48 46 45 44 42 40 34 30 30 32 31 32 33 36 37 40 42 43 43 46 49 53 56 59 61 63 65 66 67 69 71 73 74 77
51 52 52 52 62 62 72 76 75 70 67 57 53 51 49 49 46 47 46 44 40 37 34 34 33 34 37 38 40 42 43 46 47 49 52 53 57 61 65 68 70 71 72 73 75 77 78 80 83
49 49 51 61 73 78 81 81 77 70 65 57 54 51 51 48 46 47 49 45 42 39 37 36 37 37 39 40 42 44 47 50 52 55 57 60 64 67 70 75 76 77 78 79 80 81 83 85 89
59 72 73 74 76 76 75 75 75 68 63 57 55 53 51 48 48 49 50 45 42 39 37 38 38 39 41 44 46 47 51 55 58 60 63 66 71 74 78 81 83 83 83 84 84 85 88 91 94
58 75 80 77 69 74 73 74 69 65 60 57 55 52 51 47 49 50 49 46 42 41 40 40 40 42 45 48 50 54 57 61 63 65 69 74 77 81 84 88 88 87 88 88 88 90 93 94 92
84 78 75 68 63 70 72 71 68 64 60 55 54 51 50 48 48 49 47 44 41 43 44 44 46 48 50 53 57 60 64 68 70 72 76 80 84 87 91 92 90 90 90 91 93 94 94 91 92

GFSSGP_250_spd_012.txt.gz
Wind_Speed
57 63 67 67 66 69 70 70 68 64 64 65 61 61 59 54 51 51 50 50 51 49 45 42 42 40 38 38 38 39 37 38 38 39 40 42 44 45 47 51 53 56 56 57 58 59 60 60 61
55 58 63 70 69 74 68 73 74 70 70 70 69 63 63 60 56 55 54 53 53 53 51 46 47 46 43 42 41 36 33 37 40 41 44 47 49 50 51 54 56 58 58 60 62 64 63 67 69
53 55 59 63 69 72 72 75 78 74 75 71 70 65 63 64 61 56 54 56 55 54 52 49 49 49 46 47 42 40 39 40 42 47 48 46 46 49 52 52 55 58 61 62 64 66 66 65 64
60 56 57 60 66 72 74 73 78 78 79 75 72 69 65 68 66 62 59 57 56 55 55 53 52 51 44 41 43 45 45 44 46 46 45 48 49 52 55 57 57 60 61 64 67 68 68 67 66
63 60 57 58 64 68 75 77 78 82 79 76 77 73 67 63 68 67 62 60 62 61 58 55 54 51 47 49 51 51 49 48 47 48 51 52 54 57 62 63 63 64 65 69 70 67 66 65 61
66 66 63 64 64 63 66 76 77 83 80 82 81 78 75 71 64 70 69 65 63 62 60 58 57 54 51 51 48 51 48 51 50 50 53 55 60 66 69 70 71 70 70 70 68 65 59 56 55
66 69 68 69 66 61 66 69 79 81 80 85 84 79 78 75 71 63 70 71 68 67 63 61 60 58 55 51 51 48 49 54 55 56 58 62 64 65 68 71 69 68 68 64 60 56 52 50 52
63 64 71 72 73 70 66 67 68 81 78 79 89 83 80 77 77 70 65 65 66 68 69 65 60 61 59 55 50 49 53 55 58 61 62 65 64 65 67 68 71 65 63 59 55 49 48 50 51
58 57 69 77 78 79 72 66 66 68 77 82 83 85 80 77 77 74 71 66 68 67 61 52 52 67 54 56 54 55 58 61 63 66 67 66 65 67 69 70 69 63 58 54 47 44 47 50 51
49 54 66 76 80 79 73 68 67 69 65 79 82 80 82 77 77 78 77 69 68 67 67 67 60 53 51 53 56 59 63 65 68 70 70 70 72 70 72 68 64 58 54 46 43 45 48 50 52
50 49 57 67 76 81 77 73 70 68 69 68 76 78 77 77 80 81 81 75 72 70 68 62 64 64 62 60 62 62 66 68 71 74 74 74 73 71 69 64 60 52 46 43 44 48 50 49 49
47 51 55 63 69 76 80 77 74 70 73 72 66 71 72 74 76 80 78 75 73 72 72 70 66 65 65 66 66 65 66 68 73 74 73 72 70 68 65 61 55 48 42 44 46 48 49 49 48
48 56 59 66 65 70 79 79 77 73 76 72 69 65 69 71 74 77 75 72 75 75 74 72 70 69 68 68 70 68 68 70 69 70 68 67 67 63 59 55 46 41 43 44 48 49 48 48 48
52 55 57 64 71 70 73 78 76 79 81 74 69 64 61 65 70 74 74 72 70 72 71 70 65 65 66 66 67 69 70 72 70 68 70 66 60 58 56 48 43 43 44 46 47 45 45 46 45
52 53 58 61 69 75 73 71 77 83 83 77 71 67 59 59 63 61 69 73 75 74 68 69 63 64 69 70 70 74 72 71 69 69 67 58 57 57 50 44 44 45 42 43 42 43 42 43 43
55 55 56 59 63 71 77 67 73 81 85 80 75 69 64 58 61 62 57 67 74 75 74 71 71 73 73 72 75 75 72 71 69 63 54 56 53 50 44 44 42 42 41 41 41 41 40 41 43
54 51 56 58 61 67 77 70 74 77 86 82 78 73 67 60 58 56 53 55 59 70 73 71 69 72 73 73 71 71 63 58 53 51 52 53 45 44 41 43 43 44 43 43 43 42 43 46 46
53 52 56 61 65 68 72 72 77 78 83 84 79 73 69 62 58 54 49 48 45 50 57 63 67 69 66 64 66 63 56 49 47 47 48 40 41 42 41 41 41 45 48 47 48 48 48 50 51
59 51 49 55 59 64 64 66 76 80 80 81 79 75 69 64 57 53 47 43 44 42 44 47 50 52 50 51 53 51 42 44 44 46 42 39 41 41 42 44 47 47 49 51 51 52 51 51 53
63 55 51 58 64 64 64 60 69 78 80 77 79 76 71 66 58 50 47 42 42 41 40 43 43 44 45 44 42 39 40 41 43 42 39 41 39 39 40 45 46 45 46 47 48 50 52 52 53
68 60 61 62 70 67 69 63 67 71 82 79 76 76 72 68 58 46 45 41 40 39 37 38 39 39 36 35 36 37 38 40 36 35 36 37 38 37 38 40 42 42 43 45 48 51 54 55 55
70 69 69 69 70 67 75 63 69 71 77 80 73 74 72 69 58 47 45 41 39 37 37 37 36 33 33 34 33 34 36 35 35 36 38 39 38 38 41 43 44 45 48 50 52 55 58 62 63
74 77 75 75 73 77 71 61 55 65 70 78 70 72 72 69 59 46 45 41 40 39 37 37 34 34 29 28 30 32 34 37 38 39 40 42 43 44 44 46 47 50 53 55 57 59 61 64 67
84 83 81 79 80 72 68 62 50 57 59 77 74 71 73 68 57 49 46 42 42 40 39 38 38 34 34 34 34 35 38 40 41 42 44 44 44 45 49 50 53 55 58 61 65 67 69 72 73
89 90 89 86 79 55 72 59 40 57 64 74 74 71 74 67 55 49 47 44 43 42 41 41 40 36 35 35 36 38 40 41 42 46 47 46 48 51 55 57 60 63 66 69 74 75 77 80 81
85 85 80 71 60 64 76 41 43 64 73 74 72 71 72 63 53 50 46 45 46 44 42 43 42 41 40 39 40 41 43 45 46 49 51 51 53 57 60 63 66 70 73 76 81 82 87 88 88
58 54 66 65 62 61 53 44 62 74 63 67 67 66 67 61 54 51 48 47 47 45 44 44 44 45 42 42 42 44 47 47 50 51 53 55 59 63 67 70 73 77 79 83 87 91 93 92 91
36 44 41 39 46 45 46 56 61 56 58 66 65 70 68 60 54 49 49 49 48 46 47 47 46 47 45 46 47 48 49 51 53 55 58 61 65 68 73 77 80 83 86 90 95 97 95 93 93
31 30 34 47 54 51 50 54 61 63 67 70 71 70 65 58 52 49 47 49 49 50 51 50 48 48 48 48 49 50 51 55 59 61 63 67 71 75 81 84 86 90 94 99 101 98 94 93 95
34 46 59 56 53 54 55 62 66 68 71 71 68 67 61 55 51 48 47 49 51 52 51 51 51 51 51 51 53 54 57 61 63 68 70 74 79 83 86 89 93 97 101 103 99 95 94 95 97

GFSSGP_250_spd_015.txt.gz
Wind_Speed
73 73 73 72 70 69 68 64 67 71 70 70 67 65 62 61 60 55 53 53 56 54 53 52 51 47 42 40 42 42 42 44 43 42 35 32 37 39 41 45 46 49 50 54 56 58 61 62 64
66 63 63 62 65 65 66 66 69 73 73 73 71 67 66 62 61 61 57 55 56 57 57 56 54 50 48 45 43 47 46 45 45 44 34 39 43 44 47 46 48 50 49 51 54 59 61 63 64
60 56 54 52 56 62 63 69 72 76 76 75 73 70 68 66 63 61 63 59 58 58 58 58 57 55 50 47 46 50 47 48 47 44 41 43 46 45 48 48 53 54 55 59 64 64 66 68 67
59 58 56 53 56 57 60 65 70 74 77 77 74 73 71 71 69 65 65 65 62 60 61 60 58 57 54 51 49 51 53 48 45 45 46 47 49 51 51 54 57 61 63 67 69 70 72 70 71
60 60 59 59 61 58 56 57 62 72 75 77 76 76 73 73 71 68 69 67 69 66 64 62 60 57 55 53 55 55 55 51 48 50 57 55 52 56 52 58 60 64 66 67 71 69 68 69 69
58 62 61 64 66 60 58 58 59 63 76 79 77 78 79 78 76 73 71 71 69 71 69 65 63 60 60 61 58 57 58 55 52 48 51 54 54 56 59 57 63 68 69 71 68 67 73 71 67
55 56 60 66 70 64 66 61 61 62 68 79 75 78 81 81 81 77 75 73 70 69 71 70 67 65 64 62 63 61 60 58 57 51 49 52 57 60 61 65 68 70 67 69 71 71 70 65 62
51 51 55 62 70 71 70 67 66 63 62 71 81 75 80 83 80 78 76 76 75 69 66 67 73 69 66 64 65 63 64 60 60 55 52 56 59 63 66 70 73 75 76 70 74 72 66 62 58
51 48 54 61 68 75 72 69 67 66 64 65 71 81 79 77 81 82 81 81 81 79 76 70 66 68 68 65 61 58 54 61 62 55 56 61 63 66 70 74 77 79 74 73 73 69 64 57 52
45 44 52 61 64 70 66 67 70 69 70 67 67 69 77 79 78 82 85 86 85 81 78 76 70 67 70 70 62 61 60 59 52 56 59 61 65 70 72 75 73 71 69 74 71 67 56 51 48
45 44 52 57 59 63 65 65 71 74 74 76 70 65 66 70 78 78 82 84 83 82 78 77 76 73 67 66 67 69 66 64 62 66 67 66 70 72 71 73 73 70 74 75 66 55 49 46 47
44 47 50 55 58 60 62 63 68 73 79 79 76 69 65 63 67 78 80 78 79 81 80 77 77 75 73 70 68 69 66 66 67 68 70 70 72 73 74 73 72 73 75 68 59 52 46 47 49
45 51 51 52 55 59 62 60 61 69 78 82 80 75 69 67 65 68 71 77 78 79 81 76 78 77 75 74 73 72 70 69 70 71 71 69 71 74 76 73 72 73 69 62 52 45 45 46 48
49 49 50 50 53 56 58 60 61 63 73 81 83 79 75 67 67 63 62 67 73 73 76 78 76 76 74 75 74 74 72 71 73 72 69 72 72 76 79 73 70 66 61 52 46 42 41 43 44
50 52 52 52 55 55 60 59 60 67 68 75 81 81 78 71 67 67 62 61 60 66 71 75 73 73 73 73 71 71 73 68 71 69 72 71 75 76 68 66 64 61 51 42 41 43 43 45 45
50 53 55 55 58 59 62 49 61 68 70 69 76 79 78 74 72 69 65 61 60 59 61 68 72 72 70 68 66 65 63 65 70 73 74 75 74 72 67 59 57 47 42 41 42 44 46 50 53
53 53 57 58 62 62 59 52 62 69 69 73 72 74 79 75 74 72 66 60 58 56 56 53 59 69 73 74 70 69 71 70 70 72 72 72 68 62 56 55 46 42 42 42 44 47 49 51 52
60 57 56 57 58 61 56 49 60 66 67 73 75 70 75 76 77 74 67 63 58 55 55 54 57 55 58 68 72 72 71 69 69 69 66 59 56 54 51 47 43 45 45 45 45 46 48 49 51
62 59 56 57 58 61 55 51 57 63 66 68 76 72 69 74 77 73 69 65 60 55 51 49 50 49 51 56 57 57 56 59 59 56 53 51 48 48 46 43 43 41 40 42 42 44 44 47 50
68 65 62 61 63 61 60 49 56 57 59 63 69 74 69 69 75 74 71 67 62 55 52 49 48 48 43 41 44 45 48 49 50 49 48 46 45 43 40 40 39 41 43 44 45 47 48 49 51
76 73 72 67 69 64 58 48 53 55 57 59 58 66 69 65 70 72 71 67 62 54 52 49 48 47 42 40 40 44 45 45 44 43 42 42 40 38 40 41 43 43 45 46 48 51 53 54 54
81 80 79 75 72 66 62 45 51 55 52 52 52 57 67 68 68 70 71 67 63 53 50 49 47 43 39 38 38 40 40 39 39 39 36 36 38 40 41 43 45 48 49 51 54 57 59 61 64
79 81 79 78 75 70 64 50 45 54 53 58 60 60 63 71 67 69 71 68 62 53 49 48 46 41 37 37 38 38 38 37 35 35 36 38 41 42 45 47 50 51 52 54 57 61 65 68 71
81 81 81 82 81 67 69 54 41 55 52 57 60 60 62 71 69 68 70 67 60 54 51 48 45 40 38 38 38 38 37 36 36 38 39 42 43 46 48 52 54 55 57 60 63 67 70 74 77
82 84 86 87 83 65 73 60 32 52 56 56 56 55 58 67 69 68 67 66 61 55 51 49 45 41 40 41 41 41 42 41 40 42 44 44 47 51 53 56 58 61 62 65 69 74 77 81 85
81 86 87 89 83 80 86 51 38 53 61 65 60 56 54 61 67 66 66 65 60 55 52 49 46 43 43 43 44 45 45 43 46 47 47 48 52 55 57 60 62 65 69 71 76 81 86 89 92
88 90 94 89 83 86 79 59 50 56 63 67 60 59 50 54 64 67 68 65 60 55 53 50 46 45 45 47 46 47 48 47 48 49 50 53 56 59 60 63 68 71 74 78 84 90 93 97 100
68 71 69 67 66 65 62 59 55 67 68 64 59 57 54 58 67 67 66 63 60 56 52 49 48 48 48 48 49 49 50 50 51 53 55 58 60 62 65 70 74 77 80 85 91 96 99 104 108
47 48 46 46 45 48 51 56 72 74 76 64 64 61 58 63 70 69 67 62 58 53 51 50 49 50 50 50 51 52 52 53 54 57 59 62 64 68 72 76 79 82 87 92 98 101 106 111 117
28 30 31 34 38 44 47 59 68 67 61 59 60 61 59 66 68 65 63 61 55 53 52 51 51 53 52 52 52 53 54 54 58 62 64 67 70 73 76 80 83 88 93 99 102 108 113 118 107

GFSSGP_250_spd_018.txt.gz
Wind_Speed
71 68 67 67 67 65 67 67 69 68 68 68 65 66 64 62 64 60 57 58 59 57 55 55 52 49 49 48 49 47 43 39 40 43 43 40 40 41 34 35 39 42 45 46 47 51 51 54 58
69 69 68 67 69 68 67 69 67 68 70 68 69 69 68 67 66 65 60 61 60 60 57 55 55 53 52 52 52 51 48 45 44 45 47 43 43 42 42 41 44 45 49 51 53 56 57 58 63
68 68 66 65 67 69 66 67 65 68 71 71 74 73 72 72 70 68 65 64 62 63 63 59 56 56 55 55 54 53 52 50 49 49 49 44 45 47 47 46 48 51 53 55 54 56 58 64 66
65 64 64 61 63 66 65 63 64 66 71 71 73 74 76 69 74 70 70 67 66 64 65 64 61 59 58 57 57 56 55 54 51 51 51 47 47 47 51 54 58 59 56 56 57 55 62 64 67
56 56 55 55 61 64 62 59 58 59 64 65 68 71 74 77 71 65 74 71 67 68 68 67 65 61 60 60 59 58 57 57 54 53 53 50 51 51 56 58 59 58 57 59 61 67 69 75 77
51 56 53 58 64 63 60 59 58 58 59 62 63 72 74 76 77 76 70 74 72 71 71 68 68 67 65 64 62 62 60 58 57 56 56 56 57 57 51 51 52 54 59 61 64 69 72 77 73
53 52 51 57 62 63 66 63 63 62 58 59 59 65 74 73 74 77 77 74 72 75 73 72 70 70 70 67 67 65 63 63 62 62 61 62 62 61 56 55 55 56 61 66 68 74 77 74 71
54 51 51 56 62 64 65 65 63 63 61 58 59 59 66 71 70 73 80 78 76 73 72 73 73 72 73 71 72 71 69 66 66 65 61 63 65 63 63 59 59 60 62 66 73 73 73 70 71
50 48 51 57 61 64 60 60 64 63 62 60 62 61 62 65 74 73 72 78 80 80 79 77 77 74 73 69 69 69 68 70 67 65 60 55 45 55 57 58 58 63 68 69 72 74 69 68 71
46 47 52 58 59 60 56 54 58 62 65 66 66 66 62 61 64 76 76 75 77 80 82 83 79 77 74 73 70 67 66 65 66 66 63 60 62 66 67 63 68 69 72 72 72 75 72 70 70
45 44 52 56 55 55 55 51 54 59 64 69 69 67 67 64 61 65 75 79 78 74 79 82 81 79 76 76 76 78 77 72 67 63 65 67 67 68 69 69 70 70 74 75 72 77 74 68 67
44 47 51 55 57 54 52 48 51 56 63 66 68 68 70 68 66 64 68 72 77 79 78 77 78 79 79 77 77 77 75 74 74 70 67 66 66 69 69 69 72 73 74 73 75 74 67 67 58
45 49 50 51 56 56 54 48 47 53 62 65 68 69 70 72 69 69 67 70 70 73 76 78 78 79 79 78 77 79 77 76 75 73 72 72 72 72 71 71 72 75 75 73 73 74 67 59 45
44 46 49 53 53 55 54 54 46 52 60 63 66 69 70 71 73 72 70 70 70 69 67 70 73 74 77 80 76 77 77 76 73 73 73 73 73 74 70 70 73 72 71 68 69 65 61 45 40
51 49 50 52 57 58 58 50 47 54 53 59 64 64 68 70 74 75 73 73 73 70 65 63 64 68 71 74 76 77 73 74 71 70 70 71 71 68 65 67 69 70 67 65 62 59 51 43 42
56 57 58 59 58 58 62 46 55 55 56 55 61 65 66 67 72 74 76 77 76 70 68 65 63 64 63 66 70 74 74 70 69 67 66 66 62 62 65 70 70 69 63 60 57 53 47 45 44
65 60 58 59 62 61 57 52 59 57 57 54 56 60 63 66 68 72 75 76 76 73 69 66 63 61 59 60 60 63 66 68 66 66 63 63 63 66 71 70 69 61 57 53 50 48 46 43 43
71 65 60 62 63 60 57 52 55 59 59 56 56 58 60 63 65 68 71 74 75 75 72 66 63 62 61 59 56 55 52 57 64 69 71 71 71 73 72 66 58 53 53 47 44 43 42 44 46
73 71 67 65 65 65 61 55 55 57 58 56 55 54 57 60 67 68 68 71 72 75 72 67 62 61 58 53 52 53 53 56 57 60 63 66 65 65 59 54 52 50 46 42 42 43 44 47 49
80 79 73 69 72 71 68 53 55 54 52 53 52 51 54 59 64 69 69 68 70 72 71 69 64 59 57 51 47 47 47 49 51 52 52 52 53 52 51 51 48 45 43 42 43 46 48 50 53
83 81 84 82 79 74 72 58 58 56 53 52 50 49 49 56 61 66 70 69 67 70 69 68 65 60 55 51 47 46 47 48 47 46 47 48 47 47 47 45 42 41 42 43 46 48 52 54 57
84 84 85 85 89 80 78 59 59 56 54 49 49 45 45 52 55 58 65 70 67 68 68 66 65 61 54 49 47 47 48 48 47 46 44 44 44 43 42 41 42 41 44 48 51 53 56 58 62
83 89 92 95 95 90 82 66 57 62 58 49 47 46 47 51 50 53 59 67 68 64 67 67 63 61 55 49 48 46 45 46 45 43 42 40 40 41 41 42 42 46 50 53 55 59 61 65 66
84 88 89 86 87 77 77 71 53 56 58 52 48 48 48 49 52 51 56 63 66 63 64 65 64 61 54 50 47 45 44 46 43 41 40 40 41 42 42 44 47 51 55 58 61 64 67 69 71
88 85 79 74 75 59 72 69 47 54 57 57 54 52 54 54 51 54 58 59 63 63 62 63 64 61 53 49 46 45 45 45 43 42 42 45 46 46 47 48 52 56 60 63 66 69 71 73 78
72 73 70 70 66 61 66 50 47 57 62 58 60 55 58 56 55 58 58 57 59 60 59 64 63 59 54 50 48 46 46 46 46 47 45 47 49 49 50 54 58 62 66 68 70 73 76 80 84
70 68 74 69 67 68 59 49 50 56 64 65 63 59 56 60 58 59 56 56 57 60 61 63 62 57 53 51 48 48 47 49 49 49 49 49 50 53 55 58 63 66 70 73 75 79 82 86 90
73 73 75 71 71 68 57 53 56 62 74 69 67 60 53 57 55 53 55 58 58 61 62 62 60 57 54 52 49 48 50 51 51 51 53 53 54 57 60 63 67 71 74 77 80 83 86 92 96
52 55 55 57 59 54 49 50 63 76 81 79 75 66 54 55 54 57 58 59 58 61 59 61 60 57 54 52 50 50 52 52 52 54 55 56 58 61 64 67 71 75 77 81 84 88 93 97 101
40 42 45 47 50 44 42 44 65 85 89 84 79 63 56 58 57 58 58 58 56 59 58 61 60 56 54 52 51 52 52 53 55 56 58 60 62 65 69 72 75 78 82 85 89 94 98 102 107

GFSSGP_250_spd_021.txt.gz
Wind_Speed
62 62 61 65 65 61 63 63 59 61 63 62 60 60 59 62 62 62 59 59 59 57 56 56 52 53 53 51 48 45 46 47 47 46 42 41 40 39 38 38 39 38 40 41 42 44 48 50 52
66 68 68 67 67 67 65 66 62 62 64 65 65 62 63 63 63 64 64 63 63 62 58 60 57 54 55 55 53 52 51 50 50 49 47 46 45 45 42 42 42 43 44 48 48 51 54 54 55
70 70 71 69 67 68 69 67 63 64 67 68 69 68 65 66 64 66 67 67 66 66 63 61 60 58 58 58 57 56 54 54 54 53 51 49 48 49 48 46 43 47 48 50 53 56 57 55 53
70 68 69 64 65 68 71 68 67 67 65 69 73 70 68 69 70 70 70 71 70 69 68 65 64 62 61 60 60 59 58 56 55 55 53 53 51 49 49 50 49 48 50 54 57 58 56 52 56
65 63 63 64 67 72 72 69 68 67 68 68 68 70 72 71 74 74 76 75 69 72 72 71 69 66 64 63 62 61 60 59 58 59 58 55 53 52 51 51 50 53 54 53 52 50 51 55 59
61 60 57 59 66 67 69 68 68 67 67 68 68 68 70 73 74 76 78 79 79 67 75 77 73 70 68 66 65 64 64 63 63 62 62 60 57 55 53 53 57 58 60 60 57 58 56 59 60
56 53 52 54 60 61 64 62 65 65 63 66 66 65 65 67 69 74 75 76 78 77 64 72 79 74 71 70 69 66 66 67 66 66 64 62 61 59 57 56 53 60 61 54 52 56 57 59 65
54 53 52 56 62 62 59 57 60 60 59 58 61 63 62 62 62 65 69 72 74 76 78 69 62 69 78 73 71 68 68 68 69 70 70 67 65 65 64 57 59 55 52 56 58 62 64 66 70
52 50 51 60 64 63 59 55 54 56 58 59 62 64 65 63 62 61 63 68 73 75 76 81 78 74 66 66 75 73 71 70 69 70 71 70 70 66 65 62 61 65 63 66 68 68 70 70 72
49 47 53 58 60 60 58 54 53 54 56 59 60 64 66 66 62 61 60 62 69 70 73 77 79 77 77 75 72 70 70 70 71 69 69 67 66 60 60 59 63 64 66 67 66 69 69 71 73
44 48 51 54 56 56 56 53 51 52 54 58 59 62 66 66 66 64 64 63 66 69 74 72 75 77 80 79 78 77 75 75 76 74 74 69 70 72 72 69 65 65 64 66 68 70 73 71 69
43 48 51 55 56 56 56 54 53 52 55 58 56 59 63 67 68 68 67 66 66 66 68 76 75 74 73 75 76 78 79 80 79 77 74 72 72 70 70 69 71 71 71 70 72 71 72 68 67
43 50 48 49 53 57 57 55 53 51 56 56 55 54 59 63 68 70 69 69 70 70 68 67 73 75 73 73 74 75 76 79 80 79 77 74 72 72 73 70 70 71 73 71 72 70 68 67 67
47 46 48 48 49 53 52 54 48 54 58 57 54 53 55 58 62 67 71 73 72 74 72 66 65 68 72 73 74 74 75 76 76 77 76 74 73 71 71 70 70 70 70 69 68 66 67 67 65
53 53 54 59 54 47 51 46 48 58 53 54 56 54 54 56 58 62 68 73 75 76 74 71 66 63 65 65 66 69 72 76 78 78 77 79 76 70 67 66 65 66 67 65 64 66 67 69 63
60 57 60 60 60 55 52 41 52 53 54 52 54 53 52 53 57 61 64 68 72 75 76 72 68 66 64 64 63 62 62 63 66 71 73 74 74 72 67 64 63 64 62 63 64 67 69 64 58
66 63 60 61 63 61 58 47 51 55 53 53 54 52 52 53 53 58 63 63 69 72 74 73 70 69 66 63 63 62 61 57 55 56 58 59 60 61 63 65 63 64 64 66 69 69 66 59 54
66 63 64 64 68 68 64 56 55 53 52 54 54 55 55 55 55 55 58 61 66 70 73 72 72 70 68 66 64 60 60 58 55 54 53 53 50 54 60 64 65 66 68 68 66 64 58 54 51
70 68 68 70 75 76 70 60 56 60 53 52 54 54 55 56 58 57 55 58 65 69 70 69 71 71 68 67 65 60 57 54 55 52 51 50 50 54 57 58 61 62 61 60 60 55 53 52 48
72 74 75 75 77 79 75 60 60 61 58 55 55 55 54 55 57 58 58 55 64 69 69 68 69 70 68 67 65 61 57 55 53 50 48 48 47 51 55 56 57 55 54 55 53 51 50 48 49
78 79 82 84 83 81 78 68 67 66 60 58 61 57 56 54 56 56 57 54 59 67 70 69 67 67 67 66 64 62 59 56 53 51 49 48 49 50 50 50 50 51 52 51 50 48 46 48 51
81 86 87 86 87 83 83 75 71 71 69 63 60 65 61 57 56 58 57 53 55 63 67 68 66 64 65 66 64 62 58 56 51 50 48 49 50 51 51 49 49 50 50 48 48 46 49 52 55
86 88 89 89 89 87 81 78 64 67 67 68 66 67 67 63 60 60 58 52 55 58 62 63 65 62 62 64 65 58 59 56 51 49 49 50 50 49 48 48 47 47 47 47 48 50 53 56 60
84 82 81 81 80 68 72 78 55 71 77 83 83 78 74 70 66 63 59 52 54 56 56 57 61 63 60 62 63 62 58 54 50 50 50 50 50 48 47 45 46 48 48 49 52 54 57 60 64
70 73 76 78 81 73 77 81 57 66 72 77 87 84 80 73 70 67 58 51 54 54 53 55 59 62 59 61 62 62 60 54 50 51 49 51 50 49 48 48 50 51 52 54 56 59 63 66 69
75 80 83 82 80 78 84 64 60 74 74 82 84 83 76 70 70 67 58 52 55 56 52 50 51 57 59 60 62 61 59 53 51 51 50 51 50 50 51 52 52 53 56 58 61 64 68 72 75
81 86 91 86 82 73 71 58 54 63 71 76 80 83 78 67 64 63 54 53 52 56 56 52 48 53 58 59 61 60 58 54 52 50 51 52 52 53 54 54 54 57 60 62 65 69 73 76 80
83 81 80 79 72 70 63 57 57 59 68 74 78 79 77 66 60 60 51 50 52 55 55 53 48 53 58 59 60 61 58 55 52 51 53 54 54 55 57 57 60 61 63 67 71 75 79 83 86
59 58 61 60 57 55 49 54 62 63 72 75 78 76 74 66 58 55 48 50 52 54 52 51 50 54 57 58 59 60 57 54 53 52 54 55 56 57 58 61 63 65 68 72 75 79 83 86 90
42 40 41 41 42 39 40 42 62 76 80 77 76 75 70 65 58 52 46 50 54 54 51 49 49 54 58 59 59 58 56 54 53 53 55 57 57 58 61 63 66 68 72 75 78 82 86 90 94

GFSSGP_250_spd_024.txt.gz
Wind_Speed
62 60 60 63 63 60 60 58 58 59 56 55 54 54 57 57 57 58 59 58 59 59 57 56 54 54 52 49 48 50 48 46 46 44 45 44 44 46 43 40 41 39 40 40 40 40 42 45 48
61 64 62 59 62 66 64 60 61 62 62 59 60 61 58 61 62 62 60 61 63 63 62 60 58 57 57 55 52 51 53 51 49 50 50 51 50 49 47 44 45 44 44 45 43 45 46 48 50
68 66 66 63 66 67 69 68 64 66 70 67 66 65 63 63 65 65 64 63 65 66 66 65 64 64 61 60 60 56 55 56 54 52 53 54 54 54 52 48 47 47 47 48 46 48 49 51 55
69 70 70 69 70 72 72 71 73 70 72 73 71 67 67 67 67 67 67 67 69 69 70 70 69 67 65 64 63 62 59 59 58 57 56 54 55 54 54 52 50 50 51 52 51 52 51 54 54
74 72 71 72 75 75 77 77 75 75 74 74 76 74 71 71 70 70 72 71 72 73 73 73 72 72 70 69 66 66 65 62 62 61 59 58 57 57 55 56 55 54 53 53 54 54 57 60 61
74 75 71 69 74 74 76 76 76 76 76 75 76 74 75 75 71 73 73 74 76 76 77 77 74 74 74 72 71 70 68 66 66 64 63 62 60 59 59 58 59 59 58 56 54 57 59 54 51
69 71 69 68 71 71 71 69 71 71 72 72 73 75 76 75 73 72 72 74 76 78 80 79 80 78 69 71 74 73 72 70 68 68 66 66 64 62 62 62 62 62 61 61 63 58 55 56 60
66 67 66 66 71 71 70 67 68 71 69 67 68 70 70 69 69 71 70 71 74 75 80 80 83 81 80 70 57 71 73 77 74 71 71 69 68 66 65 66 66 65 65 67 66 61 61 62 66
68 66 65 68 71 72 69 66 63 61 62 61 60 60 64 67 68 67 66 67 68 68 71 74 79 83 84 80 71 62 64 80 75 74 74 72 70 69 70 66 66 66 65 66 61 58 61 62 63
62 61 65 67 66 65 64 63 59 58 58 59 58 60 63 64 66 67 66 67 66 66 65 65 68 74 76 81 83 74 65 61 60 65 75 73 70 68 67 66 66 66 65 64 64 69 68 68 68
55 55 56 58 59 60 62 62 58 56 56 59 60 60 61 63 67 68 69 69 70 68 68 66 65 69 76 74 72 82 80 77 73 71 70 69 68 68 68 70 71 72 72 70 69 70 67 67 68
53 55 52 51 52 54 58 58 53 50 53 56 55 58 62 62 65 68 69 69 71 72 71 69 65 63 66 70 73 73 76 80 79 80 78 79 76 75 76 77 77 75 75 73 71 73 70 68 69
53 55 53 50 50 51 51 54 52 47 51 54 55 56 58 60 63 65 66 67 68 73 73 71 67 64 62 63 68 72 73 78 81 81 80 79 77 78 78 78 79 76 75 74 72 73 71 69 67
58 59 56 52 52 48 49 51 46 55 56 52 52 56 58 57 58 59 60 62 64 66 70 71 71 67 64 63 62 64 70 73 74 77 78 77 76 76 77 76 75 75 74 76 71 72 68 65 63
63 61 59 60 55 50 47 44 44 56 48 48 52 55 57 58 58 58 58 58 60 62 64 69 71 71 69 65 63 63 64 68 74 72 70 71 72 72 73 73 75 77 77 74 73 69 65 65 61
64 58 63 65 61 56 48 53 54 57 50 46 48 51 54 57 57 59 59 57 58 61 62 64 69 71 70 69 66 65 66 64 63 64 68 68 64 66 69 70 71 72 72 73 71 66 64 62 63
69 65 64 66 65 62 57 55 61 58 54 52 47 45 50 55 58 58 59 59 57 57 62 63 64 68 69 70 69 68 67 65 62 59 58 57 57 55 53 53 55 56 58 60 62 64 64 64 67
70 67 68 68 71 67 62 56 63 62 60 56 55 49 47 52 56 59 60 59 58 58 60 62 63 63 64 69 70 70 68 66 65 62 60 58 57 55 53 53 54 56 57 56 59 62 64 66 66
74 72 71 71 72 71 66 58 61 67 65 64 60 57 54 49 55 59 60 63 59 58 60 61 61 61 62 64 67 69 68 64 64 63 62 60 58 54 52 53 53 52 52 54 55 58 61 60 61
77 74 73 75 75 73 70 59 64 67 67 67 66 63 59 59 55 57 59 60 62 63 61 63 62 59 59 62 64 65 67 64 56 60 62 62 58 56 54 53 53 52 52 53 54 54 54 57 58
80 76 78 78 77 75 73 64 70 65 67 70 71 69 67 66 65 60 61 60 59 58 61 63 62 60 60 60 62 63 64 67 65 64 63 61 60 58 55 55 55 54 54 52 52 53 57 58 57
79 78 77 78 79 79 78 73 70 72 71 71 74 75 75 72 70 67 64 63 61 59 60 61 63 61 62 62 63 63 61 63 65 63 62 62 61 59 57 55 56 55 54 54 55 56 55 54 55
75 76 77 79 80 82 80 86 72 78 79 78 82 82 81 76 75 74 73 65 65 61 58 59 61 57 59 63 66 65 61 60 63 65 63 63 61 59 57 56 57 56 56 53 54 53 51 51 53
75 78 81 84 85 82 83 88 65 79 81 83 87 89 88 85 84 82 76 68 63 62 58 56 59 56 58 63 66 67 63 56 60 66 62 62 62 59 58 58 58 58 56 55 53 50 52 55 57
74 79 82 83 85 82 87 90 75 80 84 88 91 94 94 89 83 80 76 69 64 61 59 59 60 57 58 59 61 66 64 57 60 63 62 62 61 60 59 58 59 59 58 57 54 53 56 59 60
74 78 80 72 75 77 79 76 75 73 72 78 79 84 88 91 87 81 79 74 68 67 62 60 61 59 57 57 58 61 62 58 61 63 64 64 62 60 59 59 60 61 59 58 56 58 60 60 63
67 68 70 74 79 80 80 81 80 83 78 77 84 83 82 83 86 81 83 83 74 69 62 61 61 58 58 57 54 55 61 59 59 63 65 64 63 61 61 61 61 62 61 60 60 61 63 66 69
60 66 74 83 82 82 79 78 78 80 76 75 89 89 87 82 87 81 77 76 71 68 61 61 58 55 57 54 49 53 56 59 58 64 67 66 63 62 63 63 62 62 62 63 65 65 68 71 74
59 62 62 66 67 68 59 60 67 66 66 72 88 91 90 85 90 85 81 76 72 66 60 60 54 51 54 52 51 51 55 57 60 62 64 65 63 63 65 63 62 62 64 65 66 68 72 75 78
41 34 38 48 50 55 54 40 55 56 56 64 77 84 82 87 86 86 80 75 70 60 57 56 52 47 46 48 49 51 54 58 61 62 64 64 64 64 65 64 62 63 65 67 69 72 75 78 81

GFSSGP_250_spd_027.txt.gz
Wind_Speed
63 62 62 61 58 57 58 57 56 56 54 54 52 51 50 52 53 53 54 54 53 53 53 52 53 53 53 51 52 51 50 48 48 47 45 46 47 46 47 45 45 45 45 44 42 41 42 44 44
66 65 64 64 63 65 66 63 62 59 58 61 59 57 57 55 55 55 55 58 58 58 58 58 58 58 58 59 58 57 54 54 52 51 51 49 49 51 52 51 50 50 48 46 46 46 45 45 48
70 70 68 65 65 67 67 65 66 67 65 64 63 62 62 63 61 60 60 60 62 63 63 63 63 62 61 61 61 61 60 59 58 57 56 55 52 52 53 54 54 55 54 52 51 49 49 50 51
68 71 73 70 68 68 67 67 64 64 65 68 67 68 67 67 68 65 65 67 67 67 68 68 67 67 67 66 66 64 64 64 61 61 58 59 58 57 56 56 55 54 55 54 52 53 53 52 52
72 70 66 71 73 76 71 67 68 68 65 67 68 71 74 71 71 72 72 72 70 70 70 70 71 71 71 71 70 70 68 67 66 65 64 63 63 61 60 59 57 57 57 57 56 56 58 57 56
70 75 72 70 74 76 73 73 72 74 73 69 73 74 76 77 78 76 74 75 74 72 73 74 74 74 73 75 75 74 72 71 69 68 68 66 68 66 64 62 61 61 61 60 59 59 59 60 60
73 73 73 75 78 78 78 76 78 77 75 77 76 79 79 80 79 78 78 76 76 77 76 76 77 76 76 77 77 77 76 76 75 75 71 72 70 70 68 67 66 65 65 64 63 62 66 65 64
72 74 74 71 76 80 80 77 78 76 75 74 75 76 77 77 79 79 78 78 77 76 76 77 79 79 78 80 80 81 79 78 70 67 71 75 77 74 73 72 70 70 69 69 68 68 67 65 65
71 71 68 69 78 77 74 70 70 67 69 70 70 71 71 74 75 76 79 80 78 79 77 78 78 77 79 80 81 83 82 82 81 69 67 71 77 79 78 75 76 73 72 72 71 72 65 62 64
69 68 67 71 71 71 69 68 67 69 71 69 69 70 72 74 77 75 74 74 73 73 76 76 76 75 75 76 79 81 84 86 83 81 75 67 62 61 76 78 79 76 75 72 68 66 65 67 70
69 61 70 69 71 70 69 69 68 67 70 72 70 68 70 73 71 71 69 67 66 68 69 71 72 72 72 71 72 72 77 81 84 87 86 80 72 68 62 62 64 69 68 67 66 68 72 74 76
73 69 65 65 68 67 68 69 67 66 64 67 66 68 68 68 67 65 65 65 66 66 68 69 70 68 68 67 67 66 69 70 73 77 78 79 88 79 80 76 75 76 77 77 78 78 79 80 80
74 75 71 66 66 65 64 62 64 60 57 61 62 65 64 63 62 62 62 64 66 67 67 67 67 69 69 69 67 67 67 67 69 73 75 76 73 79 87 83 82 78 79 80 81 79 80 80 81
75 74 73 69 63 62 60 58 53 53 60 54 54 60 60 61 62 61 60 62 64 65 66 66 66 67 68 68 69 68 68 66 65 67 70 71 73 74 76 81 83 82 83 83 79 80 79 79 78
74 76 72 69 66 61 58 55 51 58 53 49 49 53 56 57 59 58 58 60 62 63 62 62 64 65 66 66 67 68 67 67 68 65 66 66 68 69 71 72 73 75 75 76 75 76 76 79 77
79 77 74 71 70 67 61 59 60 58 54 48 46 48 48 50 54 56 59 61 61 62 63 62 61 62 63 64 64 67 68 69 70 69 67 65 61 60 63 66 69 70 70 74 72 66 64 61 61
80 79 78 76 75 71 65 61 66 63 56 50 50 52 53 55 55 55 55 57 60 61 62 63 63 61 60 62 62 62 65 70 71 70 70 68 65 62 62 62 61 60 60 60 59 57 57 55 56
80 78 78 78 77 78 72 58 65 67 64 58 58 58 58 57 57 59 57 55 58 59 60 61 63 63 60 59 59 60 61 64 66 70 72 70 69 66 66 64 61 59 59 59 58 57 55 54 55
79 78 78 78 77 74 69 65 61 66 70 68 64 61 61 62 64 61 61 59 57 57 59 61 62 64 60 59 58 57 60 60 63 63 68 71 71 70 69 66 64 63 61 59 57 55 54 55 54
79 78 77 76 77 76 73 66 67 69 70 71 69 68 66 65 68 67 63 64 61 58 54 57 61 64 63 60 58 57 56 59 59 62 65 68 70 72 70 69 66 65 63 61 58 57 57 57 55
83 80 80 78 77 76 75 67 73 68 68 71 73 73 73 71 69 71 69 66 64 62 60 57 57 61 62 61 61 59 58 56 58 61 63 66 68 70 69 70 67 65 64 62 61 60 58 59 57
80 80 80 79 79 79 79 75 73 74 73 75 78 81 79 77 74 73 73 70 67 67 66 64 59 57 59 58 55 60 60 59 59 61 63 63 67 69 68 67 66 68 65 63 63 61 60 59 58
81 80 82 82 83 82 82 86 70 79 80 81 83 84 84 83 80 76 76 76 71 68 66 67 64 58 59 60 55 57 58 59 58 60 64 65 68 70 70 69 69 69 65 63 63 63 61 61 59
80 80 84 85 86 85 89 93 74 81 83 86 86 87 91 90 88 85 82 80 77 72 69 69 68 65 65 62 57 57 56 56 57 57 61 67 67 70 71 71 70 68 67 66 64 64 63 63 62
80 82 84 88 88 85 92 91 75 84 85 88 90 93 96 96 95 91 87 86 84 79 73 71 71 70 67 63 60 60 55 54 54 56 58 62 67 69 69 69 69 69 70 68 66 66 65 64 65
79 80 85 84 87 83 81 77 77 85 92 88 89 94 100 98 97 95 92 87 85 83 76 72 74 71 68 63 61 56 56 53 54 53 54 57 64 67 68 73 71 69 70 69 68 67 65 66 68
69 66 64 63 64 64 70 77 79 91 93 87 82 91 98 100 99 98 96 95 92 89 82 76 75 72 67 63 58 57 58 55 55 58 59 60 65 68 69 69 70 71 72 69 68 68 67 68 69
38 46 50 54 58 69 72 79 91 85 86 86 89 84 92 92 88 90 89 92 91 88 84 79 76 71 68 64 63 58 58 57 59 60 57 58 64 68 70 71 73 74 73 72 71 69 69 70 71
33 41 50 58 64 72 74 67 79 68 68 73 82 83 85 91 88 89 86 81 78 74 74 71 71 70 69 65 65 57 58 60 59 58 54 55 60 67 68 70 73 74 74 72 71 70 72 73 74
36 43 46 45 53 61 66 64 72 73 56 52 59 60 68 82 89 91 88 82 78 71 66 64 62 65 66 63 61 56 59 60 59 57 56 54 58 65 70 72 72 74 74 72 71 72 74 75 75

GFSSGP_250_spd_030.txt.gz
Wind_Speed
66 67 65 62 59 58 60 61 58 57 56 53 53 55 55 55 51 53 52 53 50 50 51 51 49 48 47 47 47 47 48 48 47 47 47 47 45 44 45 46 47 48 49 47 47 48 48 47 46
68 67 66 63 63 63 63 62 59 58 57 58 57 57 56 54 53 52 54 54 52 53 54 52 53 51 51 51 51 51 52 53 54 54 53 53 50 50 49 47 49 50 52 52 52 53 53 53 52
71 68 67 66 64 66 66 62 58 59 60 59 61 61 60 56 57 55 54 54 52 53 54 55 56 55 56 55 56 57 57 57 57 58 57 56 56 55 55 55 53 53 54 55 56 55 55 54 52
74 72 68 65 68 70 68 65 63 63 63 63 64 65 60 60 62 64 60 61 59 59 59 59 58 58 59 61 62 62 63 63 63 62 62 61 60 60 59 57 58 57 57 57 57 57 56 56 55
75 73 71 68 68 71 70 68 64 68 66 67 67 70 66 67 69 68 66 67 65 65 64 63 64 65 66 66 68 67 67 68 68 67 67 66 65 64 64 63 61 62 62 61 61 60 58 58 58
74 74 73 74 74 73 70 72 70 71 70 69 70 69 65 66 64 69 71 71 70 70 69 70 71 69 70 70 70 71 71 72 72 71 71 71 70 69 67 67 67 66 66 66 66 64 63 62 62
76 74 74 76 74 74 72 74 69 74 74 73 71 70 67 68 73 70 69 69 71 72 74 73 74 75 75 74 76 75 75 75 76 75 75 75 75 74 73 72 71 70 70 71 70 69 69 68 67
76 76 74 72 74 78 78 74 73 72 72 75 75 80 73 68 72 74 76 76 74 75 77 78 78 78 77 77 79 80 79 80 79 79 78 78 77 76 76 73 75 77 76 73 74 74 74 72 73
76 75 74 75 75 81 81 77 74 80 76 76 74 80 78 78 79 77 74 74 74 76 76 78 80 79 79 79 79 81 82 81 83 83 81 82 81 79 77 78 73 70 71 76 78 79 79 78 77
76 72 69 74 78 77 77 76 77 77 75 80 79 79 78 79 76 74 74 75 74 75 74 73 77 75 76 78 78 79 79 81 84 85 86 85 84 84 83 78 74 71 70 66 65 72 79 80 79
70 66 69 73 74 73 72 72 74 74 72 74 72 74 70 68 70 74 75 73 72 72 73 73 70 69 69 68 68 72 74 77 80 81 82 86 86 86 88 85 80 77 74 74 71 67 63 66 68
68 66 67 72 71 68 70 69 67 66 68 68 68 69 67 70 71 71 72 72 72 70 70 68 68 63 64 61 62 64 67 69 73 75 76 75 76 76 75 80 84 86 88 85 79 78 76 77 80
69 68 71 72 71 72 72 68 68 65 66 68 69 68 69 68 73 72 71 70 69 70 68 67 64 62 63 62 63 62 65 67 69 70 71 70 70 69 69 71 72 74 77 78 79 85 84 81 80
72 71 71 70 73 77 73 69 68 62 68 69 66 63 67 70 72 69 68 68 68 66 66 66 65 63 61 63 62 61 62 66 69 72 71 71 70 69 67 68 68 69 71 71 74 74 75 79 80
72 73 74 72 75 75 77 70 64 66 70 64 66 63 63 65 64 64 65 64 65 64 63 64 64 63 62 60 61 61 61 62 67 69 73 73 73 72 68 67 65 67 67 70 71 72 71 71 71
81 78 80 79 78 76 78 74 74 65 64 61 63 60 58 62 62 62 61 60 60 60 60 60 59 61 61 59 58 58 59 57 63 63 68 72 75 73 71 69 67 67 67 66 65 65 66 64 63
81 81 81 81 80 79 79 75 75 65 65 61 58 59 60 59 60 58 58 57 57 57 56 55 55 57 57 57 57 56 56 56 59 59 65 66 70 73 73 72 70 70 69 67 65 63 62 60 60
90 87 86 85 82 83 79 73 72 68 65 65 61 63 66 64 60 60 58 59 59 57 55 55 53 51 54 54 53 57 56 56 58 56 58 64 68 69 71 73 74 73 72 71 69 67 64 62 59
84 84 84 85 85 83 82 76 72 72 68 72 69 65 64 69 69 66 63 63 63 63 61 55 52 51 52 51 53 54 54 56 58 57 56 59 62 65 69 71 70 73 74 73 72 71 69 66 64
87 86 86 85 86 82 82 76 76 75 72 72 74 69 68 69 72 75 71 66 64 66 66 62 58 55 55 52 51 51 51 57 57 57 56 56 58 60 64 66 69 70 71 73 72 73 73 70 67
89 88 89 87 86 86 83 76 77 72 73 73 71 72 72 73 72 73 78 76 69 66 69 69 67 64 56 59 53 48 50 54 55 59 60 58 58 58 60 63 65 67 69 70 72 73 73 71 68
83 87 87 85 84 83 80 75 75 76 73 74 77 76 77 77 77 78 77 81 80 72 71 70 70 69 65 59 57 54 51 51 55 57 57 57 59 61 61 61 64 66 67 68 70 71 71 71 68
80 80 85 87 85 83 82 78 69 77 77 78 80 81 81 83 85 83 82 81 81 78 74 73 70 70 72 64 61 58 56 51 53 56 55 55 55 59 61 64 64 66 67 67 70 71 71 71 71
79 84 84 83 84 81 81 80 64 75 80 84 87 86 87 90 90 91 89 84 86 84 79 74 73 72 72 69 65 60 62 59 60 60 58 56 55 55 58 61 62 65 68 69 70 72 74 75 74
68 73 78 80 79 80 83 79 73 79 84 86 90 94 97 97 99 99 97 94 90 89 83 79 75 73 73 67 67 63 66 61 63 64 60 60 57 55 57 58 60 61 65 70 72 72 75 77 76
56 60 67 68 73 78 82 79 80 84 87 93 95 101 105 105 105 102 102 98 94 91 87 86 79 75 81 75 73 70 65 62 65 64 62 60 58 55 53 52 56 58 62 68 72 74 75 75 77
53 58 62 64 69 70 73 78 84 92 96 101 100 100 102 107 105 94 93 93 95 95 91 90 85 81 83 79 79 73 64 65 67 65 62 56 56 50 55 53 59 60 63 68 72 74 76 77 80
46 54 56 59 61 65 69 75 83 89 94 84 86 93 94 94 92 94 90 92 95 94 92 90 86 84 80 80 78 69 69 68 65 61 60 61 57 58 60 60 60 60 62 67 75 77 79 79 77
40 40 38 36 39 42 48 57 65 75 74 80 89 90 90 92 90 92 88 87 87 94 92 89 87 85 82 82 74 73 74 70 64 61 60 62 59 62 60 61 62 60 64 66 70 76 79 80 82
17 20 25 33 40 44 51 51 64 64 65 69 70 75 72 70 68 79 80 82 84 83 82 84 84 82 80 77 75 76 74 63 62 59 60 62 60 61 63 65 64 64 65 67 69 73 78 81 81

GFSSGP_250_spd_033.txt.gz
Wind_Speed
70 68 64 60 59 59 62 61 58 59 56 53 55 54 54 49 47 47 46 49 48 46 44 44 44 46 46 45 45 44 44 44 43 43 44 44 44 44 45 45 45 45 45 47 48 50 51 52 51
71 68 68 63 64 64 68 63 59 59 57 60 58 57 56 52 53 53 53 53 51 51 51 51 51 51 51 51 51 50 49 48 48 48 49 49 50 49 50 50 49 49 50 50 50 51 54 54 55
71 69 67 65 65 67 70 64 60 59 61 63 61 60 57 53 57 55 54 54 54 54 54 54 54 53 52 51 52 53 52 53 53 52 52 53 54 56 55 56 56 55 55 55 54 55 54 55 57
70 69 69 66 70 72 70 65 62 62 68 64 61 61 58 56 62 59 55 58 57 56 55 54 53 54 54 54 55 56 55 55 57 58 59 60 61 61 62 62 62 62 60 59 59 59 58 58 58
72 71 69 69 72 72 72 67 64 66 68 62 63 61 57 58 63 61 56 59 60 60 59 58 58 59 59 59 59 59 59 61 62 62 64 66 68 67 67 67 66 66 64 64 64 63 62 63 63
75 73 71 73 75 75 72 70 68 68 67 66 67 61 58 63 67 65 60 63 64 63 61 62 63 65 65 64 64 64 65 66 66 68 69 70 72 73 73 72 72 71 71 69 68 68 67 68 68
80 76 73 74 76 76 78 75 70 70 68 66 67 64 62 67 68 66 64 66 67 65 64 63 65 68 69 70 70 70 70 70 71 74 74 75 76 76 76 76 76 76 75 74 73 73 73 74 72
83 76 74 70 73 78 80 75 70 70 70 69 67 69 66 69 72 72 68 66 67 67 68 68 63 62 66 68 70 73 77 76 76 76 77 78 80 81 81 79 79 79 78 77 77 78 76 74 75
86 78 76 73 76 82 80 75 71 71 74 75 72 71 69 69 75 75 74 71 73 73 73 70 70 69 70 71 71 72 74 77 77 77 76 80 82 83 84 85 84 83 82 82 79 78 76 77 76
80 77 77 79 81 82 79 75 73 73 77 75 73 76 74 73 75 75 75 74 73 74 75 76 76 75 73 73 73 72 74 76 76 76 78 79 80 82 85 86 86 84 85 84 83 83 84 80 76
78 75 78 81 82 82 80 77 79 74 75 77 77 77 78 78 76 78 82 81 77 74 76 79 79 78 75 76 77 79 80 80 78 78 77 77 77 80 81 82 81 82 85 87 86 84 85 86 83
79 77 77 78 81 78 77 78 75 76 76 78 79 76 79 80 78 78 81 75 75 72 72 72 73 75 75 77 75 74 75 74 72 71 72 70 70 72 72 75 75 75 76 76 76 78 80 80 84
78 77 78 79 78 74 75 78 75 71 72 75 77 75 71 71 74 73 73 72 71 72 73 73 72 72 72 72 72 72 72 69 67 68 67 66 66 67 69 69 70 70 69 68 68 69 69 70 72
77 75 76 75 76 74 75 76 71 68 71 74 72 67 69 67 69 70 70 71 71 72 70 71 70 71 71 72 70 66 66 64 64 66 65 64 64 66 69 70 70 70 70 69 68 69 69 68 67
72 71 73 76 75 74 75 70 67 69 69 66 67 66 66 67 69 74 73 71 73 71 68 68 68 64 67 68 65 61 60 63 64 64 63 63 64 65 65 67 69 73 74 74 73 72 70 68 66
76 73 73 77 76 73 72 66 72 72 72 67 67 67 68 68 69 69 73 71 70 72 70 64 62 60 61 61 60 59 58 59 59 60 63 60 60 61 59 62 67 70 73 75 76 76 73 71 68
75 75 78 77 74 73 71 70 75 73 71 71 70 70 68 68 69 69 68 69 68 69 70 64 61 62 58 55 56 56 54 57 56 56 59 59 60 59 58 60 63 65 69 71 74 77 76 74 72
82 80 77 78 78 76 74 70 73 75 72 72 73 73 72 71 65 66 67 67 68 68 66 64 57 58 59 55 50 52 49 47 51 53 55 58 58 56 58 59 60 62 65 67 71 74 75 76 75
84 80 80 81 81 78 77 75 76 79 75 74 75 77 77 71 69 66 69 69 70 69 70 66 63 60 61 61 53 49 49 48 50 50 51 52 53 56 57 58 60 60 60 63 65 67 72 74 74
86 86 89 87 85 83 80 76 79 81 80 81 82 79 77 76 72 71 71 73 72 71 72 72 69 63 60 61 60 54 51 49 51 50 49 49 51 53 55 58 59 59 60 59 60 65 66 68 71
83 83 85 85 87 88 85 82 83 84 86 85 82 81 78 75 75 73 74 74 76 73 73 74 76 74 67 65 62 57 56 55 52 53 53 54 52 55 57 59 61 61 61 60 59 61 64 65 67
78 79 81 82 85 84 84 79 80 83 81 82 84 81 83 81 79 79 78 75 72 72 74 76 76 74 75 74 69 62 60 61 59 57 53 51 47 49 51 51 58 60 61 62 62 62 64 65 66
78 80 83 83 81 79 80 79 76 84 84 85 87 85 84 82 82 81 81 80 76 77 78 80 80 79 75 71 76 74 66 63 63 60 55 51 52 51 51 57 58 58 60 62 63 65 67 66 67
72 74 76 74 76 74 79 77 73 83 88 89 86 86 86 86 84 84 83 82 83 82 80 80 83 82 79 76 72 75 72 70 66 63 59 57 59 59 58 60 61 60 60 60 61 62 62 64 66
71 71 70 70 73 74 77 78 72 75 82 84 86 88 89 89 88 87 88 89 88 88 87 86 85 84 86 80 74 73 72 72 69 64 61 60 61 61 59 61 62 61 61 60 58 56 58 57 60
69 68 68 69 71 72 73 72 76 83 85 84 84 88 91 95 95 94 93 94 96 97 96 95 93 91 90 88 81 76 76 73 71 65 63 62 64 64 63 63 63 62 61 60 58 59 60 64 63
73 69 68 65 64 61 61 59 59 64 73 81 85 85 90 95 98 99 102 102 103 104 104 104 103 99 94 91 84 81 78 77 71 67 67 67 67 67 63 63 63 64 63 63 64 64 66 66 66
59 58 54 50 48 46 45 51 57 68 74 76 82 85 88 90 92 98 104 105 104 105 107 103 105 107 100 93 91 80 75 78 73 69 69 68 66 66 65 64 63 62 62 63 66 68 67 70 70
34 35 34 37 41 43 49 51 61 67 69 74 80 85 87 91 93 94 95 97 99 99 99 95 85 86 87 81 76 71 73 72 74 76 72 67 66 66 65 63 61 62 63 65 70 71 71 73 73
33 34 36 35 31 36 38 37 51 54 60 68 71 74 79 85 87 87 87 88 92 99 95 81 75 83 83 76 72 68 72 74 76 75 69 68 68 67 64 60 60 61 66 70 71 72 73 73 72

GFSSGP_250_spd_036.txt.gz
Wind_Speed
74 70 69 67 65 63 62 61 55 55 53 55 53 52 50 47 47 45 44 46 45 46 45 45 45 45 43 41 41 41 43 43 43 42 42 43 42 43 43 43 45 45 45 45 44 45 46 47 48
74 73 70 68 66 66 69 65 60 58 58 59 58 55 52 50 52 51 50 48 49 50 50 49 48 47 47 46 46 48 49 49 49 48 47 47 47 47 48 48 49 49 52 52 51 50 51 51 51
73 71 69 67 65 69 71 64 62 61 60 62 58 56 53 55 56 54 52 52 53 53 54 53 53 52 52 52 52 52 53 53 52 52 51 51 52 51 52 53 53 55 58 57 58 59 58 57 57
74 71 70 66 69 73 72 65 62 62 62 63 60 57 55 57 57 56 56 54 57 57 56 56 56 56 56 55 55 56 55 54 55 55 56 56 56 57 57 58 59 61 62 64 64 64 63 64 64
76 74 70 68 71 74 73 67 65 67 68 68 62 59 57 56 57 58 57 57 57 58 58 58 57 58 58 57 58 58 57 58 58 58 59 60 61 60 62 64 67 66 67 69 70 70 70 68 69
77 73 69 70 74 75 73 71 67 66 67 68 64 61 59 58 61 62 60 58 59 60 60 60 59 59 60 59 60 61 60 61 63 64 64 64 65 66 67 68 69 72 74 74 75 75 74 74 72
79 77 73 74 75 72 76 70 67 67 66 69 66 62 61 62 63 63 61 61 62 62 62 62 63 62 62 64 65 66 66 66 66 68 68 68 69 72 73 75 76 75 76 77 78 79 79 79 75
85 80 77 76 76 80 79 73 70 67 68 69 66 62 64 67 63 64 65 66 64 64 63 63 65 65 65 65 66 65 64 65 64 66 67 69 71 73 77 78 79 79 80 79 80 81 81 81 80
88 81 78 78 81 87 85 77 71 67 70 73 70 71 69 68 68 66 66 67 67 66 65 65 65 68 68 68 67 68 70 71 73 73 73 75 75 77 79 80 80 79 79 80 80 82 83 83 82
88 80 81 81 82 86 84 77 74 71 71 76 73 73 72 69 71 70 70 69 69 69 66 69 71 72 73 74 74 75 76 75 77 80 81 82 81 80 82 85 85 84 83 82 80 80 82 82 83
90 83 82 85 86 83 81 80 78 74 73 76 76 73 73 72 74 75 74 73 71 71 72 73 73 74 75 74 73 74 78 79 80 80 80 83 85 84 84 84 85 83 80 78 79 80 81 81 79
87 82 81 84 86 84 80 80 80 77 77 79 78 73 73 71 72 73 74 74 75 75 75 75 76 76 74 74 74 76 77 79 78 79 80 81 80 79 79 79 76 74 74 74 72 72 74 74 74
87 84 84 83 82 79 78 77 79 79 79 80 80 75 73 74 76 76 78 79 78 77 76 78 79 80 80 76 75 77 79 80 79 79 79 80 78 78 76 74 70 70 71 71 69 69 69 70 71
86 86 83 81 81 80 80 81 80 77 81 82 82 79 76 75 77 77 77 80 78 77 74 75 71 74 75 76 77 77 77 78 77 77 77 77 75 74 72 69 70 68 68 69 69 69 69 70 72
83 85 83 82 85 82 82 81 76 79 79 75 76 77 74 74 73 74 78 78 77 77 76 71 72 71 71 73 73 73 73 72 72 74 72 71 71 69 67 66 68 68 68 67 66 67 69 70 71
81 79 79 82 85 83 81 75 79 81 78 74 74 76 72 70 74 75 78 77 76 71 73 71 68 68 70 70 70 71 70 69 68 66 66 66 66 66 64 63 64 65 65 65 65 65 65 68 70
77 74 76 82 80 79 73 71 80 79 76 72 71 70 71 71 69 69 73 75 71 70 70 67 69 70 69 73 69 67 64 62 64 63 62 61 61 61 61 61 62 62 63 65 64 65 65 65 67
80 79 77 76 75 73 70 69 76 76 72 70 70 70 73 73 72 74 74 74 73 70 69 70 69 67 69 66 63 61 60 59 59 57 59 59 54 51 52 56 58 60 62 63 63 64 65 64 65
82 79 76 76 75 72 71 70 69 76 73 73 73 73 73 75 78 77 77 76 74 74 73 70 67 64 66 65 64 63 61 60 60 59 57 56 55 55 49 53 53 52 57 60 62 62 63 64 64
84 79 78 78 77 75 74 71 74 77 77 75 75 75 77 79 80 78 78 77 78 80 80 77 70 68 66 66 67 65 64 62 61 60 62 62 57 52 52 53 55 55 56 58 60 60 61 62 65
90 86 84 80 76 75 74 71 75 79 79 79 79 79 78 78 80 83 84 83 83 85 84 81 77 73 70 67 69 68 65 65 63 62 63 62 56 52 55 58 60 57 59 61 58 56 59 60 61
89 89 89 88 85 79 78 73 77 81 81 82 83 82 83 86 88 89 90 89 89 88 87 85 82 78 75 71 69 70 69 68 69 71 67 62 58 56 58 61 60 59 60 62 60 64 64 60 61
80 82 87 89 89 85 85 81 79 87 86 88 88 89 92 94 93 92 91 91 90 88 87 87 88 86 81 76 70 68 69 71 70 70 70 73 70 62 59 60 61 65 63 59 61 64 64 62 62
71 76 78 80 84 83 85 82 77 83 86 89 90 94 95 97 96 96 95 94 95 94 94 92 89 87 87 83 75 70 70 71 73 75 73 69 64 67 66 66 66 67 67 67 66 67 68 67 64
66 66 66 72 74 76 78 75 74 81 86 88 91 93 92 92 94 95 96 96 98 99 98 95 92 90 89 88 83 77 73 72 72 73 74 72 67 65 68 67 69 71 69 66 64 69 71 71 68
63 59 60 61 65 68 68 68 73 77 80 81 82 86 90 91 90 90 91 92 94 96 97 96 96 94 93 92 90 86 79 75 74 75 78 77 69 66 67 68 69 69 68 66 67 70 71 73 73
66 62 61 60 62 62 64 66 71 77 82 80 82 85 89 92 92 93 94 97 100 101 100 100 100 99 99 96 95 93 87 81 80 78 81 79 73 72 71 72 70 68 69 69 69 71 71 74 74
66 65 65 65 64 64 65 68 74 78 76 75 75 76 77 79 83 87 90 93 95 96 99 98 100 101 101 100 98 96 93 89 87 83 82 81 76 75 73 72 71 70 68 69 70 71 72 75 72
67 70 70 69 66 64 66 68 76 68 65 65 68 68 70 75 79 82 84 89 92 97 101 101 101 100 99 101 99 98 95 92 87 85 85 82 80 76 75 71 70 68 68 68 68 69 59 68 74
53 55 56 60 65 63 53 57 54 53 57 60 62 66 67 71 78 81 82 83 89 95 96 97 95 95 96 93 96 94 90 89 88 86 82 78 74 71 67 68 67 65 66 67 70 65 69 79 75

GFSSGP_250_spd_039.txt.gz
Wind_Speed
75 73 71 68 66 63 62 61 57 53 52 50 46 45 43 43 42 41 39 39 42 42 43 42 41 41 42 41 42 44 43 41 41 42 43 44 43 42 42 43 45 45 45 45 47 46 46 46 47
75 76 74 71 67 67 68 63 60 57 56 53 50 47 47 49 50 48 47 46 47 47 47 47 47 47 47 46 47 48 48 48 45 45 47 48 48 49 48 47 47 49 49 49 50 51 51 52 54
77 76 75 74 69 69 71 66 60 60 59 58 53 51 50 51 51 52 50 50 50 50 51 51 50 50 51 52 51 52 52 52 52 52 52 52 52 51 50 50 52 53 54 53 54 56 58 59 60
79 79 77 72 75 77 76 68 65 64 62 62 59 56 55 57 56 56 54 51 53 54 53 52 53 54 55 54 55 55 55 55 57 56 56 56 56 55 55 55 54 56 56 58 58 60 62 63 64
79 77 74 71 71 79 79 71 68 66 64 64 61 60 58 59 58 57 58 56 54 54 54 54 54 55 56 57 58 59 60 60 58 58 59 60 58 59 58 58 60 61 62 62 64 66 66 68 70
80 76 72 70 74 78 77 75 72 69 67 64 62 58 58 59 60 60 61 60 57 56 56 56 55 55 56 57 59 60 60 60 60 61 59 60 62 62 63 64 64 65 64 65 67 68 71 73 74
80 77 74 74 78 75 75 71 70 67 66 67 65 58 59 63 65 64 62 61 60 60 60 59 58 58 58 58 59 61 60 61 62 62 63 64 65 66 66 66 65 64 66 69 71 73 75 76 77
81 79 75 75 78 80 77 71 69 66 67 68 65 61 62 62 63 64 65 64 62 62 63 62 61 60 60 61 62 63 64 65 65 65 64 64 64 66 67 69 70 71 73 76 77 79 79 78 79
84 79 76 77 82 84 82 75 69 66 65 65 65 64 64 63 65 65 64 65 63 63 65 63 63 64 64 65 63 64 66 66 67 68 67 68 70 72 74 74 75 79 82 82 81 82 82 82 83
86 79 79 82 86 89 84 77 73 68 65 65 67 67 66 64 66 69 69 69 67 66 65 66 66 66 66 67 65 65 63 67 69 70 71 72 73 73 74 78 80 81 80 80 81 84 82 83 82
87 83 85 88 88 89 85 79 74 71 70 72 72 72 69 67 66 71 72 72 71 71 71 69 70 69 69 69 69 70 71 71 71 72 75 76 76 78 78 78 80 80 83 83 83 83 83 82 81
90 87 89 91 90 89 85 80 78 75 74 74 75 75 72 71 71 71 73 73 73 73 74 73 72 73 73 72 72 73 76 75 76 77 78 78 78 77 78 80 82 83 84 86 83 83 82 81 77
94 94 91 93 92 88 85 83 83 79 78 74 76 73 73 73 74 73 74 75 75 73 72 72 72 73 75 75 75 76 77 77 76 76 76 77 79 79 80 81 83 82 83 84 82 80 78 78 74
96 95 94 92 89 85 84 85 85 80 79 79 81 77 75 72 78 78 78 77 77 76 74 74 75 76 76 77 78 77 77 79 78 76 78 79 79 79 80 79 78 79 81 81 78 76 74 73 71
97 95 91 88 88 86 86 83 76 82 82 80 77 76 74 72 74 77 78 78 78 78 78 78 79 80 79 77 76 77 76 77 77 78 77 78 77 77 77 77 76 75 74 75 73 71 71 69 69
98 95 92 91 92 89 87 77 81 81 85 78 75 74 74 76 76 78 79 79 78 75 76 77 76 75 76 77 75 71 67 64 66 68 68 71 72 71 71 67 67 67 67 67 67 67 68 67 67
93 92 86 90 93 91 86 78 83 81 80 75 74 75 77 78 78 80 81 81 79 78 76 72 73 73 75 74 73 72 66 65 64 63 64 63 63 62 61 61 61 62 60 60 59 60 61 61 63
85 85 85 84 85 84 81 77 83 83 82 79 76 76 78 80 80 82 80 79 80 78 76 74 71 72 74 74 72 70 68 68 66 63 66 64 63 62 59 56 56 60 60 59 59 56 56 57 59
87 82 79 79 79 79 81 76 76 83 79 77 76 76 76 78 82 80 79 77 76 77 76 75 75 74 75 75 74 71 71 73 72 66 68 70 68 66 65 65 60 59 59 58 58 55 56 57 55
84 82 81 80 79 75 73 70 72 75 76 76 76 75 76 76 79 81 78 75 74 76 79 78 77 76 76 76 78 77 76 73 72 72 67 71 71 65 68 64 63 62 62 57 58 59 61 61 61
83 81 82 81 80 76 74 69 70 74 73 75 77 74 73 74 76 78 78 78 76 77 81 83 82 81 81 81 82 82 83 79 74 72 70 69 66 66 64 62 60 61 61 59 61 63 66 64 63
88 87 84 80 81 76 77 70 73 76 76 77 78 78 78 79 80 80 79 79 81 81 83 85 87 88 88 88 88 89 89 86 81 77 73 71 70 72 67 64 66 63 62 65 66 71 69 64 67
91 91 89 86 81 77 78 76 75 80 79 81 81 80 81 83 83 83 84 86 88 89 90 90 91 93 96 96 94 92 90 88 84 78 77 73 71 73 69 67 67 68 70 72 72 74 71 72 72
88 90 91 90 87 82 86 80 79 85 85 84 85 86 85 85 85 87 88 90 93 96 98 99 100 100 101 102 101 99 94 88 85 84 80 78 74 70 70 69 70 72 70 70 73 76 79 76 73
79 82 81 81 83 85 88 86 87 92 91 91 91 90 90 91 92 93 95 98 101 104 105 106 106 107 108 109 107 101 97 91 87 84 81 80 76 73 70 71 72 74 73 72 72 74 77 79 76
74 72 69 70 74 76 79 78 87 95 95 95 95 95 95 96 97 99 102 105 107 108 111 112 110 110 108 106 102 99 95 92 88 85 85 84 80 74 74 74 73 73 74 75 73 72 74 77 76
65 67 70 68 67 66 66 70 80 85 86 86 90 92 92 93 95 97 100 104 106 107 109 110 109 107 106 104 102 99 96 93 89 88 85 84 83 82 80 78 75 74 75 75 75 75 75 75 78
61 62 60 61 60 62 62 64 71 72 74 74 76 81 85 87 89 93 96 99 100 101 101 101 102 103 104 103 102 100 98 96 95 92 88 85 85 85 86 83 78 75 76 75 77 78 77 76 77
65 63 62 60 60 61 62 65 64 64 65 69 71 74 74 77 82 88 91 89 89 92 94 95 96 97 98 97 95 93 91 91 90 88 88 88 87 86 88 87 85 81 79 78 78 79 77 76 73
74 69 65 59 60 62 62 68 65 63 65 65 67 72 75 71 70 73 78 84 87 88 91 92 94 96 97 95 91 89 91 92 91 91 91 89 86 87 87 86 84 82 79 79 79 76 75 72 71

GFSSGP_250_spd_042.txt.gz
Wind_Speed
74 72 70 68 64 60 60 58 55 54 52 49 47 43 40 41 40 39 39 37 36 36 36 36 36 36 35 37 38 39 39 40 39 37 40 41 40 42 44 44 44 44 45 44 44 44 44 47 49
77 75 74 69 66 66 64 60 58 55 53 51 48 44 42 42 41 41 41 40 40 41 39 38 39 41 42 42 42 43 44 44 43 46 48 46 46 46 47 49 48 47 48 47 47 48 48 51 52
79 77 75 73 70 69 69 64 60 61 58 54 52 49 47 47 45 44 45 45 46 45 44 42 43 44 45 47 48 49 49 50 50 50 51 52 51 52 53 53 51 51 51 51 52 52 51 53 55
80 79 76 72 72 76 74 70 66 65 62 59 58 57 54 54 52 49 48 48 49 48 49 49 48 48 48 48 49 51 51 53 54 56 56 55 56 56 56 56 56 57 56 56 56 56 58 59 60
82 80 77 74 74 76 76 72 70 69 66 63 60 59 57 57 54 53 53 53 52 52 52 51 51 51 52 54 54 53 52 52 54 55 56 57 57 57 59 60 61 60 59 59 60 61 62 62 61
84 81 74 68 73 80 79 77 72 71 68 67 64 62 60 58 58 61 60 59 57 56 56 55 54 53 52 52 54 57 57 56 56 57 57 58 58 58 59 60 60 61 62 62 61 61 62 64 66
83 81 75 75 74 76 80 78 73 69 70 71 69 66 63 63 64 62 61 59 59 59 59 58 58 57 57 56 56 56 57 58 58 58 58 59 60 62 62 62 63 63 61 60 63 65 67 69 71
83 81 78 76 75 79 77 75 76 67 71 72 69 69 68 66 66 64 62 61 60 60 61 62 60 60 59 59 59 59 60 59 59 60 62 63 64 64 64 65 65 63 65 67 68 68 69 72 74
87 82 74 76 78 84 81 75 70 69 69 69 67 68 69 67 66 66 66 65 64 61 60 61 61 61 61 62 60 60 60 61 63 63 63 65 64 62 62 63 64 66 67 68 69 71 74 73 76
91 82 77 78 82 86 82 75 71 69 69 67 65 65 64 63 65 65 65 66 66 64 62 63 63 63 62 62 62 61 62 63 65 66 66 67 67 68 68 69 70 71 72 73 73 74 75 76 78
92 86 84 85 87 87 83 79 72 70 69 68 67 66 66 66 65 64 64 64 64 63 62 64 64 64 65 66 66 66 65 65 67 68 70 71 70 71 73 74 73 73 73 74 77 76 76 79 78
94 90 89 90 89 88 82 76 72 72 72 70 70 70 68 67 66 65 65 65 65 66 66 67 67 67 68 68 69 69 70 69 69 70 70 71 72 72 74 75 75 77 78 78 76 78 81 79 83
97 91 91 93 91 89 84 77 73 71 73 71 73 74 72 71 71 69 71 71 72 72 71 71 69 70 70 70 71 70 69 69 70 72 73 73 73 74 75 77 78 77 79 80 80 80 80 81 80
98 97 96 94 92 90 86 81 76 75 77 74 74 75 75 73 73 71 70 73 74 73 73 71 72 72 73 72 71 71 71 71 74 76 75 77 79 80 81 80 78 79 77 82 79 78 76 73 73
99 97 98 96 93 91 88 83 79 83 79 76 76 78 76 75 75 71 72 75 77 77 77 74 73 73 74 74 74 75 76 76 76 75 76 78 78 79 77 78 78 77 77 72 71 70 67 64 63
101 100 94 95 96 93 90 84 81 81 82 79 77 77 78 76 75 76 77 78 78 79 79 78 75 71 75 76 76 76 76 75 73 74 74 72 72 72 72 71 70 69 71 73 68 64 58 58 59
104 99 95 95 98 97 91 84 83 82 84 82 78 76 76 76 75 75 78 78 79 78 78 77 77 76 78 77 76 74 70 67 68 70 71 71 72 71 67 66 65 68 71 69 65 63 62 64 60
102 101 99 100 97 97 93 88 88 87 85 83 78 77 78 79 79 80 78 77 77 79 79 79 78 78 78 78 77 77 75 75 75 75 74 73 72 70 71 69 69 69 73 69 68 67 64 61 60
99 98 97 95 94 89 89 87 88 92 87 85 83 83 80 81 83 82 81 78 78 80 81 81 80 80 79 78 76 76 76 76 70 70 66 67 65 70 70 71 73 75 74 71 73 66 61 61 61
91 89 87 89 90 91 89 85 84 87 87 85 85 86 86 85 85 85 83 82 80 81 82 82 82 81 79 78 79 77 76 75 75 72 72 72 70 72 76 76 77 76 72 68 68 65 64 64 65
88 84 83 85 86 81 79 76 80 82 84 83 83 85 84 83 84 84 82 82 80 78 80 81 83 83 81 79 79 79 80 80 81 82 82 83 83 79 77 79 73 73 70 69 68 70 68 68 71
87 86 88 86 81 78 77 72 78 79 82 80 79 78 80 80 79 78 77 77 77 78 79 80 80 81 83 84 82 81 84 84 85 87 88 86 86 84 83 80 74 72 72 69 70 73 73 75 72
91 88 86 84 82 78 78 77 80 81 80 80 78 77 77 75 75 75 76 78 79 81 81 82 83 84 86 88 90 88 87 88 89 91 92 92 91 90 88 86 70 70 70 73 71 72 72 73 75
96 91 88 83 81 79 80 79 78 80 81 81 81 80 80 79 78 78 79 79 81 83 86 87 88 89 90 91 93 93 94 93 93 96 97 98 98 95 91 84 80 73 73 73 73 73 75 76 76
96 97 92 87 84 82 83 81 79 81 83 83 84 83 83 83 83 84 85 87 89 90 91 93 95 98 99 100 101 101 101 103 103 103 104 103 100 99 95 89 80 79 77 74 74 74 73 74 74
91 93 93 90 88 87 88 87 87 87 87 85 85 85 86 87 89 90 92 93 94 95 96 99 101 103 105 107 108 109 110 110 109 109 109 105 102 97 93 89 82 81 79 77 73 74 76 76 75
81 82 82 80 84 88 90 93 92 91 90 89 89 90 91 91 92 93 95 97 101 103 105 107 110 112 114 116 117 117 118 119 113 107 104 101 100 96 91 89 86 82 72 72 75 76 78 76 77
72 73 76 78 78 80 81 84 87 89 88 89 90 92 94 95 97 98 99 100 102 105 108 111 112 114 116 116 116 115 115 114 111 107 103 99 98 98 97 95 93 88 82 82 79 79 78 75 77
64 66 67 68 70 73 75 76 74 72 71 73 73 73 74 77 80 83 86 88 90 93 97 101 105 108 109 110 110 108 105 102 100 98 96 94 91 91 91 91 92 91 90 87 83 79 79 79 81
58 57 58 59 60 63 67 67 65 63 63 62 64 65 66 67 70 74 76 80 86 92 95 98 101 102 102 103 104 103 102 99 95 91 89 87 86 84 81 79 83 87 88 88 85 82 79 80 80

GFSSGP_250_spd_045.txt.gz
Wind_Speed
76 73 70 68 63 60 58 56 54 50 47 48 45 40 39 37 36 36 36 34 34 34 33 33 34 33 33 33 33 35 36 37 38 39 39 39 40 39 39 40 41 42 43 46 47 45 45 45 45
81 77 74 70 66 66 65 61 57 54 53 50 49 47 44 41 38 39 40 40 38 38 37 35 34 34 37 38 38 36 37 38 38 39 40 41 42 43 46 48 47 48 49 50 50 50 49 49 49
84 81 78 73 69 70 70 65 60 59 57 53 52 51 49 46 43 41 41 42 41 42 41 39 37 36 37 37 39 41 42 43 43 43 45 47 48 50 51 52 52 53 53 53 53 52 53 54 55
84 83 79 75 72 77 73 68 65 63 59 54 54 53 50 48 47 46 43 43 43 43 43 43 41 42 41 41 42 43 44 46 48 50 50 51 52 54 55 56 56 56 56 56 57 58 57 57 58
87 83 80 77 78 78 75 72 70 67 62 58 58 55 54 52 51 49 49 48 48 47 47 47 46 46 46 47 48 47 48 49 50 51 51 52 52 53 54 55 55 55 57 57 57 57 59 60 60
89 84 79 75 80 81 79 75 72 70 66 62 61 60 59 58 55 56 55 54 53 52 52 51 50 50 51 50 51 51 51 51 50 51 52 53 55 56 57 57 57 58 59 59 59 60 60 61 59
89 83 78 77 82 82 80 75 73 72 69 66 66 66 65 64 60 60 60 58 56 55 55 56 56 56 56 55 54 55 55 55 54 54 54 55 56 57 59 58 59 61 62 62 60 60 60 59 60
88 87 81 76 77 79 79 77 73 71 71 71 72 71 71 69 66 64 64 63 61 61 58 57 58 58 57 57 57 58 59 58 57 58 58 58 58 58 59 59 60 61 60 59 60 60 62 64 64
91 86 80 80 80 81 81 79 77 71 72 72 72 71 71 71 69 67 68 68 67 65 63 62 61 60 60 61 61 61 61 62 61 61 61 59 58 59 60 60 61 62 62 65 65 66 67 65 66
95 87 81 84 83 87 84 80 77 74 70 69 71 70 71 68 67 68 69 70 70 68 67 66 65 63 61 61 62 63 63 62 61 62 61 61 62 61 60 63 64 64 65 67 67 68 68 69 71
96 88 87 87 88 88 85 81 77 75 73 69 68 69 69 68 68 67 68 68 68 68 66 64 64 63 62 61 62 62 61 60 61 61 63 64 65 66 66 66 66 65 66 67 68 70 73 75 75
96 94 92 93 91 87 84 79 76 75 76 74 71 69 70 69 68 67 67 65 64 64 62 62 62 62 62 62 62 62 63 63 63 64 66 66 66 67 68 67 68 71 70 70 73 73 75 75 77
100 97 97 98 94 90 86 80 74 71 73 73 74 71 70 69 69 69 68 65 65 66 66 64 63 64 64 65 67 67 66 66 66 67 69 69 68 69 70 72 72 72 72 75 76 77 74 73 73
106 103 100 100 96 92 88 84 76 73 75 71 70 71 69 70 69 69 69 67 68 69 71 69 69 68 68 69 69 69 70 69 69 69 70 71 73 74 75 74 74 73 74 74 73 71 71 72 70
111 106 103 100 95 91 88 86 78 82 77 74 74 72 69 69 67 69 70 70 71 73 73 74 72 71 71 71 72 73 72 74 73 72 72 73 73 73 73 72 72 70 69 70 70 71 69 66 66
112 107 104 101 97 92 91 86 82 84 81 81 79 76 73 71 71 72 73 73 73 73 74 75 75 75 75 75 74 73 68 71 73 71 71 71 73 70 68 69 69 69 70 71 70 66 64 63 69
113 107 104 102 100 96 91 85 84 83 82 83 81 78 76 76 74 76 76 74 74 74 75 76 76 75 76 76 76 76 73 71 70 71 73 71 72 71 73 73 74 74 73 71 67 64 65 68 69
108 106 104 103 102 98 93 87 87 82 82 83 82 80 79 78 80 78 75 72 75 74 75 76 76 76 77 76 74 74 74 74 75 76 77 77 75 75 72 71 70 71 67 69 66 69 71 71 71
111 108 106 103 100 97 94 87 90 89 88 89 88 86 84 84 83 79 77 77 78 76 76 79 79 79 78 77 75 76 77 78 78 79 74 74 72 71 71 71 70 68 68 71 74 74 74 73 71
113 111 107 105 100 97 94 89 93 92 92 90 88 87 88 87 83 80 84 82 81 81 80 79 81 83 82 80 79 80 79 80 81 81 80 80 78 78 78 77 77 77 75 75 75 76 74 74 76
102 102 105 105 104 98 96 93 97 96 92 89 87 87 91 91 90 90 86 83 82 81 82 83 85 86 85 84 83 82 80 80 82 83 83 81 80 79 80 80 79 79 79 77 78 76 77 74 74
99 91 95 99 98 99 99 98 105 101 97 94 89 89 87 84 86 88 84 83 85 86 85 86 85 84 84 82 81 83 83 80 83 84 85 84 82 83 79 79 79 81 80 78 79 82 81 78 75
101 95 91 87 87 85 85 86 91 91 91 88 85 82 84 82 80 81 83 83 83 83 82 83 85 85 84 84 84 85 84 85 85 86 87 89 89 88 88 87 85 83 83 83 82 83 82 76 73
103 96 85 82 81 78 79 81 85 83 80 79 77 77 77 77 77 78 80 82 82 83 84 83 84 85 86 88 88 87 89 92 91 93 94 93 93 93 92 92 92 92 92 90 91 90 82 80 80
96 102 93 83 81 77 78 76 75 76 77 77 75 75 75 77 79 80 81 82 83 84 84 84 86 87 89 90 91 92 94 95 95 96 98 99 98 97 98 98 98 98 99 95 89 79 77 77 76
84 93 99 88 82 80 82 81 79 81 82 80 79 79 79 80 82 83 83 83 85 87 89 90 92 94 96 98 100 101 102 102 103 104 104 104 106 106 106 105 105 104 100 91 83 81 80 78 75
76 82 91 99 91 87 85 82 81 84 85 83 82 84 84 84 86 86 87 88 90 91 94 95 97 99 102 104 106 108 110 111 111 111 112 113 111 112 113 113 113 108 104 97 91 84 81 84 80
67 76 82 87 96 93 91 89 87 86 85 84 85 85 86 87 87 88 90 92 95 97 100 103 104 107 111 114 116 118 120 121 121 121 120 119 119 115 111 107 103 102 101 98 94 90 90 89 86
63 64 70 77 82 90 97 97 93 89 87 89 88 90 91 92 92 95 98 99 101 103 101 99 97 98 100 103 105 105 106 107 108 108 108 108 107 106 106 104 104 104 104 103 100 96 92 89 89
54 60 65 69 74 78 83 85 87 89 90 91 90 90 88 85 84 80 81 83 82 83 84 87 88 88 90 93 97 100 101 100 100 100 99 98 97 96 96 95 95 95 95 94 94 91 89 84 81

GFSSGP_250_spd_048.txt.gz
Wind_Speed
76 73 71 67 63 60 60 60 58 55 53 48 45 43 41 40 38 35 35 33 32 31 29 30 30 30 29 29 30 31 32 32 32 33 34 35 37 38 39 40 41 42 41 43 46 46 47 48 50
80 77 75 72 67 65 64 60 57 55 54 51 47 48 45 42 40 39 39 37 36 36 34 34 34 33 33 33 33 33 33 33 34 35 37 38 38 39 41 42 43 44 47 50 51 51 51 52 51
84 81 78 73 70 70 70 64 59 59 57 55 50 50 49 46 44 42 41 40 38 38 37 37 37 36 36 35 35 37 38 39 40 40 40 41 42 44 45 47 49 51 53 55 56 56 55 54 55
87 85 79 77 75 77 74 67 65 62 58 56 54 52 53 50 48 46 45 43 40 41 42 40 40 40 39 39 38 38 38 39 40 42 43 44 46 48 49 51 53 54 55 56 56 56 56 56 57
93 88 84 78 78 79 76 71 69 67 62 59 57 56 55 56 55 52 48 45 43 42 44 44 43 44 44 43 43 42 42 43 44 45 46 47 48 50 51 52 54 54 55 57 58 58 57 58 58
95 92 85 83 82 82 79 75 73 70 66 64 61 60 58 59 59 56 53 50 49 48 47 46 46 45 46 46 46 45 46 47 47 48 49 49 51 51 51 51 53 53 55 57 57 59 58 57 57
96 92 88 86 90 87 83 79 77 74 71 68 66 65 63 63 59 57 56 54 54 53 52 50 50 50 48 50 51 51 52 53 53 52 53 54 54 54 54 55 56 57 57 59 58 59 59 59 58
96 95 92 86 92 90 85 81 80 78 74 73 71 68 67 65 61 60 59 58 59 56 55 56 56 55 53 53 54 56 56 56 56 57 59 59 60 60 60 60 60 60 60 60 60 61 61 61 62
100 96 88 86 86 89 90 87 84 80 77 76 76 74 72 70 66 64 65 64 62 62 60 58 59 58 58 58 59 59 59 59 61 62 61 61 61 62 62 61 60 60 61 61 62 62 63 64 63
99 97 87 86 88 88 91 90 86 83 80 77 76 76 75 74 70 69 69 69 68 68 67 64 63 62 63 64 64 64 63 64 64 62 62 61 60 60 59 60 61 62 63 63 65 65 65 64 66
101 92 94 92 92 91 87 87 85 83 81 78 76 75 75 75 74 74 73 74 73 71 70 67 66 66 66 66 66 66 64 63 62 62 61 61 61 62 62 63 64 64 65 65 65 65 67 68 67
102 99 94 96 95 94 90 85 84 81 79 77 77 76 76 75 75 74 73 74 74 73 71 68 69 69 67 67 67 64 62 61 62 61 61 64 66 66 65 66 65 65 65 68 69 68 69 70 70
105 101 100 98 98 96 91 87 83 82 79 75 74 74 75 74 74 73 72 73 73 70 68 67 66 65 65 65 63 62 63 63 63 66 67 68 68 69 68 67 68 67 69 72 71 69 69 68 67
110 105 104 103 100 97 92 88 85 83 83 79 76 75 75 76 74 73 75 74 71 69 69 68 67 66 65 66 66 65 66 67 68 69 70 71 73 73 72 70 73 70 69 70 71 69 70 68 68
114 110 109 106 103 98 94 90 84 87 83 79 78 78 77 77 75 76 75 75 74 71 69 70 70 68 69 68 67 68 69 69 71 73 73 75 76 75 74 74 72 71 70 70 72 71 70 70 71
117 113 110 107 104 99 98 92 86 88 83 81 79 77 76 77 74 74 74 73 71 70 68 67 66 66 66 67 68 69 71 72 73 73 74 73 74 74 73 72 71 71 72 73 75 74 72 71 68
119 113 111 108 103 100 96 94 91 90 87 85 82 79 78 76 74 75 71 70 70 68 67 68 68 69 70 70 70 70 71 72 73 73 73 74 73 74 74 74 74 74 75 75 75 72 70 67 65
116 113 111 109 105 101 98 95 94 93 91 90 87 84 79 78 76 76 76 75 74 73 74 74 74 74 74 71 73 73 72 75 77 76 76 76 76 76 76 77 76 77 76 73 70 69 70 67 69
119 117 115 113 108 105 102 97 97 96 94 92 88 82 83 82 81 77 76 77 75 74 73 75 79 78 77 74 75 78 76 77 78 80 80 80 81 80 80 81 81 79 77 76 71 72 72 75 74
122 118 116 113 109 105 102 99 101 98 96 92 89 87 87 84 81 78 75 75 77 79 80 80 80 80 80 81 84 86 82 82 82 83 84 86 86 85 84 84 82 81 79 78 76 76 75 76 76
124 120 118 114 111 108 104 102 103 101 98 95 92 91 88 85 81 78 77 77 79 80 81 83 85 85 87 88 89 87 85 84 85 87 88 87 86 84 83 83 83 83 81 77 76 75 76 75 76
123 121 118 116 113 109 108 105 104 101 99 96 94 91 91 87 85 84 84 85 86 85 86 88 90 90 89 91 89 89 89 91 92 92 90 89 88 88 86 86 85 83 84 83 83 82 83 82 81
118 118 119 117 114 110 109 107 104 104 102 99 96 94 92 90 91 89 88 87 86 87 89 91 89 91 92 92 92 94 93 92 94 93 92 92 91 89 88 87 87 87 87 88 88 87 85 85 86
109 113 113 118 114 111 109 107 106 104 101 99 97 95 93 93 90 89 91 93 92 91 92 91 91 91 91 91 91 91 93 92 92 92 93 96 96 96 96 96 94 93 93 92 90 88 88 89 91
104 104 108 110 114 105 108 109 107 105 102 98 96 97 95 94 95 96 95 91 91 88 84 83 85 87 87 88 89 90 92 93 93 94 96 98 99 99 100 100 98 96 96 95 94 94 94 95 95
94 97 97 100 98 101 103 98 102 104 103 99 97 96 96 95 92 87 85 84 84 84 85 86 86 88 88 90 92 93 94 96 98 99 101 103 105 106 108 108 108 106 105 103 102 101 101 101 100
79 90 94 93 93 90 88 85 85 93 95 95 94 89 87 87 86 83 83 82 84 85 85 87 89 90 93 96 96 99 101 103 106 107 109 110 112 114 117 116 116 116 115 113 111 109 107 104 100
68 78 83 87 91 90 88 82 77 78 80 82 82 82 82 81 81 82 83 83 84 86 90 92 95 96 98 99 102 105 109 113 115 117 119 120 120 118 120 121 121 122 120 118 115 111 105 99 95
59 65 72 81 86 87 90 93 82 77 77 76 79 77 78 82 84 81 83 86 89 90 92 94 97 101 105 106 104 102 104 105 106 106 107 108 109 110 111 111 111 110 109 108 105 103 100 98 96
53 60 67 71 79 85 88 90 95 89 81 83 80 80 81 82 84 85 87 87 88 92 95 101 104 99 94 90 91 92 93 94 96 97 98 98 99 100 101 102 104 106 106 105 104 102 101 100 98

GFSSGP_250_spd_051.txt.gz
Wind_Speed
76 72 71 70 70 69 67 64 63 59 56 52 51 48 44 44 39 38 39 36 34 32 32 32 30 29 29 28 28 28 28 28 28 28 29 30 30 31 33 34 36 38 38 38 41 42 45 49 52
80 77 75 73 71 71 69 67 65 61 59 57 54 52 48 44 43 41 39 37 35 33 33 32 32 32 31 29 29 28 28 28 29 30 31 31 32 33 35 36 38 40 42 44 46 48 50 52 54
84 82 78 75 73 72 71 67 64 63 62 59 57 55 52 48 46 44 42 39 37 36 35 34 33 32 31 31 31 31 31 32 33 34 35 36 37 39 40 41 43 45 47 49 49 50 51 53 54
88 85 80 76 75 77 73 68 64 66 65 62 61 58 55 51 50 47 46 43 41 39 38 36 36 35 36 36 35 35 36 35 36 36 37 37 39 41 43 44 46 47 49 50 51 52 52 53 54
92 87 83 80 79 79 74 70 67 64 65 66 64 61 58 55 53 52 49 45 42 40 40 39 38 38 38 39 40 39 40 40 41 41 41 41 42 43 45 47 48 49 51 51 52 53 55 56 57
94 90 86 82 81 83 78 75 70 68 67 68 66 65 60 58 56 55 52 49 46 45 44 42 41 41 41 43 43 43 43 44 44 43 43 45 47 49 50 50 51 51 52 54 56 57 59 59 59
89 93 89 86 86 86 83 79 76 74 70 69 67 68 62 61 58 58 56 53 51 49 47 45 44 44 44 44 45 46 46 47 47 47 50 52 53 53 52 54 55 57 57 57 58 59 60 59 59
93 94 96 91 89 87 87 81 81 77 76 71 72 70 64 66 62 59 58 58 57 55 53 52 52 50 50 49 49 48 50 52 53 53 54 55 57 58 58 60 60 59 59 60 61 60 60 60 60
96 93 93 92 91 92 90 84 84 82 77 78 75 71 71 69 65 62 60 59 59 58 58 56 55 55 54 53 52 54 54 55 55 58 59 61 62 61 62 63 62 61 62 61 62 62 62 62 62
99 94 90 96 98 96 92 92 87 85 81 81 79 74 73 73 69 66 63 62 63 62 61 59 58 58 57 58 60 61 60 61 62 63 63 64 65 65 64 62 62 63 62 63 64 64 64 62 63
101 93 95 101 99 95 94 95 89 87 83 82 81 77 77 76 73 70 68 67 67 66 65 61 61 63 64 65 67 67 68 69 67 68 65 66 66 65 64 63 63 63 66 67 68 67 66 65 65
101 99 102 98 97 96 97 99 90 90 88 82 80 80 79 78 77 75 74 73 72 70 69 67 66 67 68 70 70 70 70 70 69 67 66 66 64 63 65 65 67 68 69 69 70 70 68 70 69
108 104 101 96 100 99 96 95 97 91 87 86 84 83 81 81 79 76 75 74 75 73 71 70 69 70 71 71 72 71 69 68 66 64 65 64 65 67 70 71 71 70 71 72 73 73 72 70 69
113 107 103 102 104 100 96 96 96 92 88 87 86 85 84 83 81 79 76 75 74 73 71 71 70 70 70 70 68 67 65 65 66 67 69 71 71 71 72 72 72 73 72 73 73 72 72 70 70
119 112 107 105 105 102 98 93 88 92 91 86 83 81 82 82 81 80 79 77 76 74 72 73 72 69 68 68 68 67 68 70 71 72 73 72 71 72 73 73 72 73 73 72 73 73 73 72 71
122 117 112 108 108 104 99 92 93 91 88 84 83 81 77 76 75 74 74 73 73 72 72 70 70 69 70 71 72 72 71 70 71 72 72 73 72 72 73 74 74 75 74 73 73 74 74 73 71
125 121 114 112 109 106 101 98 94 91 90 89 85 82 80 79 77 77 76 74 74 73 73 73 71 71 71 72 70 71 72 72 74 72 73 73 75 76 75 76 78 78 78 77 77 77 76 73 73
120 120 117 114 111 106 102 99 96 95 94 92 91 86 83 83 81 80 78 76 74 72 72 73 72 71 74 73 73 74 73 76 80 77 75 75 77 81 83 83 83 83 81 83 82 81 78 77 77
127 124 122 118 113 109 105 103 99 99 96 93 89 87 85 85 83 80 78 75 73 73 73 73 74 75 79 78 75 77 80 79 77 80 80 82 85 86 87 87 87 86 84 85 84 84 82 78 76
127 126 122 120 116 113 108 105 102 102 98 96 92 89 88 86 84 81 79 79 77 76 75 76 79 78 79 80 79 75 80 82 85 86 88 88 90 93 94 92 92 90 91 90 88 86 82 82 80
125 125 125 122 118 116 111 108 106 103 102 99 95 92 90 88 86 86 83 83 82 82 80 82 80 80 81 80 82 85 86 91 94 97 97 100 99 99 96 95 93 95 91 92 91 89 88 86 83
128 124 123 122 120 120 115 113 108 106 104 100 97 95 93 93 91 89 87 87 86 85 82 83 82 81 82 86 89 93 96 95 98 101 102 102 101 99 97 96 96 94 93 91 92 92 89 89 84
123 127 122 122 122 119 117 115 109 107 105 103 100 97 95 93 92 91 90 88 87 86 86 85 84 86 87 90 93 94 97 98 98 100 100 100 99 100 98 95 95 95 93 93 94 93 92 94 92
111 123 125 123 122 121 119 116 111 110 107 105 103 102 99 98 96 94 92 90 89 88 87 87 88 90 93 94 96 98 101 103 102 99 97 97 99 99 99 100 99 97 98 97 96 97 96 95 96
101 112 122 126 125 121 116 118 114 110 109 106 103 102 101 99 98 96 95 95 95 94 94 94 95 96 99 100 101 105 105 102 99 97 97 95 98 101 102 104 105 105 104 103 101 100 99 96 95
90 102 110 115 119 121 121 118 114 113 111 109 107 104 103 101 100 99 98 98 98 98 98 99 100 101 101 104 104 103 99 97 95 95 96 99 102 105 108 110 113 113 114 114 112 108 106 106 106
78 87 98 105 107 111 116 120 119 113 112 112 110 109 107 105 103 101 101 100 100 101 100 102 103 105 105 102 99 97 95 95 95 99 102 105 110 114 118 120 122 124 124 123 124 122 120 119 117
62 72 80 91 99 103 105 111 114 115 114 112 110 108 108 107 106 107 105 104 103 103 102 101 99 97 96 96 93 93 94 96 100 104 109 114 114 111 111 112 113 112 113 113 115 115 114 114 112
55 63 69 76 86 93 95 96 97 105 109 108 111 111 111 111 112 111 108 104 103 102 102 99 96 92 92 92 92 96 97 101 105 110 105 99 100 106 107 106 105 107 107 109 111 112 112 110 108
48 55 63 70 76 84 89 89 88 87 89 92 96 97 97 97 94 92 91 92 92 90 90 90 89 89 90 93 97 100 102 107 101 93 88 94 94 100 100 95 89 89 93 96 102 104 107 110 108

GFSSGP_250_spd_054.txt.gz
Wind_Speed
74 73 71 70 67 65 64 62 61 61 56 52 51 48 46 43 39 37 37 34 32 31 29 29 28 27 27 26 26 24 24 24 24 24 24 24 25 26 27 28 29 31 33 35 37 40 42 45 47
78 77 75 71 69 68 66 65 66 64 56 58 55 51 50 40 42 39 37 35 35 33 31 30 29 28 27 26 26 26 25 24 25 25 25 26 26 27 28 29 31 34 36 39 41 43 45 47 48
82 79 77 72 71 70 69 69 69 63 65 60 56 54 50 44 47 42 40 37 36 34 33 31 30 29 28 27 26 25 24 25 26 27 28 29 30 31 32 33 35 38 40 41 44 46 48 49 49
86 82 79 75 73 73 73 69 69 68 67 64 60 56 54 51 47 44 42 39 37 35 34 33 31 30 29 28 27 27 29 29 30 31 32 33 34 35 36 38 38 40 42 44 46 48 50 50 52
92 86 82 79 78 78 75 67 72 74 70 67 65 59 57 54 53 49 45 41 39 39 36 35 33 33 32 32 32 32 33 34 35 36 37 38 40 40 40 40 42 45 46 47 49 51 54 55 55
95 93 87 83 79 80 76 71 78 76 74 71 69 62 61 57 56 53 48 45 42 42 40 39 37 36 36 35 36 37 37 38 39 40 41 42 43 44 44 46 49 51 52 53 54 55 57 57 57
96 93 86 85 84 84 79 75 83 79 77 75 69 67 63 62 59 57 54 49 47 46 43 41 40 39 38 38 40 40 40 41 42 41 42 44 46 48 50 51 53 56 56 57 57 59 58 58 58
98 93 90 89 88 84 82 79 84 80 78 73 71 69 63 64 63 61 58 54 51 49 48 45 44 44 43 42 42 42 43 44 45 45 46 48 50 51 52 54 57 58 59 60 62 61 59 60 62
104 101 93 89 91 85 86 84 84 82 78 74 76 63 65 71 68 64 61 57 53 51 51 51 50 49 49 48 48 48 48 49 50 51 51 53 56 58 61 63 63 62 62 62 62 62 63 62 63
108 100 92 88 92 95 94 89 83 82 83 79 74 71 69 71 67 65 64 62 58 55 55 55 54 53 53 54 52 53 54 54 55 56 58 61 63 65 65 66 64 63 63 63 63 63 64 66 69
110 99 94 94 96 95 94 88 87 84 82 82 77 73 69 73 70 67 65 64 62 61 60 57 56 55 56 56 57 57 58 59 61 62 64 66 67 68 69 69 67 66 66 64 65 66 70 70 69
113 103 101 102 98 92 93 88 95 87 85 83 79 70 74 74 73 72 69 67 66 65 63 60 60 59 60 61 61 62 64 64 64 66 68 68 70 71 71 69 68 68 68 69 71 73 71 70 69
116 109 108 107 97 92 92 95 95 91 88 82 77 78 81 76 76 74 72 70 70 69 66 65 65 65 65 65 66 67 67 69 68 69 70 72 72 72 71 68 69 71 73 72 73 72 74 72 73
119 115 112 106 98 96 97 97 94 93 88 84 82 82 80 79 78 77 77 75 74 72 70 70 69 70 69 68 68 68 69 70 71 72 73 70 70 69 69 71 71 72 72 75 76 76 75 74 74
124 120 115 106 100 101 101 96 89 94 90 90 87 84 81 80 79 79 79 76 75 73 73 73 71 69 69 70 70 72 73 73 73 71 72 70 69 69 68 71 73 73 75 77 78 77 76 78 77
127 122 116 109 106 104 101 94 93 98 94 92 88 87 85 83 82 82 80 78 75 74 74 72 72 72 72 73 73 73 72 70 72 70 69 70 69 70 75 76 77 79 79 80 79 80 81 82 80
129 124 116 115 111 109 102 97 96 95 94 93 90 88 85 84 84 83 83 81 79 76 75 74 71 70 71 70 69 71 71 73 70 69 69 71 76 78 78 80 82 83 80 81 85 85 86 87 89
123 124 119 115 114 110 104 101 97 94 90 91 93 90 85 81 81 82 81 77 76 75 73 70 69 70 71 71 70 71 71 68 69 73 77 79 81 81 81 83 84 84 87 89 92 94 95 93 90
127 127 126 121 117 113 106 104 99 95 94 93 91 87 82 80 80 79 73 73 74 71 70 71 72 74 74 73 71 66 70 71 74 79 81 82 81 83 85 87 89 93 95 97 96 96 93 93 88
127 127 124 123 116 115 111 107 104 96 94 96 91 86 85 83 79 75 75 75 74 74 75 76 76 77 75 74 74 72 71 79 84 84 84 84 83 86 89 91 95 99 98 98 102 99 93 89 89
121 126 124 122 119 119 115 110 105 101 99 96 94 92 89 86 84 79 79 79 78 77 78 78 78 77 79 81 83 83 82 81 87 90 89 90 90 91 95 100 99 100 103 105 104 95 92 90 90
111 123 124 117 121 120 118 112 109 105 103 99 95 94 90 88 86 86 84 83 80 80 80 81 82 84 84 83 86 89 89 87 85 89 92 95 98 102 105 105 105 108 107 100 96 96 92 92 93
104 116 125 121 122 120 119 116 112 108 105 103 99 95 93 90 88 88 88 87 85 84 84 85 87 87 88 89 89 90 91 92 92 93 94 98 103 106 110 114 113 110 107 101 99 96 95 95 95
96 106 118 126 123 120 120 118 114 112 110 106 101 99 96 95 93 92 91 91 90 89 89 89 90 90 90 90 91 92 93 95 97 99 101 103 106 110 112 113 113 111 107 102 102 104 102 102 102
84 98 111 115 125 122 121 118 115 114 110 109 107 104 101 99 97 96 96 95 95 93 93 92 92 93 93 94 96 97 98 100 101 103 106 106 109 113 113 110 108 109 109 109 112 114 116 115 113
78 87 99 109 111 122 124 120 117 113 114 113 111 108 106 103 101 99 98 97 97 96 96 96 96 98 99 99 101 101 102 103 104 106 108 111 110 109 106 107 105 106 111 116 121 122 118 114 111
68 74 84 96 107 111 121 123 120 115 115 116 115 113 110 107 105 103 101 100 99 99 99 99 100 100 100 100 102 102 103 105 108 112 112 112 112 109 107 102 106 113 121 121 115 112 110 107 106
61 67 74 83 94 104 106 115 119 120 115 115 114 113 112 111 109 106 105 103 102 102 101 100 101 100 101 103 105 108 109 111 111 112 110 107 104 101 104 107 114 115 110 110 108 104 105 106 103
55 58 65 73 81 91 98 103 112 116 115 112 110 111 111 110 109 108 108 108 108 107 106 106 105 106 107 108 110 112 114 115 111 102 98 97 99 101 109 114 102 103 103 97 92 97 108 105 96
48 53 60 65 70 80 89 93 100 109 115 116 112 108 106 106 107 107 108 109 110 110 108 108 107 107 109 111 114 111 99 94 92 91 95 97 100 109 103 96 90 90 94 95 94 90 76 75 74

GFSSGP_250_spd_057.txt.gz
Wind_Speed
80 78 75 69 66 64 64 60 53 55 53 51 52 51 45 41 39 39 37 31 31 29 30 32 31 30 30 30 29 27 27 24 23 21 22 22 22 23 23 24 25 26 27 28 30 34 37 37 40
81 81 78 71 68 68 67 62 61 59 57 58 58 51 45 43 40 39 38 32 32 31 29 28 27 27 25 25 24 25 25 24 24 24 24 23 23 24 25 27 27 28 30 32 34 36 37 39 41
87 82 80 75 72 71 71 64 62 61 62 60 58 53 46 46 44 42 40 37 32 31 29 28 26 25 25 24 25 25 25 26 25 23 22 23 24 26 28 29 31 32 34 35 36 39 41 42 46
91 83 80 78 74 77 73 68 65 62 65 62 60 55 51 52 48 42 40 37 35 31 30 29 29 28 28 27 27 26 25 24 23 23 24 26 28 30 32 34 36 37 38 39 42 45 48 50 52
94 88 80 78 76 79 74 70 67 67 67 65 61 58 55 54 50 46 44 42 37 34 32 31 32 31 31 30 28 26 26 25 26 27 29 31 33 35 37 39 39 41 42 44 47 51 53 55 56
97 93 84 79 79 83 77 73 71 72 69 70 65 62 59 57 54 49 45 45 40 37 35 34 33 33 33 31 30 28 29 29 30 33 35 36 38 39 40 41 42 43 44 48 51 54 55 57 58
100 96 90 86 86 86 80 77 74 77 75 73 68 65 61 59 55 51 47 48 46 42 40 38 36 35 34 33 33 32 33 34 35 35 36 39 41 42 42 44 45 47 50 53 56 58 59 59 59
104 99 95 92 90 87 82 80 78 81 79 72 68 66 66 62 59 58 52 52 50 47 44 42 40 39 38 38 37 36 37 38 39 40 41 42 44 45 47 48 49 52 56 58 61 62 61 60 59
107 103 99 95 93 87 85 79 79 80 79 72 68 70 70 66 63 60 58 56 53 51 48 45 43 42 41 41 41 41 42 43 44 44 47 49 50 50 52 54 56 59 60 64 66 65 64 63 63
110 105 99 95 92 93 89 82 82 82 79 73 71 75 75 72 69 58 57 58 56 55 53 50 48 47 46 46 45 46 47 48 50 51 51 53 55 56 57 59 62 63 64 67 69 67 67 66 65
114 105 102 100 96 94 94 88 85 83 80 75 72 77 75 75 72 70 64 61 60 59 57 55 52 50 51 51 51 52 53 54 53 53 55 56 58 60 62 65 66 67 68 70 68 68 69 70 70
113 110 110 105 102 98 94 94 86 86 81 78 77 78 75 75 74 72 69 66 64 64 61 59 57 56 55 54 55 56 55 56 56 57 58 62 63 65 65 66 68 70 71 71 70 71 70 70 72
116 113 113 113 108 103 100 92 89 86 83 80 76 78 78 79 78 75 73 71 68 66 64 62 62 61 60 59 59 59 59 59 61 64 64 64 64 66 67 69 73 72 73 72 74 69 71 73 75
118 117 118 118 112 106 97 89 87 86 86 83 79 75 80 82 78 75 74 72 70 68 66 65 65 63 62 62 63 63 64 65 66 67 65 65 68 70 71 73 73 73 74 75 70 71 74 78 78
123 124 122 117 114 105 99 91 87 91 86 82 82 82 82 80 80 80 77 74 70 69 68 68 66 66 66 66 67 68 68 68 68 68 70 72 73 73 72 73 71 74 75 73 75 76 79 79 82
125 127 124 121 114 107 102 95 91 92 86 85 85 84 83 81 79 78 78 75 74 71 71 72 69 70 71 71 71 70 70 70 72 72 73 75 72 72 71 70 71 72 73 77 78 80 80 82 84
125 127 123 121 114 110 108 100 98 94 90 86 85 83 84 84 82 80 77 75 73 72 73 75 74 74 72 71 72 73 72 72 73 73 72 73 72 69 68 72 76 75 77 80 81 84 83 86 89
122 122 122 124 116 113 109 104 102 97 91 87 87 88 85 84 85 84 80 76 74 74 75 75 74 74 73 72 72 74 73 70 71 72 70 69 68 72 74 74 77 81 81 82 85 86 90 93 94
129 126 124 126 122 117 109 107 106 101 93 92 89 88 89 86 83 81 81 79 79 79 79 78 75 74 74 74 74 72 69 68 70 72 71 71 74 75 77 81 84 85 87 88 90 92 93 97 100
128 126 122 125 124 120 117 109 109 103 97 95 93 87 84 84 85 82 80 80 80 79 78 78 77 76 73 71 68 66 69 72 73 76 80 78 76 79 82 84 86 89 91 93 96 98 101 104 109
130 127 125 123 121 120 118 113 109 105 102 99 97 91 86 85 81 79 79 81 80 80 77 76 74 72 71 69 69 70 71 73 78 81 83 86 85 84 85 89 92 94 97 99 102 106 107 111 113
127 127 123 122 122 118 121 115 111 107 103 101 99 92 88 87 84 83 82 83 82 80 76 75 75 74 74 75 76 77 77 79 80 85 88 90 92 92 94 94 97 99 102 106 108 109 114 114 111
108 122 120 120 120 119 118 116 113 109 105 103 102 98 93 91 89 86 87 84 83 81 80 79 79 79 80 80 81 83 85 84 85 85 86 92 96 100 101 102 103 106 109 111 114 117 116 115 115
88 101 121 124 119 117 116 114 115 112 110 109 104 103 98 95 93 91 89 88 87 85 83 82 82 83 83 85 86 85 86 89 90 92 93 95 98 101 104 109 110 114 114 117 119 119 120 115 110
74 86 99 111 124 113 111 110 110 113 113 110 109 107 104 99 96 95 94 92 91 89 88 87 87 86 86 87 88 89 90 93 95 97 98 99 100 101 104 108 111 117 121 123 123 118 110 111 113
61 68 82 96 105 117 125 111 109 112 113 113 112 110 108 103 101 99 96 94 94 93 92 91 91 91 92 91 92 94 95 98 99 100 101 103 103 107 111 111 116 119 120 118 109 107 108 112 114
52 59 68 77 92 100 110 116 116 113 112 114 115 115 113 109 106 104 101 99 97 96 95 94 93 94 94 95 96 97 99 101 102 103 104 106 106 109 111 115 117 116 106 101 102 105 113 115 108
53 55 61 68 75 84 91 100 111 116 117 115 115 113 113 112 110 108 106 103 101 101 99 99 98 99 99 99 100 101 102 103 103 105 107 108 111 111 115 116 112 104 98 100 107 113 106 102 100
48 52 56 64 68 75 81 90 99 111 113 113 111 111 110 109 110 109 109 107 106 105 104 104 103 102 102 102 103 104 105 105 104 108 110 110 114 116 116 110 102 98 101 107 113 95 93 92 88
46 50 54 58 63 70 73 79 91 100 108 115 115 111 111 112 111 110 111 110 109 108 107 107 107 106 105 104 104 104 103 105 107 109 112 114 112 113 99 98 97 102 108 102 92 84 79 81 84

GFSSGP_250_spd_060.txt.gz
Wind_Speed
87 84 80 77 72 67 66 62 58 54 49 46 46 48 46 44 42 40 39 37 34 33 30 31 33 32 31 32 34 34 34 32 32 29 26 24 21 22 23 22 22 21 22 23 25 28 31 32 34
91 87 83 79 74 70 69 66 61 58 55 51 51 48 48 44 43 40 37 37 34 34 30 28 33 33 31 32 32 33 31 30 26 25 23 23 24 24 23 22 23 24 25 27 29 32 34 36 38
95 90 86 81 76 74 72 66 64 63 59 56 51 49 47 44 46 44 39 38 37 33 31 27 28 30 30 30 29 29 27 26 25 24 25 24 23 23 24 24 26 27 29 32 34 36 37 40 43
99 94 87 81 78 82 75 70 68 66 63 58 52 51 50 50 49 47 42 39 36 34 31 30 30 28 28 28 28 27 25 24 24 24 25 24 25 26 27 28 29 32 34 35 36 37 39 42 45
102 98 90 83 80 85 77 73 70 67 67 60 55 54 54 52 51 48 44 41 38 36 34 32 32 31 30 28 28 28 27 27 26 26 26 27 28 29 30 32 34 35 37 38 39 41 44 48 50
107 99 92 86 84 86 81 76 72 70 69 63 60 57 57 55 52 51 49 45 41 39 36 35 33 32 31 30 30 30 29 28 27 28 29 30 30 32 33 35 37 39 40 42 43 46 49 52 54
108 101 92 91 92 90 86 79 74 74 73 68 64 62 61 59 56 55 52 49 44 42 39 36 35 33 33 32 32 31 31 30 30 33 34 34 33 34 36 38 41 43 44 46 48 51 54 57 60
110 106 100 95 98 94 89 81 76 76 78 70 68 64 65 64 61 58 55 51 49 44 42 40 38 36 35 34 34 34 34 34 35 36 37 37 37 38 40 43 46 47 48 51 53 55 59 61 62
114 111 102 96 100 95 86 83 79 79 79 72 70 69 66 65 64 60 58 54 52 47 46 43 42 40 39 38 37 38 38 39 40 41 41 41 42 43 46 48 49 50 53 55 58 62 64 65 68
122 115 102 99 96 94 87 84 84 81 81 74 73 71 69 68 64 66 62 59 54 50 47 47 46 45 44 43 42 43 43 44 44 44 45 46 48 50 51 51 52 55 57 59 62 63 66 69 70
123 110 105 103 101 100 94 88 88 84 84 77 77 77 73 69 66 66 63 58 56 55 54 51 49 49 48 47 45 46 47 47 47 48 50 52 54 54 55 56 58 59 61 63 64 67 69 71 72
119 114 111 107 104 98 95 92 89 90 85 80 77 79 75 72 71 67 65 63 59 56 56 55 53 53 51 51 51 51 50 51 52 53 55 57 57 57 59 60 63 62 64 67 69 70 70 72 69
118 117 115 112 106 100 99 98 96 94 90 84 80 78 77 75 75 75 73 67 65 66 56 56 56 56 56 56 56 55 55 55 56 55 57 59 60 61 63 64 64 67 69 71 71 70 71 70 70
117 120 120 115 109 108 105 103 103 95 91 85 81 79 76 78 78 78 76 74 72 68 68 63 61 61 61 61 60 60 60 60 61 62 60 61 63 65 66 66 68 71 72 70 70 71 71 70 72
122 125 121 116 112 110 107 106 104 98 89 82 79 79 78 78 80 79 78 76 75 73 71 70 69 68 65 63 63 64 63 63 63 63 64 65 67 68 69 70 72 71 70 69 69 71 72 74 75
125 125 123 120 118 114 113 107 104 101 93 83 80 80 81 79 80 78 76 78 76 74 74 73 72 71 71 69 67 66 66 65 66 67 67 69 69 70 71 73 74 69 68 71 71 73 74 77 81
125 122 119 120 120 117 115 111 105 102 96 87 79 81 83 82 80 79 77 77 78 77 77 76 75 73 71 70 69 69 67 68 69 70 71 71 72 73 74 73 71 69 73 73 74 77 79 83 86
120 119 120 119 120 120 116 113 112 105 95 92 84 79 81 83 84 81 78 77 79 81 80 79 78 76 74 72 72 72 71 70 71 73 73 72 73 73 71 70 72 75 74 76 79 82 84 87 90
125 124 122 122 123 123 120 118 115 107 97 96 91 86 83 83 81 82 81 79 79 79 79 80 80 78 76 74 73 73 74 74 74 74 74 75 73 68 68 73 76 78 80 82 85 87 87 89 94
123 126 124 123 125 126 126 122 116 109 102 97 97 91 87 83 80 80 80 80 81 81 80 78 77 77 77 76 75 75 75 74 74 74 73 69 66 69 72 75 77 82 85 87 89 90 92 95 100
121 126 125 126 124 122 123 122 120 110 103 101 98 96 91 87 82 81 81 81 80 79 77 77 78 77 76 75 75 77 78 78 77 73 71 72 73 75 75 77 82 85 88 91 94 97 99 103 105
114 124 123 123 123 121 124 121 119 115 109 105 102 97 94 92 87 82 82 84 84 84 81 78 77 76 76 75 73 71 69 69 71 73 75 78 80 80 82 84 85 88 92 95 99 103 105 108 110
100 124 124 123 122 122 121 121 118 115 109 105 103 102 99 94 90 87 85 84 84 83 83 83 82 81 80 77 77 76 75 74 75 77 79 82 84 86 89 92 93 93 95 99 103 106 108 112 113
93 106 126 121 117 117 117 118 118 113 110 110 108 107 104 100 96 93 90 88 86 85 84 83 82 82 82 82 81 81 81 81 83 83 84 85 89 92 93 96 97 99 102 103 106 107 110 114 117
88 97 105 123 115 115 119 116 111 110 109 110 111 109 108 104 100 98 95 93 91 89 86 84 82 83 84 85 84 84 85 86 86 88 90 92 92 93 94 97 101 104 107 109 109 112 114 117 120
78 84 90 97 113 128 125 113 115 111 107 106 108 112 110 107 106 103 99 98 97 94 92 90 88 86 86 86 87 87 88 89 91 92 92 93 94 95 96 99 102 105 108 112 113 116 118 120 115
61 68 78 81 94 121 121 112 115 116 112 108 108 107 110 111 109 107 104 102 101 100 98 96 94 92 91 92 91 92 93 93 94 95 96 95 97 99 101 103 103 107 110 111 114 118 116 108 106
51 52 59 70 80 98 111 124 116 114 114 111 109 110 108 108 109 110 108 107 105 103 103 101 99 98 97 96 96 95 96 96 97 97 98 101 101 102 104 107 108 109 111 110 116 113 103 101 102
53 54 56 61 67 77 91 103 116 124 124 121 116 110 105 107 106 107 109 109 110 109 107 105 103 101 102 101 100 99 99 100 101 102 102 103 105 108 109 109 109 109 111 113 109 100 99 100 99
44 50 52 57 64 70 75 81 94 106 112 118 121 114 112 110 108 106 106 106 108 108 108 107 106 105 105 105 104 103 103 104 105 106 106 107 109 109 108 109 107 110 110 100 96 98 99 93 86

GFSSGP_250_spd_063.txt.gz
Wind_Speed
90 89 86 82 79 72 68 65 63 58 53 47 40 42 42 44 46 47 46 40 37 37 38 36 34 33 34 32 32 32 32 32 32 33 34 32 27 26 24 23 24 23 20 21 22 25 27 29 31
93 90 90 85 81 75 72 69 65 62 59 52 44 43 44 45 47 46 43 39 36 38 37 34 32 31 32 33 31 31 33 34 34 33 31 28 27 22 23 24 23 21 22 23 26 29 31 32 33
99 94 92 87 83 76 77 73 68 65 62 57 50 44 46 45 47 45 43 40 37 38 36 33 32 29 32 34 33 33 33 32 32 30 29 25 24 24 25 23 23 23 24 26 29 32 33 35 36
101 100 93 87 81 83 79 77 72 67 65 61 55 49 46 47 48 47 45 42 38 37 37 34 33 30 30 34 35 33 31 29 27 26 24 24 25 25 24 24 25 25 27 30 31 33 35 38 39
104 102 97 88 83 87 83 79 74 69 65 65 59 52 49 50 50 50 47 43 40 36 37 36 33 31 30 30 30 29 28 26 27 25 25 26 26 25 26 27 26 28 30 31 34 38 39 42 44
110 105 98 89 87 89 86 80 78 72 66 63 62 56 53 52 52 51 47 45 42 39 37 35 35 32 32 31 30 29 28 27 29 28 28 29 28 28 29 29 30 31 32 35 39 42 44 46 48
114 107 96 92 94 94 87 83 80 75 70 67 63 61 59 56 54 53 50 47 45 42 39 37 36 34 33 34 32 31 30 30 30 30 30 31 31 31 32 33 34 35 36 40 44 45 47 49 52
111 110 105 98 100 97 89 86 83 77 73 68 66 64 64 62 57 56 52 49 47 45 43 40 39 37 35 35 34 34 33 33 33 33 33 32 33 36 38 38 39 40 42 46 47 49 52 54 57
107 115 109 102 103 98 93 90 85 80 77 72 69 68 68 64 60 58 56 53 51 49 47 45 43 40 37 36 36 35 35 34 34 35 36 36 38 40 42 43 44 45 48 50 51 53 55 57 60
114 111 110 106 104 102 97 94 88 83 79 77 73 72 70 68 64 62 60 56 55 51 50 48 46 43 41 40 39 39 38 37 37 39 41 42 42 43 44 45 47 50 53 53 54 57 58 61 63
108 105 108 113 111 108 100 96 91 86 83 81 77 75 73 71 69 64 62 59 57 54 53 51 50 46 46 45 43 43 42 42 42 43 45 45 46 47 48 50 52 54 55 56 59 61 62 65 67
116 110 112 117 115 108 103 97 92 88 87 83 77 72 74 73 72 68 65 63 60 59 57 54 53 51 49 48 48 47 47 46 46 47 47 49 50 51 53 55 56 57 58 60 63 65 67 70 70
107 111 112 113 115 112 108 102 96 89 89 86 83 80 77 73 70 72 67 66 64 64 62 58 57 56 55 54 52 51 50 50 50 51 52 53 54 55 57 59 60 60 62 64 67 68 70 72 70
107 112 112 112 116 114 110 103 100 94 90 89 86 83 83 80 75 73 72 69 68 63 63 62 61 59 58 58 57 55 54 54 54 54 56 57 59 60 61 62 63 64 65 68 69 70 72 69 71
108 114 114 115 117 114 113 108 99 98 94 93 91 91 86 81 79 79 76 73 68 64 62 63 65 63 62 58 57 58 57 56 57 58 60 62 62 63 64 65 65 66 68 69 71 71 70 71 71
108 113 116 115 116 116 113 107 103 104 99 97 93 92 90 84 81 81 79 76 73 70 70 69 64 64 65 64 62 62 62 62 64 65 66 65 66 67 68 68 69 69 70 71 72 69 71 72 76
104 110 115 116 115 115 112 107 108 107 106 102 97 92 90 86 82 79 76 74 73 73 74 75 74 74 72 70 68 68 68 68 69 70 70 69 68 69 70 71 72 72 72 73 68 71 74 77 80
94 101 115 117 115 114 113 109 109 110 111 107 101 94 87 85 82 78 75 74 74 77 79 78 78 76 76 75 74 73 72 73 73 72 72 71 71 71 72 74 74 74 73 70 74 75 76 78 82
96 101 121 119 118 115 113 115 110 114 116 111 102 95 89 84 81 77 76 78 78 78 79 80 79 80 79 78 78 76 76 75 75 75 75 75 76 76 75 76 76 73 71 79 76 77 79 82 85
94 98 116 120 120 117 117 116 115 118 117 114 106 97 93 87 83 79 76 78 80 80 80 80 79 78 78 78 78 79 79 77 78 78 78 77 77 77 76 75 71 70 76 77 80 82 83 87 92
91 95 115 119 118 120 118 117 121 120 118 115 109 100 94 91 88 85 82 81 81 81 81 81 80 79 77 77 78 78 79 78 77 78 78 78 78 77 76 75 74 79 77 78 85 88 92 95 96
87 94 112 121 121 119 120 117 121 122 120 117 110 103 101 94 91 89 85 85 83 82 81 81 80 80 80 80 79 78 78 79 79 78 78 78 77 77 77 78 79 77 79 85 90 95 97 97 99
85 93 109 119 122 121 119 120 119 123 121 115 110 107 104 101 96 93 90 86 85 84 84 82 80 79 78 78 77 76 76 76 77 78 79 80 80 80 82 82 83 86 89 90 92 94 97 100 102
80 85 96 118 118 116 118 118 118 119 116 116 114 110 107 104 103 97 93 92 89 87 86 85 82 81 81 80 80 80 81 81 80 81 82 82 82 83 84 86 89 90 90 92 94 97 99 101 104
76 83 96 106 119 117 119 117 116 118 115 115 114 114 111 107 104 103 100 97 94 92 89 86 85 83 81 80 82 83 82 82 81 81 82 82 83 84 86 88 90 92 95 97 99 99 102 105 107
74 78 86 95 117 119 117 111 116 119 116 113 113 112 112 109 108 106 103 102 99 96 94 92 91 88 86 84 83 83 83 82 82 83 84 85 86 88 89 91 94 97 99 100 101 106 108 109 111
61 72 80 88 102 115 112 111 117 117 117 115 114 112 111 112 112 109 106 105 103 102 99 98 96 94 93 91 90 89 88 88 88 88 89 90 91 92 94 96 96 98 99 103 106 109 111 113 114
55 61 69 78 87 97 113 114 117 120 119 118 115 112 111 109 107 109 109 107 106 106 105 103 101 100 99 98 97 96 95 95 95 95 96 95 96 96 97 99 101 102 104 107 108 110 112 113 116
49 52 59 68 75 86 97 107 119 119 117 115 115 110 108 105 103 100 102 104 106 107 107 106 104 104 104 103 101 100 99 99 100 100 100 100 100 100 101 102 104 105 106 105 109 110 113 113 108
43 47 52 56 65 75 86 96 104 124 122 116 113 110 109 110 106 103 100 99 98 100 101 102 104 107 107 106 105 105 104 103 103 104 103 103 102 103 104 104 103 103 105 107 109 111 108 105 98

GFSSGP_250_spd_066.txt.gz
Wind_Speed
94 92 91 91 87 78 72 70 67 64 57 52 46 44 44 45 44 42 43 40 41 39 39 36 34 33 33 32 32 32 32 31 32 32 32 32 33 31 30 28 25 26 23 22 20 21 23 25 25
95 94 93 92 88 81 75 75 73 67 58 52 49 46 47 44 47 44 43 40 41 40 40 36 35 35 35 33 33 33 31 30 29 28 26 27 29 26 26 26 24 22 23 22 22 23 24 26 27
101 97 96 93 89 82 79 77 75 69 60 56 52 49 47 43 46 45 42 41 42 41 37 35 35 35 35 32 32 32 30 29 28 29 30 29 30 29 26 23 23 23 23 24 24 25 27 29 31
105 102 98 93 87 85 84 80 78 73 65 59 55 52 50 44 45 45 42 42 43 41 38 36 36 35 34 33 30 32 31 30 29 28 30 29 27 25 24 24 24 24 25 25 26 27 29 33 35
107 106 101 94 89 88 87 83 80 75 68 64 59 54 52 48 45 43 43 44 42 41 38 36 36 36 34 32 30 30 32 31 30 29 28 25 25 24 25 25 25 26 27 27 29 30 32 36 38
104 106 100 93 90 92 88 87 83 78 72 68 63 59 55 52 48 43 45 45 44 42 39 37 37 37 34 32 32 28 28 29 29 28 26 26 27 26 27 27 28 29 29 31 32 34 37 41 42
101 109 100 96 95 95 92 89 84 81 75 71 66 61 59 54 51 48 45 46 45 44 43 41 38 37 36 33 32 29 27 27 28 28 27 28 29 29 30 30 31 32 33 35 37 39 42 45 47
99 100 106 101 99 98 93 90 87 83 77 72 69 64 61 59 56 52 49 47 47 47 45 43 40 37 36 33 31 29 30 30 31 31 31 31 31 32 32 33 35 36 38 40 42 44 47 50 51
101 101 101 101 102 100 96 92 88 83 78 75 73 71 67 62 59 55 54 52 51 49 47 45 43 40 37 35 32 32 32 33 34 34 33 33 33 34 35 37 39 41 43 44 46 48 50 53 54
101 100 100 104 106 104 100 97 89 84 81 78 74 73 70 66 63 60 59 56 53 51 50 49 46 43 40 38 37 36 35 35 35 35 35 34 35 36 38 40 42 44 46 48 50 53 53 55 57
99 96 95 103 109 110 104 100 94 86 82 79 77 75 72 68 65 58 62 57 57 55 53 52 50 46 43 42 41 40 39 38 38 38 38 38 38 40 42 43 45 47 49 51 52 54 56 58 60
98 95 96 102 107 110 106 101 95 91 85 80 79 76 72 68 61 62 61 64 59 57 55 54 52 49 47 47 45 44 44 42 42 42 41 41 42 43 45 47 48 50 52 55 57 58 60 61 63
98 95 99 102 106 111 111 106 98 92 88 83 82 81 78 78 54 61 64 63 64 61 58 56 55 53 52 51 49 49 47 46 47 47 46 46 46 47 49 51 52 53 57 59 61 62 64 64 66
99 99 100 103 107 107 114 111 104 96 90 87 84 85 82 77 74 66 60 66 68 65 62 60 59 59 57 56 53 52 51 51 50 50 51 51 50 51 52 55 56 58 61 62 63 64 65 67 69
100 102 103 104 105 106 111 114 106 103 96 91 87 84 85 83 81 74 65 59 67 69 65 64 63 62 62 61 59 57 56 56 57 57 56 56 55 54 56 59 61 63 65 66 66 66 68 69 70
104 103 103 100 105 110 109 110 111 110 101 96 91 88 87 84 83 83 75 76 71 69 69 66 65 65 64 64 63 62 61 62 58 55 56 55 56 59 62 64 65 66 67 68 68 69 71 72 73
103 101 97 99 107 107 109 107 113 112 106 100 96 94 91 91 86 83 86 78 74 72 67 67 67 66 65 63 62 64 65 65 64 62 62 62 64 67 68 70 70 70 70 72 73 73 73 75 78
93 97 99 99 103 102 105 108 108 111 108 105 102 98 94 90 92 88 83 83 78 73 71 70 70 69 66 66 65 65 64 63 64 67 69 69 70 71 72 74 75 73 74 76 75 75 77 79 80
93 98 101 100 101 108 109 112 110 110 110 109 105 102 100 96 92 90 87 82 81 78 76 77 75 74 72 72 72 71 72 73 74 74 75 74 75 75 76 77 78 77 76 77 77 79 79 80 81
89 92 97 99 101 108 110 109 110 108 107 111 111 109 104 101 95 89 87 85 83 80 81 79 78 78 77 76 76 76 76 77 77 77 77 78 78 78 79 80 80 78 78 78 79 79 80 81 82
84 88 93 97 99 104 109 108 106 106 110 109 113 113 108 101 96 92 89 88 87 86 83 81 80 80 80 79 78 78 79 80 79 78 78 77 78 79 79 79 79 79 78 78 79 79 81 81 84
79 83 87 93 96 99 105 105 104 106 108 109 111 114 112 107 102 98 94 92 91 89 87 83 81 81 81 80 80 80 81 82 81 80 80 79 78 78 79 79 78 79 79 80 80 81 82 85 88
73 77 80 87 92 96 100 103 101 106 106 107 108 111 114 112 107 103 100 95 92 88 87 85 84 83 82 82 82 81 80 81 82 82 82 81 80 79 79 79 80 81 82 83 83 84 86 90 91
71 72 76 81 88 91 95 101 104 106 106 109 112 113 112 115 113 110 104 100 97 94 90 87 85 83 82 82 82 81 81 81 80 80 80 79 80 80 81 82 83 83 85 86 87 88 90 91 94
65 67 70 75 80 87 92 96 106 106 108 110 110 115 113 113 112 113 108 104 99 96 95 91 89 87 85 84 84 84 83 83 83 82 81 82 82 83 83 84 84 86 87 88 90 92 94 95 96
63 64 65 71 75 84 89 90 99 107 110 110 112 111 116 113 114 111 111 108 105 102 99 97 94 92 89 86 84 84 84 84 84 83 83 82 82 83 83 85 87 89 91 94 96 97 98 101 102
59 59 61 68 73 80 83 89 97 106 111 110 112 112 113 115 115 107 106 108 109 106 104 101 98 97 96 94 91 89 87 86 85 85 86 87 87 87 89 91 92 94 96 99 100 101 103 103 107
53 56 57 61 66 75 77 89 94 104 113 114 113 110 113 115 111 109 106 104 104 106 108 106 104 101 99 97 96 95 95 94 93 93 93 94 94 95 96 97 99 100 100 101 103 105 107 107 106
50 52 55 60 62 67 73 85 88 102 113 113 111 111 108 109 109 105 102 100 100 102 106 109 108 107 105 104 102 101 100 100 99 99 99 100 101 101 103 103 103 104 105 106 107 107 106 107 107
37 43 50 51 55 64 72 77 91 96 113 117 115 112 111 107 102 102 99 97 98 99 100 103 106 108 109 108 106 105 104 103 104 104 104 103 104 104 106 105 105 106 106 106 104 106 105 106 102

GFSSGP_250_spd_069.txt.gz
Wind_Speed
99 95 94 92 85 79 76 73 70 67 62 55 49 48 47 44 44 45 43 41 39 39 37 37 36 35 34 32 32 30 29 30 29 30 31 31 31 28 28 28 25 24 25 23 19 21 20 23 22
102 98 97 95 90 83 79 78 74 70 64 57 52 50 49 49 46 44 45 43 40 39 36 36 36 36 35 33 31 31 30 29 28 27 27 28 28 27 25 24 23 24 23 20 21 22 22 25 24
107 103 99 98 92 84 82 81 77 73 67 60 55 53 52 50 45 43 44 45 41 41 38 38 37 37 37 35 33 31 31 30 29 27 25 26 25 23 23 24 22 24 24 24 24 24 25 25 25
107 107 103 98 91 88 85 82 80 75 70 64 59 55 53 51 47 45 44 44 44 42 40 40 39 38 38 35 33 32 30 30 30 27 26 26 26 25 23 22 25 26 25 26 26 26 27 28 29
103 109 107 100 93 91 89 87 84 79 74 68 63 59 55 53 50 47 45 42 44 42 41 42 41 38 36 35 33 32 31 29 30 29 27 26 26 24 22 24 25 26 26 27 28 28 30 31 33
101 106 107 101 96 94 91 89 87 83 78 73 68 64 59 56 53 50 46 42 43 42 42 43 42 40 37 36 34 32 31 29 30 30 29 28 26 25 25 26 27 28 28 30 30 32 33 35 37
101 98 103 105 102 100 96 93 89 86 82 76 72 68 62 59 56 53 50 44 42 41 42 43 42 39 36 36 35 33 32 31 28 29 29 28 26 26 27 28 30 31 31 32 34 35 37 40 41
100 100 100 105 103 101 100 97 93 88 85 80 74 70 65 62 59 56 53 47 43 41 43 44 42 39 37 36 36 35 32 32 29 28 28 27 28 28 29 31 32 32 35 36 38 39 41 43 45
100 104 98 99 104 103 100 97 95 91 87 82 76 73 68 65 62 59 56 52 48 44 43 44 44 42 40 38 36 35 35 33 30 30 30 30 31 32 33 34 34 35 36 38 41 43 44 46 49
98 97 95 93 99 105 105 99 97 94 87 83 79 74 70 67 57 61 59 57 52 49 46 44 46 46 44 41 38 36 34 33 31 31 31 32 33 34 34 35 36 37 39 41 43 45 47 50 52
97 90 94 97 99 103 105 103 99 95 91 86 83 76 73 71 66 51 55 59 57 53 50 48 47 48 47 44 41 40 37 36 35 34 34 34 34 35 36 37 38 39 41 43 45 47 49 52 55
94 92 96 102 99 97 104 104 102 96 92 87 83 80 77 74 69 65 52 56 61 57 54 52 50 49 49 48 46 43 42 40 39 38 38 38 38 38 39 40 41 43 45 47 48 50 53 56 58
94 93 96 100 100 98 100 104 104 100 94 89 85 82 81 77 68 65 64 56 55 56 58 57 53 51 51 51 50 47 45 44 43 42 42 42 42 42 43 44 45 47 48 50 51 54 57 59 60
94 94 97 96 98 100 98 101 106 101 95 90 86 84 83 80 77 70 69 66 59 56 58 58 55 54 53 53 53 51 49 48 47 45 46 45 45 47 47 48 49 51 53 52 55 58 60 62 64
98 96 99 99 96 98 98 100 99 103 98 94 89 86 83 81 79 77 72 68 63 56 65 63 63 59 57 57 56 55 54 52 50 50 49 49 49 50 53 54 54 55 56 56 60 62 65 66 68
98 98 98 97 95 96 99 95 101 105 101 98 94 90 87 82 81 79 76 72 70 58 62 66 64 63 61 60 59 58 57 56 55 55 55 54 56 57 57 55 55 57 59 62 64 67 69 71 72
96 95 92 95 96 94 97 98 99 104 105 103 99 94 91 86 83 82 80 77 78 74 63 62 68 68 66 64 63 62 61 60 59 60 60 60 60 60 60 61 62 62 65 67 69 72 73 75 76
85 90 91 94 95 94 98 99 102 101 103 105 103 99 94 90 87 83 84 83 81 79 76 70 63 64 67 67 66 64 64 64 64 63 63 62 63 62 64 64 65 69 70 72 74 75 77 77 77
89 94 95 95 96 100 101 100 98 100 101 105 105 102 99 95 91 88 86 87 85 82 78 77 72 67 65 67 67 68 68 67 68 67 66 65 64 64 68 70 72 74 75 76 77 77 77 77 78
86 91 96 98 99 101 102 98 98 99 100 101 105 105 103 100 96 92 89 87 87 85 82 79 79 78 73 69 67 66 68 69 70 69 68 68 69 71 73 75 76 77 77 77 78 78 76 78 78
83 89 94 97 99 99 101 100 97 96 97 99 99 106 106 103 99 97 94 92 89 86 86 83 81 80 80 78 74 72 72 73 73 73 73 73 74 75 76 77 78 78 79 80 80 79 77 77 79
80 86 92 96 98 97 97 94 97 98 97 95 98 98 107 109 106 103 101 97 93 88 84 86 87 84 82 81 81 80 78 76 75 76 76 76 77 78 78 79 79 80 81 81 80 79 79 80 82
77 82 86 90 94 97 98 93 91 95 96 91 95 98 105 111 112 110 107 104 99 95 90 86 86 88 87 84 82 80 79 78 78 78 78 78 79 79 79 79 80 80 79 79 80 81 82 82 81
71 74 78 82 87 91 95 93 92 95 95 96 96 98 101 106 112 112 110 107 105 103 99 96 91 89 89 88 87 85 83 81 81 80 80 80 81 81 82 82 82 82 82 82 82 83 83 83 86
63 67 70 73 77 83 87 89 88 96 96 97 96 98 99 104 109 112 113 110 110 108 105 101 96 93 91 91 90 88 87 86 85 84 83 83 83 82 83 84 83 85 86 85 85 86 87 90 93
60 64 66 68 70 75 79 79 80 90 94 97 97 96 96 101 105 109 113 116 115 111 109 107 104 99 95 93 92 91 89 87 86 86 85 85 85 85 85 87 88 88 88 90 91 93 94 96 98
57 59 62 64 67 69 70 75 79 86 90 92 93 92 93 98 100 106 107 109 112 114 113 111 108 105 101 98 96 95 94 92 90 90 89 88 88 88 89 90 90 91 92 93 95 97 100 102 104
52 57 58 60 62 63 65 71 77 81 87 89 94 94 92 92 98 104 105 106 104 107 109 111 111 109 106 104 101 100 98 97 96 95 94 94 93 93 93 94 95 96 97 99 101 104 105 106 107
47 52 56 57 57 58 63 68 71 76 83 85 90 94 92 92 95 100 104 104 101 102 102 101 105 110 110 107 105 104 103 102 101 99 99 99 98 98 98 99 100 102 102 103 106 106 106 107 108
38 47 52 53 55 57 61 64 70 75 79 83 85 90 94 93 88 92 95 98 102 100 96 97 97 99 103 108 109 108 108 107 106 104 104 104 103 103 104 104 104 105 107 107 106 105 106 106 103

GFSSGP_250_spd_072.txt.gz
Wind_Speed
106 102 98 94 91 84 83 78 72 70 63 59 56 49 47 49 48 47 49 47 45 42 40 41 39 38 38 37 36 36 36 36 32 30 29 30 31 32 28 25 23 24 23 22 21 25 25 24 25
106 104 102 97 92 87 84 80 76 72 65 63 59 56 50 50 49 48 47 46 45 42 38 38 39 38 38 36 36 35 36 34 30 29 29 27 28 29 27 26 26 23 21 22 25 26 25 26 26
105 107 105 102 95 86 85 83 78 75 70 66 62 59 55 50 50 49 49 47 45 43 40 37 38 37 36 36 37 36 36 33 31 30 29 28 27 26 23 22 21 22 22 24 26 26 27 27 27
100 110 108 105 98 90 86 85 82 78 74 69 65 62 59 54 51 51 48 45 45 44 43 41 40 38 37 37 37 36 36 34 32 31 30 29 27 24 24 25 25 23 24 26 27 28 30 29 30
102 103 110 106 100 94 91 88 86 82 79 74 70 65 63 58 55 53 50 48 46 44 43 43 41 40 40 38 38 37 37 35 34 30 29 30 27 26 26 26 25 25 27 27 29 31 31 32 33
99 102 107 107 104 99 97 93 90 87 84 81 75 71 66 60 56 54 52 49 47 44 43 44 43 42 42 40 39 38 37 34 34 31 31 31 29 28 27 27 27 27 27 29 32 32 33 35 37
98 102 100 111 109 104 100 98 95 91 87 83 78 74 70 64 59 56 54 53 49 46 44 43 45 43 44 43 40 38 36 36 34 31 31 31 31 30 29 29 29 28 30 33 35 35 37 38 40
96 98 104 105 112 108 103 99 100 96 91 87 82 76 71 67 63 60 56 54 51 48 45 42 44 43 43 44 41 39 37 38 34 32 31 31 30 31 29 30 30 33 34 35 37 38 39 40 42
94 98 103 99 109 110 106 103 101 99 96 90 84 79 74 70 67 64 61 57 54 51 47 42 42 42 42 44 41 38 37 37 36 34 32 33 31 31 32 33 34 35 37 38 39 39 40 42 43
94 95 95 100 103 112 110 107 104 100 97 92 87 81 76 74 70 68 65 60 57 52 51 46 42 40 41 44 43 40 38 37 36 37 34 33 33 33 34 36 37 37 38 38 40 41 42 44 45
95 89 95 102 104 106 113 110 106 102 99 95 90 86 80 75 72 69 68 63 59 56 54 51 48 43 42 42 45 44 41 39 38 37 37 35 34 34 35 36 37 37 38 39 40 42 44 47 48
95 91 94 99 103 101 110 112 109 106 100 95 92 87 82 78 75 73 69 62 62 60 57 56 53 49 46 45 45 46 46 44 42 40 39 37 36 35 37 37 38 40 40 41 43 45 47 50 52
94 93 92 97 100 103 103 111 112 108 103 98 95 89 85 81 78 75 72 68 64 63 62 59 57 53 51 50 48 46 46 47 46 45 43 40 39 39 39 41 42 43 45 46 47 49 51 55 55
96 93 92 96 98 102 101 106 109 108 104 101 96 93 89 85 81 76 75 70 60 58 60 58 59 57 57 54 52 50 48 48 49 49 47 44 43 43 43 44 45 46 48 49 51 53 55 54 56
96 96 96 96 94 100 104 105 104 108 107 104 98 95 91 89 84 83 78 70 68 62 58 57 58 59 61 59 57 54 53 52 51 50 50 49 47 47 47 46 47 50 51 54 56 56 57 59 61
98 98 97 95 96 99 100 98 99 103 107 106 101 97 94 91 88 84 81 76 72 68 64 58 54 54 54 58 60 60 57 56 53 52 51 52 52 52 52 53 53 54 56 59 60 60 63 65 67
96 95 95 93 92 94 97 101 101 99 101 103 104 100 96 94 92 88 84 81 77 71 68 66 63 61 61 63 61 61 60 58 56 55 55 55 56 56 57 58 58 59 62 63 65 65 64 69 71
84 90 93 92 91 90 94 97 98 98 97 101 102 101 99 97 95 92 89 85 82 79 73 66 68 66 60 61 62 64 65 61 60 60 60 60 61 61 62 62 62 63 64 64 64 66 70 73 76
88 92 93 94 91 92 95 97 97 100 100 99 98 100 100 99 96 94 92 89 85 82 80 77 73 72 66 60 63 63 64 67 67 66 65 65 65 65 65 66 66 67 67 68 69 71 73 75 76
83 88 91 96 94 93 95 95 97 97 97 98 96 97 100 101 99 96 94 92 90 87 84 82 80 76 73 68 66 63 63 65 67 69 69 69 69 69 70 70 69 68 71 72 73 73 73 76 79
79 84 87 92 95 93 95 92 94 95 96 97 97 95 100 101 102 101 98 96 94 93 90 87 83 78 76 76 73 70 70 67 64 65 65 67 66 66 68 71 71 71 72 75 76 77 79 80 81
76 80 84 89 92 92 93 90 92 96 96 94 95 97 99 103 105 104 103 101 99 96 93 91 89 85 83 82 81 80 78 79 78 75 73 70 70 69 67 68 70 74 75 77 81 82 82 82 83
71 77 81 84 86 91 92 89 91 93 92 91 93 96 98 100 106 106 105 105 103 100 97 94 91 90 88 88 86 85 84 83 82 83 81 79 78 76 76 77 78 79 81 82 83 83 84 84 83
70 73 76 78 80 84 91 92 91 91 94 95 93 94 97 98 103 108 109 107 105 104 102 100 96 92 91 88 87 87 89 88 86 84 83 82 81 82 81 81 81 82 82 83 84 85 86 86 87
67 66 67 70 73 78 84 90 90 95 93 96 95 95 95 95 97 102 108 109 109 109 108 105 102 99 97 95 93 92 89 88 87 88 88 88 87 86 86 85 84 84 85 86 86 87 88 90 91
59 61 61 63 70 77 81 84 90 93 93 91 92 93 94 94 94 97 100 105 113 112 111 109 108 105 103 100 98 96 94 94 92 90 90 91 91 91 89 89 89 89 90 90 90 91 91 93 95
56 58 61 63 68 73 77 81 84 88 90 92 92 93 93 95 94 95 96 100 106 112 115 114 112 109 108 106 105 103 101 98 96 95 93 92 92 92 93 93 93 92 93 91 93 94 96 98 99
52 57 60 64 67 69 70 75 78 84 87 91 93 94 95 94 93 96 97 98 101 105 109 114 116 116 114 112 111 109 108 107 105 102 99 97 98 96 97 97 96 96 96 97 98 99 101 103 105
50 53 58 62 64 66 68 72 74 77 80 84 88 92 96 97 97 96 98 99 99 98 102 108 112 117 118 117 116 114 113 112 110 108 107 105 103 101 102 102 101 101 102 102 104 105 106 108 109
45 49 54 56 59 63 66 69 70 72 76 78 82 86 90 93 95 96 97 99 99 99 99 100 103 108 111 115 119 120 118 115 113 112 110 108 108 107 106 106 107 107 108 108 109 110 109 108 108

GFSSGP_250_spd_075.txt.gz
Wind_Speed
108 110 107 96 96 88 84 84 76 75 68 66 60 56 51 52 51 50 56 52 52 49 46 45 44 43 42 41 39 38 37 36 36 36 35 35 31 29 30 31 31 29 26 25 25 22 24 26 28
105 111 112 104 93 90 88 84 80 79 72 68 66 63 59 54 52 50 51 50 49 49 47 45 43 43 42 43 41 40 38 37 36 36 35 32 29 29 28 29 29 28 29 28 25 23 25 26 27
103 106 114 109 100 90 89 85 86 80 77 75 69 68 62 56 53 52 52 51 50 49 48 46 43 42 41 42 41 40 39 36 36 36 34 32 30 29 28 28 28 27 27 25 24 26 26 27 29
103 106 108 114 102 100 96 88 84 83 79 75 70 68 67 63 54 53 51 51 48 47 47 47 45 40 37 39 40 39 37 36 37 36 34 33 31 31 30 28 25 26 28 27 27 26 27 29 32
103 102 104 105 106 105 105 89 87 86 84 78 75 71 69 65 61 58 52 51 51 49 47 45 44 42 40 38 40 39 39 37 37 36 35 33 33 30 30 28 26 28 29 28 28 28 29 32 35
102 103 104 104 105 110 102 97 96 92 89 84 79 75 71 67 64 59 56 52 51 50 49 46 45 44 43 41 40 40 40 39 38 38 37 35 34 30 30 30 29 29 29 30 30 30 33 36 37
100 102 98 101 109 108 103 100 100 92 93 87 81 77 76 70 67 61 59 54 50 50 48 45 46 46 44 42 41 41 41 41 39 38 36 36 33 32 32 33 32 32 31 32 32 33 35 37 39
99 102 104 107 110 107 108 103 99 97 93 90 85 81 77 72 70 65 62 59 55 53 51 48 47 45 44 44 44 42 43 42 40 37 35 36 34 33 33 34 34 33 33 34 36 37 38 38 40
102 101 102 103 108 103 106 106 104 99 95 94 86 82 77 79 75 69 67 63 57 55 53 49 47 45 45 44 45 43 44 44 41 38 35 35 35 34 35 35 35 35 36 38 40 40 40 41 41
100 97 100 101 102 102 114 110 105 102 99 97 90 86 82 79 78 72 70 66 61 57 53 51 49 47 46 44 45 44 43 45 42 39 36 36 36 36 36 36 37 37 38 40 40 40 41 41 41
99 96 100 102 103 106 113 110 108 106 104 98 93 89 85 81 78 76 72 71 66 60 56 52 51 50 48 45 43 42 42 43 43 40 37 35 37 37 38 38 39 39 39 39 40 41 41 42 44
97 100 101 101 104 101 109 114 110 110 104 100 97 93 89 86 85 81 79 73 69 64 60 57 55 52 51 48 45 42 41 42 43 44 41 39 38 39 39 38 38 39 39 40 41 43 45 46 48
100 99 99 102 103 99 108 112 111 110 106 104 101 98 93 87 87 84 80 76 71 69 66 61 58 57 53 53 50 47 45 44 44 46 46 45 44 42 41 40 41 41 42 43 45 46 47 50 51
98 99 101 103 99 102 105 108 116 112 109 107 105 102 98 91 90 80 80 80 79 72 70 66 61 59 57 56 55 53 52 48 48 48 47 47 47 47 45 44 45 45 46 47 48 49 51 53 55
100 100 100 100 96 100 102 110 107 111 111 108 105 103 99 96 94 91 86 79 79 76 72 67 63 64 61 59 59 57 57 54 52 50 49 49 50 49 49 49 48 49 49 51 51 53 55 57 59
96 100 101 102 101 98 100 101 105 113 115 112 109 106 101 98 96 94 90 84 78 76 76 71 67 65 64 62 59 61 63 60 58 54 52 53 53 53 52 52 52 53 54 55 57 58 60 61 63
96 100 101 100 97 95 93 98 108 110 114 114 111 108 104 101 98 94 92 87 83 80 77 75 73 71 66 60 61 61 61 63 62 60 58 57 58 56 55 55 55 56 58 59 61 62 64 66 67
86 91 99 98 96 93 94 96 100 107 109 111 114 111 107 103 100 97 95 91 85 82 77 78 77 74 71 63 60 60 59 58 57 57 57 58 59 58 59 59 59 61 62 64 65 66 68 69 72
90 93 97 98 96 95 93 94 97 105 107 109 107 110 111 107 103 99 98 96 90 85 83 80 79 76 73 72 69 62 61 63 62 62 61 63 65 65 65 64 64 65 66 68 70 70 71 71 70
84 87 90 95 95 93 92 93 97 99 104 108 107 106 107 108 106 102 100 99 96 92 88 85 83 80 77 72 69 70 70 71 67 65 65 65 64 65 66 68 69 69 69 71 72 72 67 68 71
82 83 87 92 95 93 90 92 91 94 98 104 105 100 102 104 106 106 102 101 98 96 94 89 86 83 82 80 74 74 71 71 72 68 68 68 66 66 66 66 65 64 64 65 65 65 69 70 75
78 83 86 86 90 93 94 91 90 93 97 101 103 100 100 104 105 107 106 102 102 100 97 95 93 90 87 83 82 79 75 75 75 73 72 70 70 66 65 65 66 68 68 69 71 75 76 78 80
77 80 81 84 89 92 89 88 88 88 91 97 99 99 100 100 101 103 104 106 104 103 102 100 98 95 93 91 87 85 82 77 76 75 74 71 74 73 75 78 81 81 81 80 81 81 82 81 81
71 76 79 84 85 85 88 87 86 87 87 92 96 97 97 100 100 99 102 105 105 104 104 103 102 101 98 96 94 92 90 88 85 83 81 81 82 84 85 85 86 86 86 86 84 85 85 87 88
68 72 75 77 78 81 83 84 86 86 90 93 93 93 94 96 98 98 100 102 105 106 106 107 106 104 102 100 98 96 94 94 93 91 89 87 87 87 87 88 88 89 89 89 90 91 92 93 95
62 65 69 70 70 75 79 83 88 90 92 92 90 90 92 96 96 98 99 100 103 106 108 108 108 107 107 105 103 101 100 99 97 95 95 95 92 91 92 92 92 92 92 92 93 94 95 95 96
57 59 61 63 65 69 78 81 87 92 93 91 89 89 87 90 93 93 94 97 101 104 105 109 111 111 111 110 108 107 105 104 103 102 100 98 97 95 95 95 95 95 96 96 96 95 96 98 99
56 57 59 61 64 67 72 75 79 87 90 91 91 91 91 90 91 93 94 95 97 100 104 107 110 114 113 114 112 111 109 109 108 107 106 105 104 102 101 102 101 100 99 101 100 100 101 102 104
52 54 57 59 61 65 67 71 72 78 82 88 92 93 93 93 92 92 93 96 97 97 99 104 106 108 112 116 116 115 114 114 112 112 111 110 109 108 109 109 108 107 106 108 107 107 107 108 109
50 52 55 58 62 64 66 68 69 72 76 80 84 88 91 93 95 95 94 95 97 98 100 101 102 104 106 108 110 114 117 118 117 116 116 115 114 114 115 114 113 114 114 114 112 113 112 112 112

GFSSGP_250_spd_078.txt.gz
Wind_Speed
108 103 101 99 95 85 82 82 80 76 72 65 64 61 57 56 55 52 56 55 52 49 49 46 44 43 43 42 41 39 37 35 33 32 31 32 33 32 33 30 28 31 31 30 27 25 27 25 25
103 111 100 97 93 87 84 86 84 80 73 67 65 62 58 58 54 54 57 55 55 53 51 49 47 44 43 43 43 41 39 38 37 34 34 34 32 31 30 29 29 30 28 29 29 29 28 26 26
104 110 113 105 95 86 88 88 84 84 74 76 70 66 62 58 51 52 50 52 54 52 53 51 51 48 44 43 42 41 42 41 40 36 35 34 32 32 30 31 29 29 29 29 28 27 26 27 28
103 107 115 109 104 85 90 96 92 86 82 77 75 70 63 63 62 56 50 48 48 48 50 51 50 48 45 42 40 40 40 40 40 38 36 36 33 33 30 32 32 31 29 28 27 29 30 31 30
101 105 107 109 107 102 104 97 83 87 85 82 75 72 69 66 66 59 53 50 48 47 47 48 47 47 46 42 40 38 36 37 38 37 37 35 33 33 32 33 33 31 30 28 29 31 32 32 32
101 100 103 104 110 106 113 95 91 91 89 83 78 77 74 72 69 67 58 54 50 48 48 47 45 45 44 43 41 40 38 36 36 37 37 35 35 34 33 35 34 32 32 30 32 33 34 34 35
98 98 98 103 113 114 114 99 92 95 93 88 82 79 77 73 73 69 63 57 54 50 48 48 47 46 45 43 40 40 40 38 38 37 38 37 37 36 34 35 33 33 34 35 36 36 36 36 38
100 100 101 106 111 119 114 107 106 99 96 90 88 81 78 72 64 75 67 62 62 56 52 49 47 48 46 45 42 42 41 40 39 38 40 39 38 36 35 35 34 34 35 36 38 38 38 38 40
103 101 100 103 112 111 106 103 106 105 97 94 90 85 81 87 80 70 68 66 64 60 54 51 48 47 46 44 44 44 42 41 41 41 41 41 40 37 36 36 35 36 37 37 38 38 39 41 42
104 99 99 104 106 107 103 104 108 106 103 99 92 87 86 82 83 77 74 69 68 64 58 53 50 48 48 46 46 44 42 41 42 42 43 42 42 40 38 38 37 37 38 39 39 39 41 41 42
98 101 106 109 106 108 104 100 105 109 108 98 92 92 87 84 82 77 76 71 70 65 63 58 56 51 51 49 47 45 44 43 42 43 43 43 42 41 40 38 38 38 38 40 40 41 41 42 43
94 102 109 106 105 106 105 102 108 109 105 100 97 94 96 89 82 81 81 74 71 69 66 63 59 57 53 51 50 49 46 44 41 41 43 42 43 42 42 41 40 40 40 40 41 42 42 44 45
91 103 107 104 105 105 104 104 108 106 105 102 100 96 91 95 88 80 80 75 73 70 65 67 64 61 57 54 50 50 48 47 45 43 42 41 43 45 45 44 43 44 45 44 45 45 46 46 48
94 101 105 105 108 103 100 106 106 105 106 107 104 101 94 86 89 81 76 72 74 75 75 65 66 65 61 58 56 54 52 50 50 48 46 44 45 47 47 47 47 47 47 47 47 48 49 50 51
92 98 103 109 101 101 100 104 106 106 105 109 112 106 103 95 87 87 81 76 73 72 73 76 63 62 65 63 60 58 56 55 52 53 52 51 50 50 50 50 50 50 51 50 51 52 52 53 55
91 95 104 106 104 102 101 102 104 106 107 110 111 110 106 101 96 90 77 75 72 74 76 75 73 73 70 68 66 63 60 58 56 55 55 55 56 56 55 54 54 53 54 54 55 55 55 57 58
88 93 99 101 102 102 101 100 103 106 106 112 107 107 108 107 99 96 91 80 80 82 77 72 75 78 76 72 68 66 65 63 62 59 59 59 61 60 59 59 58 57 58 58 58 58 59 61 62
84 87 96 99 101 103 102 101 102 105 105 107 114 111 109 106 104 98 96 92 90 79 82 81 76 75 75 75 72 70 68 66 64 64 64 61 61 62 63 62 62 62 62 62 62 63 63 65 67
88 92 97 99 99 100 99 99 95 100 101 104 110 109 108 108 108 104 99 93 93 90 84 86 82 82 79 76 73 73 71 68 65 63 61 60 60 60 60 60 60 62 64 66 68 69 68 68 68
85 89 93 100 100 99 97 100 93 94 97 100 104 112 112 108 108 107 106 100 95 92 92 84 84 84 84 82 77 75 72 74 70 67 64 67 66 64 64 65 65 66 66 66 64 66 64 64 64
80 85 88 94 96 98 102 99 86 85 94 95 96 105 115 113 109 106 108 107 102 98 95 93 93 91 84 76 80 79 74 75 74 75 75 69 66 67 68 67 67 68 70 70 66 65 65 64 66
73 80 87 91 96 99 99 95 88 88 88 89 93 102 105 112 112 109 107 107 106 105 102 98 93 92 90 87 81 81 77 77 76 77 75 74 73 72 72 74 71 71 72 72 70 70 70 70 73
75 79 83 88 94 96 93 87 86 83 82 88 93 95 103 107 111 110 110 107 107 108 106 105 101 96 95 93 91 91 89 87 84 81 78 75 76 74 72 75 75 74 75 77 75 75 77 81 84
71 76 81 85 88 86 83 83 85 83 84 86 92 92 96 102 106 110 106 108 110 109 108 107 105 103 101 98 96 95 93 92 91 90 88 85 83 78 78 79 80 79 80 81 80 82 85 88 88
68 73 77 81 80 78 78 78 86 81 83 85 87 91 93 98 104 108 106 106 108 109 110 111 109 107 105 103 101 100 99 98 96 96 94 93 91 90 88 84 83 83 84 85 88 88 88 90 91
63 67 74 74 75 75 79 78 81 82 84 86 88 88 91 93 98 103 104 106 108 108 108 110 111 111 109 108 107 105 104 103 102 102 101 99 98 97 96 95 93 93 93 93 93 94 94 95 97
61 63 65 69 72 74 75 76 77 82 86 87 86 86 88 92 92 95 98 101 103 106 106 107 108 109 110 111 111 111 110 109 108 108 106 105 104 102 101 100 99 99 100 100 100 99 100 100 102
56 59 61 63 67 70 73 75 75 81 83 85 86 85 86 89 89 91 95 98 100 101 105 106 107 108 109 110 111 113 113 114 113 112 111 110 109 107 105 104 103 104 104 104 104 105 105 105 107
51 52 54 58 62 67 69 70 72 78 80 82 83 85 86 86 86 89 91 91 94 100 101 103 105 107 108 108 110 112 113 115 115 114 114 114 113 111 111 110 109 109 109 110 110 112 112 112 112
45 49 54 55 59 62 63 66 67 73 77 80 81 83 84 87 88 88 89 91 94 96 100 102 105 107 108 109 109 109 112 114 115 116 116 115 113 114 114 114 114 113 115 115 114 115 115 117 117

GFSSGP_250_spd_081.txt.gz
Wind_Speed
98 99 105 106 102 92 87 85 82 76 79 72 67 64 61 58 53 52 55 51 51 48 45 45 44 41 39 40 39 39 36 35 33 32 31 31 30 30 30 29 29 28 28 31 30 28 28 28 29
99 101 105 105 105 94 87 89 80 82 79 74 72 65 63 61 56 57 56 55 54 51 48 46 44 44 42 39 40 40 39 38 36 36 34 34 33 32 33 30 28 28 29 30 30 28 29 29 31
99 101 102 104 105 95 91 89 85 86 82 81 73 66 65 59 56 58 56 56 55 53 51 49 47 44 45 42 41 40 40 39 38 38 38 37 36 35 33 31 29 29 29 31 32 30 29 29 30
100 102 102 99 100 99 96 96 91 85 86 80 75 70 66 62 55 58 58 55 56 55 53 52 52 50 48 45 45 44 44 40 39 38 38 38 36 36 35 32 31 30 30 32 32 31 29 30 32
98 100 102 96 100 103 106 103 88 87 88 85 78 73 67 63 57 58 58 58 53 52 51 51 51 49 49 48 47 46 45 42 38 35 36 36 35 36 34 33 32 31 31 33 33 32 32 32 34
96 99 99 95 105 108 110 99 94 91 90 86 79 74 65 52 50 53 60 56 51 49 48 47 46 45 46 47 46 42 41 40 37 35 34 33 34 35 35 35 34 33 33 34 34 33 34 35 36
95 98 96 97 106 114 111 100 98 92 88 87 84 81 70 50 28 46 52 59 56 52 50 46 44 44 43 43 42 40 39 38 37 35 36 35 35 36 37 36 35 34 34 35 34 35 35 36 38
97 99 99 101 107 112 114 104 98 94 90 86 84 81 74 68 56 34 53 55 48 51 54 50 47 45 44 44 43 41 40 38 37 36 37 37 37 37 38 37 36 35 34 36 36 35 36 38 39
97 100 101 103 105 109 111 107 100 95 94 87 88 85 83 77 79 73 64 64 59 56 57 55 52 48 44 44 46 44 43 41 40 39 39 39 39 39 40 40 38 37 36 37 36 37 37 38 40
97 99 99 103 104 103 107 111 109 98 96 91 88 90 86 79 78 76 72 67 67 63 64 60 58 51 48 47 46 46 45 43 41 40 40 39 41 41 42 41 41 41 39 38 37 37 37 39 41
95 100 102 105 106 105 109 112 117 109 99 91 89 91 88 81 76 73 71 69 75 70 67 67 63 58 53 50 48 45 45 45 43 42 41 41 41 42 43 44 42 41 40 39 38 38 39 40 42
93 98 102 104 104 104 105 109 112 114 108 98 95 92 90 83 76 69 67 65 73 66 63 62 63 59 57 55 52 48 47 48 46 44 43 42 41 41 43 45 43 41 41 41 41 41 41 42 43
91 96 101 102 105 104 103 106 108 110 113 109 104 100 89 84 81 82 84 54 63 68 69 64 62 61 59 59 57 54 52 48 48 47 46 45 43 43 43 43 42 42 44 44 44 45 45 46 46
87 96 101 102 104 103 105 104 108 107 109 112 109 104 98 87 89 85 87 90 86 81 72 65 68 67 66 62 62 61 55 55 52 48 48 46 47 48 46 46 45 46 46 47 47 47 48 48 49
90 97 101 105 105 112 113 105 106 108 109 108 111 108 106 104 97 89 86 87 86 82 74 73 70 67 68 62 67 67 64 59 56 53 52 51 50 50 51 51 51 51 51 51 51 52 52 52 54
87 90 100 104 108 111 106 101 108 113 112 107 106 108 105 100 102 99 91 85 84 68 75 72 71 71 70 69 67 55 60 64 61 58 56 56 56 55 54 55 55 56 56 56 56 56 56 57 57
87 91 95 102 106 107 110 109 110 106 113 113 107 106 106 102 89 99 100 90 90 81 78 68 68 69 68 73 72 72 70 62 62 61 61 60 60 59 59 59 59 59 60 59 60 59 59 61 61
85 87 95 101 102 107 110 107 107 106 108 111 108 107 105 108 101 89 91 97 90 91 82 79 82 75 68 69 64 66 66 69 70 67 65 64 65 64 63 62 62 61 60 60 62 63 62 63 63
80 87 89 93 97 100 107 102 104 105 106 107 108 106 105 102 109 100 88 77 84 91 78 91 84 75 69 70 67 66 67 65 67 65 69 66 67 68 68 67 63 61 60 62 62 63 63 63 64
79 82 84 92 95 98 100 102 100 100 100 102 105 104 105 104 102 109 102 92 86 79 89 88 77 77 75 71 67 71 67 59 57 57 64 64 68 69 68 65 66 65 65 65 65 65 65 65 67
76 78 81 84 93 91 93 98 98 95 98 98 100 103 102 105 101 105 108 106 100 91 82 86 80 74 78 70 78 69 64 69 70 71 67 68 70 68 67 71 71 69 66 66 66 68 69 68 72
75 78 80 83 88 89 89 95 91 93 93 93 97 99 103 101 107 104 105 111 109 106 103 97 95 94 82 83 82 78 77 72 79 77 73 70 74 77 75 72 75 75 75 76 72 69 70 72 75
71 72 72 79 87 86 84 85 89 89 90 90 92 95 99 102 102 110 105 105 110 113 110 104 105 104 98 91 84 88 88 87 86 83 80 75 75 75 75 80 80 76 77 78 78 78 79 80 79
65 67 71 76 81 82 80 83 88 88 85 84 85 88 94 96 100 103 111 111 109 108 111 111 110 107 104 103 94 93 93 94 94 92 92 93 90 86 87 87 85 85 86 86 86 87 86 86 85
62 64 70 75 77 79 78 81 83 83 83 87 87 84 85 90 95 100 103 113 117 112 110 111 114 115 112 110 108 106 105 103 101 98 97 94 96 96 97 94 92 92 92 91 90 88 86 86 87
61 65 70 75 72 74 77 78 81 83 83 83 79 80 81 86 91 95 100 101 110 121 113 109 111 112 114 115 115 113 111 110 109 108 108 106 104 103 102 101 100 99 98 98 98 97 97 96 96
57 59 66 66 71 73 75 79 81 79 74 76 79 80 79 82 86 90 94 98 102 108 118 121 116 113 114 115 114 115 116 117 116 115 113 112 112 110 109 109 107 107 105 104 104 104 103 103 102
55 57 61 64 67 69 72 74 73 75 73 78 79 79 80 81 82 87 90 94 98 102 106 111 113 120 117 114 114 115 116 117 117 117 117 118 117 116 115 113 113 113 112 111 110 109 109 108 107
46 51 55 59 64 66 68 68 72 76 75 74 76 77 78 79 82 84 86 89 96 99 101 102 106 108 112 118 120 120 118 117 117 118 118 118 120 119 119 116 116 116 115 115 114 113 113 112 111
41 45 48 53 58 61 64 66 69 74 75 72 72 75 78 80 83 84 85 86 90 94 97 98 101 105 107 109 111 114 119 121 122 121 117 115 115 114 113 114 112 112 112 112 113 113 113 113 115

GFSSGP_250_spd_084.txt.gz
Wind_Speed
87 95 97 105 103 93 93 89 88 84 85 75 71 66 66 61 57 56 54 52 49 48 49 47 44 41 38 37 35 36 36 37 35 33 31 29 28 28 28 29 30 29 28 27 27 30 30 30 30
83 93 97 104 104 91 94 92 90 88 88 77 73 71 68 63 61 58 56 53 52 48 50 50 46 43 41 40 38 36 37 38 38 36 34 33 33 32 33 33 33 31 29 29 28 30 30 31 31
82 91 97 103 105 91 95 96 92 92 89 80 77 75 66 63 63 60 58 54 53 52 50 51 48 46 43 42 41 40 37 37 38 38 36 34 35 35 35 35 33 32 30 31 29 30 32 32 32
85 93 99 98 100 96 99 102 98 96 88 85 81 70 70 67 64 62 59 56 55 54 53 52 51 49 46 44 43 41 40 40 39 39 39 37 37 36 36 34 32 31 31 32 30 30 33 33 33
87 95 98 94 96 103 103 107 102 95 89 91 86 74 73 62 66 62 60 56 55 55 53 52 52 51 49 48 46 45 43 43 42 42 41 38 37 35 35 32 32 31 32 32 32 32 34 34 34
87 97 97 92 95 106 108 108 101 96 95 90 86 82 72 68 64 61 59 56 55 52 52 53 54 53 51 49 48 47 45 45 43 42 38 36 34 33 34 32 32 33 33 34 34 33 34 34 35
87 98 94 93 99 111 111 105 103 99 95 92 89 82 74 73 65 61 55 55 54 51 53 54 52 51 49 47 47 45 43 43 42 40 37 35 34 33 34 34 34 34 35 35 35 34 34 34 35
88 96 97 95 101 104 112 105 105 106 100 94 90 81 75 75 71 53 43 44 51 47 49 54 52 50 46 45 44 43 41 40 39 39 37 36 34 34 35 35 36 36 36 36 37 36 35 36 35
87 93 97 97 100 104 108 107 108 106 102 97 93 84 81 69 75 59 43 37 48 46 54 58 54 51 48 47 45 44 42 42 41 40 39 38 37 37 37 37 37 39 38 37 37 37 37 37 36
82 88 99 99 102 105 105 107 108 106 100 97 95 88 77 65 75 59 44 42 44 54 55 53 49 44 47 51 48 47 46 43 43 43 42 41 40 38 39 38 39 40 40 39 38 38 38 38 38
77 83 94 99 102 105 105 106 108 105 103 98 94 90 85 85 79 68 49 51 32 44 47 53 48 48 53 55 53 50 49 45 43 43 44 43 42 41 40 40 40 39 40 41 40 38 39 39 41
75 83 91 100 103 104 105 105 107 107 103 102 93 92 84 86 82 77 61 54 48 47 50 54 62 65 63 61 60 56 55 49 47 44 43 44 44 44 43 42 41 39 39 40 40 39 39 41 43
71 79 89 96 102 103 103 102 104 111 108 104 100 95 91 82 84 81 80 68 45 46 47 48 64 66 62 66 63 62 59 56 53 50 47 45 48 48 47 46 45 44 41 41 41 41 41 43 46
72 80 89 94 100 102 102 102 104 113 113 108 103 98 91 83 85 86 86 80 52 47 55 44 46 56 63 58 57 57 59 56 55 55 53 52 50 50 50 49 48 47 46 46 46 46 46 48 49
78 85 92 99 100 103 105 103 104 115 116 112 106 100 94 87 85 86 86 86 87 74 44 41 46 43 55 65 61 56 57 58 57 55 56 58 55 55 54 52 52 51 50 49 50 50 51 52 53
78 84 93 100 102 101 102 105 105 107 119 115 111 105 98 92 86 89 87 85 89 94 87 81 74 66 45 51 60 59 58 64 65 62 61 64 64 61 59 57 56 56 55 55 55 54 55 56 58
79 85 93 100 96 106 101 103 102 103 114 117 113 108 102 96 96 92 88 83 87 84 82 90 83 69 70 56 59 61 61 65 62 65 63 58 58 62 65 63 60 59 59 58 57 58 58 60 59
76 80 87 91 95 100 102 100 102 103 109 116 113 113 108 103 97 96 92 85 85 88 83 75 80 77 83 81 76 68 64 64 62 65 65 67 69 66 63 64 63 62 62 62 61 60 60 61 61
72 76 85 92 91 94 102 105 109 107 106 112 116 113 111 110 110 94 98 94 87 90 95 92 88 82 91 92 80 68 68 57 59 61 61 63 67 68 67 66 67 67 65 64 64 65 64 64 64
71 77 84 91 90 91 99 107 104 105 108 109 114 112 110 112 116 113 107 107 98 94 95 86 82 81 82 85 81 73 63 57 58 59 64 63 64 68 71 72 67 67 65 63 63 62 62 65 65
73 78 81 83 88 92 98 104 100 99 104 106 106 112 112 110 112 118 115 114 108 108 104 97 91 84 79 78 90 88 82 71 63 68 70 67 65 61 68 63 63 63 64 68 68 69 70 70 72
74 77 82 87 87 90 93 99 99 98 99 96 100 101 109 112 108 106 112 111 112 112 111 109 101 90 93 83 86 94 97 91 79 73 85 81 82 74 75 76 73 68 67 68 70 70 72 73 75
72 74 78 80 86 88 90 92 94 95 93 93 98 102 108 107 111 104 105 110 103 104 108 109 112 109 101 87 91 84 80 81 86 89 79 80 77 77 76 75 76 76 78 75 80 79 77 78 79
68 72 76 76 81 84 86 83 87 90 89 91 95 99 100 99 110 114 109 105 109 107 102 96 98 101 104 105 107 96 87 92 83 87 90 89 89 86 89 86 84 87 88 85 84 87 86 84 86
59 64 68 73 76 79 79 75 80 84 87 87 86 90 94 99 103 111 117 116 110 109 115 111 104 100 95 92 90 90 82 85 94 90 90 90 92 91 91 94 95 96 96 97 96 94 94 95 100
54 54 61 66 67 69 74 73 74 76 79 77 77 81 85 92 98 103 107 115 117 118 114 112 124 116 109 105 103 101 94 94 103 105 110 108 106 105 106 107 106 108 106 104 105 109 110 108 106
51 53 56 59 63 67 70 71 70 70 73 75 76 79 81 87 90 96 100 102 107 113 115 117 114 116 124 121 116 114 114 116 118 119 117 118 118 118 115 115 114 115 116 117 114 111 109 106 107
44 49 54 55 58 61 64 67 65 67 70 73 76 77 76 79 81 89 95 98 102 107 112 114 121 122 117 117 124 124 125 124 123 120 119 118 118 117 119 120 120 121 122 121 121 119 118 118 117
46 51 53 56 55 56 59 64 66 68 68 70 71 73 74 74 73 77 83 91 96 100 107 112 115 116 121 128 125 121 120 121 123 124 125 126 129 129 130 127 126 127 126 125 124 123 122 120 118
42 48 50 53 53 53 54 59 64 65 66 68 69 68 69 72 72 74 81 86 91 95 98 103 107 109 116 117 120 124 129 130 131 130 128 126 126 125 125 125 125 123 122 121 121 120 120 119 117

GFSSGP_250_spd_087.txt.gz
Wind_Speed
81 79 81 85 89 88 88 86 91 88 87 86 76 70 65 61 61 57 57 53 51 48 48 47 45 44 43 42 38 35 33 31 32 33 32 31 30 28 26 27 27 29 29 30 29 28 29 28 29
77 76 79 83 83 89 87 88 90 91 92 84 80 76 69 64 61 60 59 55 53 50 47 47 46 45 44 42 40 38 35 33 33 32 33 33 33 31 29 30 30 31 31 31 30 30 29 29 29
71 73 78 79 80 88 86 89 91 97 96 86 85 80 70 64 63 63 60 57 53 53 50 47 45 46 46 45 42 40 37 36 35 34 33 34 34 33 32 33 32 32 32 30 29 29 31 30 30
67 69 77 77 76 84 90 93 99 94 90 74 83 82 72 68 64 66 63 60 57 54 56 54 49 48 47 46 45 42 40 38 37 36 37 36 35 34 36 35 34 33 32 31 29 29 31 31 31
70 63 72 76 73 84 97 100 103 97 95 104 80 77 77 75 68 67 65 63 59 56 54 54 51 49 48 47 46 45 44 41 41 39 37 38 39 37 34 33 32 31 31 31 30 30 31 32 32
70 66 68 74 71 86 104 105 104 100 102 101 98 79 82 81 70 70 66 63 61 59 55 55 51 50 50 49 49 49 48 45 44 42 42 41 40 37 33 33 32 31 32 31 31 32 32 32 33
65 64 68 71 75 91 107 110 104 103 103 98 92 68 86 75 65 67 67 64 61 59 56 54 52 51 50 50 50 50 49 47 45 43 42 40 40 36 34 33 32 32 31 33 34 33 33 32 33
64 66 68 75 79 90 109 114 108 106 105 104 98 96 83 72 56 67 63 60 62 59 59 56 55 54 51 51 51 51 50 47 43 42 39 39 37 35 35 34 33 33 34 34 35 36 35 34 34
63 63 68 72 85 94 111 116 112 109 106 103 102 98 90 78 49 63 58 65 56 58 56 55 52 49 48 49 51 52 49 45 42 39 39 39 38 37 35 36 36 36 36 36 36 38 36 36 35
55 58 70 78 89 99 114 119 113 109 106 104 101 102 95 83 76 57 55 62 60 55 54 50 50 49 52 52 51 51 48 46 43 41 39 40 40 40 38 38 39 39 38 37 38 38 38 37 36
45 54 67 74 87 103 115 117 115 107 105 103 102 101 95 91 88 84 60 58 58 46 47 44 49 53 55 51 52 55 53 50 48 45 43 42 41 40 40 41 41 41 41 39 38 38 37 37 37
43 57 71 73 88 101 112 113 116 108 105 104 105 105 99 94 88 82 87 75 64 47 41 46 46 41 45 47 52 56 56 52 50 49 46 44 44 43 41 42 43 43 43 43 42 41 40 38 39
50 57 68 70 83 96 107 114 115 110 108 105 105 103 99 96 88 74 71 73 65 49 43 45 48 42 41 43 47 48 50 52 49 52 51 49 47 45 45 46 45 45 45 45 45 45 44 44 44
52 60 65 68 82 95 104 111 112 113 108 103 103 104 100 98 92 88 80 72 63 50 51 51 53 55 50 48 50 60 62 61 57 57 52 55 53 51 52 51 51 50 50 50 49 48 48 48 48
55 58 54 65 79 90 101 110 113 112 113 106 103 101 98 95 90 82 82 72 68 52 52 48 52 48 49 43 45 47 51 48 52 50 46 45 49 51 51 53 54 54 54 53 53 53 51 53 52
58 57 62 67 81 90 100 107 108 109 115 109 105 102 101 90 92 88 75 82 68 65 52 56 48 46 46 45 48 45 40 41 47 48 46 49 50 51 54 56 56 56 57 59 57 54 55 56 56
60 59 63 68 76 81 91 102 104 110 114 105 102 103 104 98 88 89 91 90 86 80 69 58 56 48 45 45 40 47 45 42 46 49 54 50 53 58 60 62 62 65 60 55 54 57 56 58 58
53 61 62 72 75 85 88 94 105 109 110 114 104 102 101 100 90 86 85 93 96 92 90 77 58 55 50 52 56 55 44 41 46 48 54 49 53 53 57 58 60 63 63 64 61 65 63 65 64
65 71 71 77 85 84 93 98 101 109 111 108 113 105 102 98 102 94 79 77 90 96 96 91 92 62 68 68 75 69 68 70 64 66 50 54 60 65 67 64 62 63 65 66 67 67 59 62 62
63 63 66 79 85 89 88 95 103 108 109 109 117 111 107 107 103 101 102 93 86 92 97 96 97 93 83 83 83 81 79 86 90 80 65 70 74 71 67 68 67 67 66 62 65 66 67 68 67
60 63 68 72 83 88 89 90 101 103 106 111 114 119 110 108 107 106 100 99 99 95 95 99 104 99 92 89 85 86 84 87 86 88 83 85 81 85 73 69 71 71 71 70 70 75 73 71 69
60 62 66 75 80 84 87 93 89 98 103 109 113 114 114 111 111 109 99 96 101 101 103 100 104 104 103 99 86 78 81 89 89 87 81 73 84 84 75 72 83 78 75 78 83 79 82 81 81
60 63 67 72 77 79 80 84 89 91 97 105 109 110 118 110 117 112 112 106 100 100 103 103 101 95 101 94 97 89 84 91 94 95 93 84 87 89 91 91 86 86 87 89 85 85 81 82 79
60 62 65 70 73 76 78 78 86 88 93 99 102 105 107 118 104 109 114 114 113 109 107 107 105 104 99 95 92 97 103 96 94 93 92 96 88 90 97 100 100 99 98 93 98 98 85 83 85
54 62 66 68 72 73 73 72 79 83 82 89 95 100 103 110 117 109 110 117 117 114 113 107 106 107 109 104 98 102 105 105 109 99 94 95 97 99 97 95 96 100 101 99 97 94 96 91 92
53 60 66 68 66 64 65 70 75 76 76 80 87 94 99 105 108 115 116 111 113 120 118 114 102 103 97 99 109 107 105 109 110 101 100 96 98 99 100 102 102 103 102 102 100 100 96 93 97
45 50 55 61 59 59 63 67 68 71 74 79 84 88 93 98 103 106 110 120 113 114 115 122 122 116 112 109 104 104 108 120 118 116 118 117 116 116 118 117 115 110 110 108 108 106 105 107 110
39 43 44 47 50 54 59 62 62 63 69 76 77 79 85 92 99 103 106 110 118 121 114 115 118 123 124 126 127 128 124 122 120 120 116 115 115 116 116 113 113 109 110 110 112 116 120 120 117
35 40 43 42 42 46 53 59 63 62 65 67 69 73 76 81 87 93 96 102 111 116 123 127 120 117 121 125 123 124 123 121 118 115 114 114 110 112 112 109 114 115 115 118 121 124 129 131 129
32 39 44 44 43 43 50 55 60 58 58 59 66 71 73 75 78 81 86 94 101 109 117 119 124 131 133 127 123 128 129 130 128 128 127 125 125 123 122 124 127 127 128 129 131 132 137 136 134

GFSSGP_250_spd_090.txt.gz
Wind_Speed
79 75 73 72 75 74 67 73 76 83 87 80 78 76 70 67 62 55 58 54 53 52 49 47 45 44 42 40 38 35 34 33 31 29 26 26 26 27 26 25 25 26 28 27 28 28 29 28 28
78 81 76 71 70 68 65 74 77 82 87 86 86 82 74 71 64 62 61 59 56 54 54 51 48 47 46 43 42 39 38 37 34 32 29 28 26 26 28 28 28 28 28 28 28 28 28 26 29
80 83 84 66 62 70 69 80 83 90 86 90 78 83 80 73 70 66 64 61 59 56 55 52 49 48 47 47 44 42 40 37 35 33 31 29 30 29 26 27 28 30 29 29 30 27 28 26 27
81 83 85 78 62 78 68 81 88 92 91 96 80 83 87 78 75 71 67 64 63 59 55 53 50 49 47 47 46 43 40 39 37 35 34 32 31 31 30 31 30 30 29 29 29 27 27 26 27
85 85 85 84 76 80 72 79 87 92 93 93 79 88 83 81 75 72 69 66 64 61 59 56 52 53 51 48 45 44 42 41 39 38 37 36 35 35 35 33 32 29 30 29 29 29 29 28 28
82 80 89 88 81 71 72 81 86 91 99 93 95 82 86 80 80 76 72 69 67 64 61 57 55 53 53 54 51 49 46 44 42 42 41 40 38 37 36 34 33 31 31 30 29 28 29 30 31
77 80 83 82 73 63 71 81 84 90 99 92 97 96 81 80 76 79 76 71 69 67 64 61 57 56 53 51 49 49 47 46 45 45 43 41 39 40 38 35 32 31 30 29 29 30 31 30 31
77 77 77 78 69 60 74 83 85 91 93 98 96 89 87 83 80 79 77 74 69 64 65 63 60 58 55 52 51 48 49 47 47 46 46 42 41 39 35 34 32 31 30 30 31 32 32 32 33
72 70 68 70 71 62 76 85 90 94 99 97 86 94 82 89 83 82 82 78 69 67 62 64 60 59 56 56 52 50 48 46 46 47 45 40 39 39 36 34 34 32 32 33 32 33 34 33 33
70 64 66 67 65 66 79 87 94 98 98 98 97 93 91 76 82 76 72 75 75 71 68 64 61 58 56 57 55 53 48 48 46 42 45 47 41 38 37 37 36 34 33 34 34 34 35 35 34
64 58 62 60 63 71 81 89 96 99 100 101 106 92 85 64 84 82 73 62 58 64 65 63 61 60 60 55 51 52 50 51 48 46 45 45 42 42 42 39 36 34 35 35 36 36 37 38 37
55 53 51 58 61 72 81 88 98 101 102 104 104 99 93 81 76 87 56 50 50 47 57 58 64 57 55 56 53 49 51 52 44 47 48 49 49 46 45 42 40 38 38 36 38 38 39 38 39
45 47 51 53 58 72 81 91 96 100 105 106 106 107 109 101 86 88 77 52 56 51 56 63 63 54 51 48 48 48 42 38 41 43 48 47 43 43 47 47 46 45 44 44 43 43 42 44 43
46 48 53 55 62 69 77 89 96 103 110 109 102 107 110 98 100 98 93 63 63 59 55 54 58 57 53 50 52 42 36 36 41 44 45 46 48 52 48 45 47 47 46 46 45 44 44 44 46
47 52 56 55 65 77 84 89 98 107 115 105 101 103 106 91 99 104 90 72 65 60 61 59 52 54 56 51 49 41 38 40 46 50 56 57 51 44 39 40 43 45 46 46 46 45 46 49 50
48 53 56 59 66 79 81 91 99 110 118 112 101 100 100 111 112 92 96 99 94 65 67 69 64 60 54 51 50 47 47 52 49 47 48 50 48 49 46 46 43 43 47 47 47 49 51 56 55
48 54 56 56 62 77 81 88 101 110 122 119 105 103 100 98 105 103 97 98 88 84 85 83 68 56 60 56 52 57 54 51 50 52 50 50 47 44 46 46 46 47 49 48 45 47 53 55 55
45 52 56 56 61 74 82 90 98 109 121 120 116 107 107 101 104 104 105 99 92 84 78 69 66 63 58 53 53 56 57 55 50 52 51 47 45 51 51 55 52 50 52 52 54 58 61 61 63
47 56 56 56 59 76 79 88 97 107 120 118 116 111 107 110 99 91 103 98 93 89 85 76 66 69 71 59 56 57 54 52 57 58 56 51 47 50 54 55 54 62 56 58 66 65 64 62 63
46 53 56 59 58 62 76 83 91 101 117 115 115 111 108 107 107 108 100 99 100 89 94 84 78 73 75 73 60 57 60 55 54 57 53 59 60 65 76 77 75 79 76 80 83 76 69 64 64
47 55 59 56 62 66 80 84 87 98 115 120 115 108 107 107 101 101 89 91 90 97 90 93 84 89 81 74 63 62 56 59 62 65 68 69 73 81 82 83 83 81 80 88 85 82 78 68 73
47 54 54 54 62 70 65 72 81 89 104 110 114 110 109 108 99 95 105 97 92 96 89 91 93 96 85 76 75 65 72 71 65 66 68 73 73 74 78 81 83 87 93 88 91 84 81 78 82
45 48 53 56 61 65 68 71 79 93 102 116 120 111 106 107 110 111 100 93 98 95 95 94 100 98 89 81 67 66 61 60 73 71 66 60 69 75 81 89 90 90 91 95 98 95 87 87 86
44 47 50 58 65 68 67 70 82 92 99 115 119 121 114 106 106 107 106 104 106 107 99 102 105 105 99 94 90 84 79 78 75 71 72 73 73 81 85 86 86 88 93 97 96 93 97 99 99
38 42 50 56 60 64 66 70 78 87 95 100 107 117 120 110 112 109 106 115 114 110 108 92 100 108 112 110 108 92 98 99 91 86 84 80 78 76 86 93 91 94 98 101 102 106 112 108 107
39 43 50 53 53 54 59 60 65 79 84 90 100 113 110 117 105 107 108 107 108 105 101 105 104 97 95 99 103 107 112 104 101 93 91 100 103 102 101 97 104 109 110 106 111 116 109 105 104
40 45 50 52 54 57 59 59 64 68 74 79 88 101 111 113 117 112 110 108 107 102 101 104 106 107 108 109 109 107 105 107 103 100 103 101 111 113 113 113 112 113 112 108 107 110 108 108 106
27 35 45 49 54 55 56 57 62 65 69 72 75 83 93 105 113 112 115 114 115 113 112 110 107 106 106 106 109 108 105 108 110 111 112 111 113 116 117 116 112 108 107 110 116 117 116 114 119
20 28 35 43 42 40 49 53 55 58 61 62 64 66 76 91 105 112 114 115 115 117 118 119 120 118 117 112 107 108 112 115 117 119 121 121 118 116 117 118 121 123 122 121 124 128 125 130 127
21 21 25 30 32 32 36 41 47 52 55 58 60 63 66 77 90 105 112 115 117 120 115 120 127 126 125 121 126 124 114 110 112 116 122 125 125 123 126 121 123 131 134 127 123 125 128 132 133

GFSSGP_250_spd_093.txt.gz
Wind_Speed
72 80 78 70 63 59 59 58 66 68 70 71 71 74 68 69 67 64 59 55 53 54 51 48 46 45 42 40 38 36 34 32 29 26 25 25 23 21 20 23 26 25 24 24 24 23 23 24 24
72 81 83 70 62 64 63 58 64 69 71 78 74 73 73 72 70 68 64 59 58 57 54 51 50 47 45 44 42 42 38 35 33 30 28 27 25 23 23 22 23 25 26 26 27 24 25 23 24
69 81 85 77 67 65 68 66 66 72 71 73 74 73 72 73 75 72 69 65 61 60 58 55 53 51 49 47 46 45 43 40 37 33 31 29 25 25 25 25 25 23 24 26 26 25 24 24 24
68 77 84 83 74 69 66 76 73 72 71 71 71 76 72 75 79 77 73 71 65 63 61 58 56 54 51 48 47 46 45 43 41 35 33 31 28 28 27 27 28 29 27 27 26 26 26 25 25
66 73 80 82 80 76 66 73 73 70 71 68 74 77 75 71 77 79 77 75 68 66 64 61 59 57 53 51 49 48 46 44 41 35 33 32 31 31 31 31 31 32 31 28 28 27 26 25 25
68 71 73 76 77 76 74 66 73 69 71 74 80 82 77 78 69 79 82 77 74 69 67 65 62 60 55 52 50 48 47 46 41 40 38 36 36 35 34 33 33 33 32 30 29 27 26 25 26
69 71 66 72 69 73 78 78 72 74 71 73 83 86 84 83 77 72 81 81 76 73 70 68 65 62 58 54 51 50 50 48 46 45 42 39 38 36 35 35 36 35 32 30 29 28 26 27 26
66 73 65 65 66 69 81 85 85 74 78 83 82 91 91 83 79 70 74 79 78 74 73 71 68 64 61 59 55 52 49 48 45 44 44 41 40 39 36 36 35 34 31 30 30 29 28 28 28
66 68 62 64 68 67 78 85 86 88 84 82 80 88 88 69 73 67 53 64 78 78 77 73 70 66 61 58 56 54 51 48 45 45 45 42 39 37 37 35 34 34 32 31 31 30 29 28 29
67 63 61 68 70 72 83 80 83 82 85 88 80 92 98 87 54 58 41 55 71 77 80 75 70 68 64 61 59 55 54 51 50 48 45 43 43 38 39 38 37 35 34 34 32 30 30 29 29
69 66 67 69 73 78 81 84 86 78 82 82 84 95 94 82 76 72 73 68 64 71 81 77 72 64 61 58 58 58 54 54 52 50 47 44 46 44 44 41 39 37 36 36 35 31 31 31 32
68 71 69 73 74 75 80 86 86 84 84 87 90 99 100 88 91 69 58 54 57 64 68 77 73 70 64 62 58 59 56 53 48 47 45 48 50 45 43 41 41 41 42 40 38 35 35 38 38
69 70 71 72 74 76 83 86 87 80 86 91 94 99 99 114 80 95 82 87 64 64 57 67 75 72 64 59 58 59 59 58 55 52 50 50 43 41 40 39 40 41 38 41 42 41 37 37 37
70 69 70 68 63 65 71 81 81 82 85 89 96 102 102 110 106 88 95 95 72 71 64 62 63 63 67 65 66 59 59 54 48 49 45 40 38 40 42 44 45 44 44 42 41 41 41 42 42
68 64 58 52 52 54 62 70 72 85 89 93 101 116 108 106 111 105 101 89 81 70 77 65 61 58 53 56 60 59 58 50 48 47 45 39 43 48 46 46 50 51 51 49 52 48 43 44 41
57 49 44 45 48 52 56 62 69 76 85 93 98 99 102 100 97 104 97 93 90 81 72 63 60 58 58 59 60 57 51 52 48 45 40 34 48 44 45 50 55 58 56 50 48 46 44 46 47
42 40 41 44 46 51 54 62 72 77 88 96 91 98 93 89 86 86 85 74 81 67 73 65 63 62 58 54 55 53 52 52 51 50 46 45 52 57 55 53 55 55 55 52 49 46 46 45 45
38 35 40 44 49 52 56 61 74 86 92 97 103 105 106 105 88 85 76 80 91 79 66 62 62 62 65 59 59 53 50 54 54 55 51 49 54 53 54 52 54 55 53 50 50 47 48 49 53
32 36 41 47 51 60 65 72 75 90 96 100 107 104 114 107 108 91 80 81 74 82 91 73 68 69 64 65 65 67 65 59 56 54 54 57 59 52 51 53 55 54 54 53 53 59 64 59 60
28 35 41 47 53 57 62 73 83 91 101 105 107 110 123 108 107 95 104 99 91 86 89 74 69 74 74 70 68 70 64 56 56 58 60 56 60 62 61 60 61 60 55 61 65 73 76 73 71
28 36 42 50 54 61 65 69 84 93 107 111 120 111 127 128 121 111 102 103 103 100 95 91 77 77 77 63 66 70 61 57 59 58 62 59 61 63 64 59 60 67 72 73 79 83 82 85 84
29 34 39 46 53 62 62 65 84 94 110 117 118 123 100 118 126 127 121 108 103 101 109 105 105 100 93 84 73 62 60 65 66 62 59 64 62 59 58 60 66 73 78 79 83 89 87 87 84
26 28 35 41 50 62 61 64 78 94 111 121 120 120 102 106 111 125 128 123 115 105 105 109 107 99 94 93 77 72 70 70 66 62 65 61 61 59 64 67 65 62 63 66 67 79 81 87 92
25 29 34 41 52 54 57 61 63 93 107 124 122 118 113 116 112 113 120 127 120 114 112 99 99 101 99 96 85 88 82 70 66 68 64 63 63 65 66 61 67 73 72 73 73 74 79 76 81
23 28 33 40 46 50 50 55 63 84 99 117 110 122 125 119 120 114 110 116 121 122 118 114 115 110 102 103 95 95 90 70 74 77 70 67 67 69 71 66 74 74 75 77 81 85 86 88 90
27 29 32 39 45 47 44 48 41 60 85 105 120 116 122 125 122 122 118 108 106 108 106 108 110 113 106 100 90 97 100 89 81 85 81 80 76 79 79 79 81 85 87 82 86 91 95 97 97
19 22 30 39 42 43 45 45 45 53 69 93 122 114 118 120 126 123 120 114 116 114 108 108 105 103 104 105 105 96 103 100 100 87 87 90 87 86 85 81 82 88 91 91 98 100 101 101 103
19 23 28 35 36 39 42 43 46 51 64 85 100 125 120 121 124 123 120 115 112 111 116 113 106 103 99 98 101 101 104 105 105 103 93 97 101 103 97 91 98 104 106 107 105 104 104 104 105
18 20 27 33 38 38 39 42 47 50 53 69 87 106 124 122 120 122 122 118 117 113 112 108 107 103 106 106 103 100 105 109 110 113 116 115 113 113 113 111 113 107 103 100 104 107 109 107 108
13 12 17 19 24 31 35 39 43 43 48 56 69 85 106 124 117 114 115 119 117 113 117 115 103 100 105 107 105 107 112 113 114 122 121 121 121 116 116 122 125 128 125 124 122 124 124 124 124

GFSSGP_250_spd_096.txt.gz
Wind_Speed
41 39 36 47 62 64 66 61 54 55 74 75 70 71 69 67 67 69 61 58 56 53 49 47 47 45 44 41 41 38 36 31 30 27 24 21 20 18 19 17 18 20 25 27 26 26 25 25 24
42 40 38 41 51 66 70 69 59 53 63 75 74 73 69 68 74 71 66 62 60 58 55 50 49 49 47 44 43 41 40 36 33 31 28 26 24 22 21 20 20 21 20 24 28 26 26 23 23
46 42 38 34 42 57 70 72 70 65 55 67 71 72 70 67 66 71 69 68 63 62 59 55 52 52 51 47 47 45 42 40 38 36 32 30 29 27 23 23 22 22 22 22 22 24 25 24 24
47 45 41 35 40 55 68 74 70 66 56 58 67 73 68 67 66 68 73 70 67 65 62 59 56 55 53 51 48 47 45 42 40 38 37 34 31 28 26 26 26 26 26 27 26 27 27 26 24
48 46 45 34 39 59 61 75 76 63 60 63 59 70 70 68 69 67 72 73 69 68 66 64 59 58 55 53 51 50 47 44 42 40 39 36 32 29 30 29 29 29 30 28 28 26 27 28 26
53 56 44 40 43 56 57 65 79 65 63 64 59 70 71 70 66 71 65 72 72 71 70 67 63 60 57 55 54 53 49 47 45 42 41 37 34 33 33 33 32 31 31 32 31 28 27 27 26
60 59 46 44 49 54 63 63 77 71 63 64 64 63 68 68 67 69 65 65 73 75 73 70 69 64 62 58 57 56 53 49 46 44 42 40 39 38 35 33 32 33 33 33 31 28 27 27 26
62 65 49 49 51 56 67 68 76 79 60 67 66 59 67 71 69 69 62 52 74 77 77 75 73 69 67 62 60 57 55 51 46 46 43 42 40 38 37 34 32 32 33 30 29 27 27 28 28
60 65 55 54 55 61 72 73 72 78 69 62 59 63 66 71 69 71 62 71 62 71 75 77 77 72 69 67 63 60 57 54 51 48 46 42 40 39 39 37 33 34 35 32 32 29 29 29 29
63 68 62 61 59 67 69 73 76 76 71 54 60 63 70 71 70 66 52 44 61 61 71 77 79 77 71 69 66 62 59 56 54 51 49 46 44 44 42 38 41 41 39 35 33 33 32 29 28
63 63 73 66 64 64 68 71 75 75 73 69 59 71 71 71 77 74 71 62 51 59 59 74 75 80 76 73 69 66 62 57 54 53 52 48 48 46 44 39 43 41 42 43 36 35 34 33 31
63 72 75 67 66 62 65 71 71 74 74 75 69 69 76 77 87 88 89 86 76 61 71 72 76 76 78 78 72 68 66 61 58 57 55 53 50 46 41 40 46 46 44 39 36 39 36 35 37
69 71 70 67 64 63 64 67 64 66 80 78 75 76 77 85 95 94 81 79 64 62 61 62 67 76 78 77 73 69 66 62 56 54 56 54 50 47 49 48 48 45 44 43 43 42 41 36 33
70 67 67 66 65 64 63 67 59 68 74 74 78 84 89 96 103 99 85 85 89 64 62 54 66 71 77 79 75 70 66 58 54 54 54 51 54 55 54 50 42 42 44 44 46 44 42 45 43
65 64 64 67 68 66 65 63 63 73 76 80 83 92 101 104 106 97 95 90 94 79 69 65 65 64 63 66 71 69 68 64 60 57 54 57 54 53 52 46 35 42 48 47 48 48 46 46 47
63 63 65 66 66 68 64 64 71 74 77 85 90 96 102 110 107 89 81 81 79 88 74 60 60 61 58 51 54 64 72 67 64 57 54 57 51 49 49 44 45 51 52 50 49 47 48 51 57
62 63 62 59 57 57 56 56 61 70 77 83 89 94 108 114 114 89 77 81 76 69 66 61 64 66 59 54 55 54 59 67 64 62 63 59 53 52 48 47 49 55 56 53 54 53 52 51 51
59 58 54 48 42 43 46 50 56 62 69 77 90 100 110 110 114 119 88 88 89 78 64 67 66 61 58 57 59 56 56 56 61 65 64 61 55 52 52 54 54 58 57 59 58 57 56 53 51
54 48 41 37 35 37 36 40 49 59 64 78 92 107 108 109 105 104 98 90 85 87 69 67 62 60 61 64 65 62 63 59 56 53 55 55 54 57 56 59 57 59 59 56 55 58 56 51 57
43 38 34 33 33 35 38 40 46 59 73 88 95 102 108 106 102 98 96 95 96 87 84 72 63 74 70 67 65 66 62 61 56 61 55 52 52 53 57 57 61 62 59 59 59 57 59 59 62
34 31 30 30 32 36 39 42 47 60 74 88 98 108 107 107 108 111 100 106 97 99 91 80 70 66 68 69 73 67 65 67 61 60 63 65 57 56 55 59 60 59 59 63 68 67 68 67 69
27 26 26 27 31 37 40 44 53 66 72 89 103 108 114 111 112 117 116 104 97 96 106 94 86 82 79 79 74 67 65 68 67 67 67 66 64 57 56 58 62 64 69 65 68 71 70 70 71
19 22 25 26 31 35 42 50 61 73 84 94 110 116 118 118 121 118 105 111 98 93 107 108 104 95 91 80 76 74 69 74 75 74 67 64 63 60 59 64 65 63 64 65 65 72 81 82 77
15 18 19 22 28 35 41 48 67 79 89 98 118 126 122 121 123 115 100 111 114 115 103 106 101 103 95 87 81 80 79 76 80 76 68 65 65 69 69 66 65 64 63 64 71 68 66 69 78
14 14 17 20 28 30 37 46 60 79 91 109 118 112 127 125 123 115 121 117 102 105 121 109 108 107 108 96 90 85 84 82 76 65 67 76 72 74 77 73 72 73 72 76 75 72 69 74 76
18 18 18 22 21 24 28 41 49 75 91 106 116 114 123 128 126 121 118 114 109 97 109 107 111 106 105 104 98 91 87 92 85 75 67 72 73 76 79 80 75 71 82 80 81 83 86 94 91
18 20 20 21 22 23 25 31 41 75 89 100 115 119 111 113 122 115 121 110 111 103 106 106 107 106 106 107 109 103 98 91 91 92 87 84 83 79 77 79 82 78 89 87 85 90 95 90 90
18 17 18 18 19 21 24 27 34 46 81 97 110 117 109 116 120 117 115 117 113 115 109 114 103 106 111 116 114 115 111 108 106 108 106 100 94 89 87 80 84 86 89 86 88 90 91 92 96
19 20 16 18 21 21 23 23 28 36 77 97 105 118 111 115 121 123 126 125 121 115 119 122 111 110 111 110 113 113 114 113 118 114 110 103 103 104 100 103 98 94 95 93 88 90 95 102 103
20 19 17 16 15 17 22 27 30 36 48 88 103 113 115 111 122 125 126 128 126 122 119 120 125 117 118 117 117 114 107 105 104 108 110 112 110 109 108 107 108 111 114 109 105 104 107 111 110

GFSSGP_250_spd_099.txt.gz
Wind_Speed
25 26 29 21 14 23 28 39 53 57 56 49 64 69 72 71 72 74 66 61 58 53 52 49 47 44 42 40 40 38 35 33 32 29 26 23 20 18 19 18 16 17 17 17 22 25 25 26 26
30 30 29 27 17 15 29 42 48 51 53 54 50 63 75 73 67 72 72 65 63 58 55 53 51 48 45 43 41 41 39 37 35 34 29 26 24 22 22 22 20 20 20 19 19 20 21 23 24
38 32 30 28 20 27 32 37 49 58 60 49 51 51 68 73 64 68 75 68 65 61 57 54 53 51 49 47 45 43 41 40 38 35 33 31 29 26 26 26 24 21 22 22 22 23 23 23 23
45 40 33 33 28 36 34 38 40 58 64 57 46 48 52 66 72 68 73 71 67 64 63 59 56 55 53 50 47 46 45 43 41 38 35 34 33 30 29 27 25 26 25 25 26 26 25 24 24
50 44 38 35 36 39 39 43 44 46 61 67 62 44 47 55 69 73 73 75 73 69 67 64 60 59 58 54 52 49 48 46 43 41 39 37 36 33 30 28 25 25 26 28 29 29 28 26 25
59 52 41 39 45 48 48 45 43 52 63 67 55 55 47 47 60 76 74 71 70 66 69 68 65 60 61 59 55 53 52 49 47 43 42 40 37 36 33 30 29 31 28 27 29 30 29 27 25
64 60 44 44 51 52 54 53 46 52 69 66 75 50 47 51 57 66 76 74 66 59 64 69 69 66 63 62 58 55 55 52 49 47 44 42 40 37 34 32 33 31 28 29 29 27 28 26 25
69 65 50 52 57 57 57 53 53 58 65 70 72 65 54 56 59 62 72 70 54 56 63 68 70 69 66 64 63 60 56 55 52 50 48 45 41 40 37 33 34 31 31 32 29 30 29 27 26
71 65 56 58 62 63 62 57 58 58 68 73 77 73 63 57 57 62 69 67 59 43 59 62 71 72 70 67 66 65 60 58 56 54 51 49 46 41 39 36 35 34 33 30 33 33 31 33 29
74 67 62 65 66 65 69 66 65 63 74 75 77 75 66 61 59 55 65 66 61 66 75 61 65 74 71 70 68 66 65 60 58 57 54 52 48 47 44 42 40 39 38 38 40 39 34 34 33
74 66 69 64 70 73 68 71 70 63 76 73 75 77 65 57 57 54 65 63 54 43 69 65 51 64 69 72 73 71 69 66 64 61 59 55 51 49 48 44 44 42 41 36 38 36 37 36 37
72 68 69 68 72 72 70 66 70 71 74 76 78 77 67 58 61 55 69 70 67 72 64 64 50 55 63 73 75 75 72 71 66 65 61 58 54 51 50 48 48 45 39 36 42 43 40 35 42
74 73 72 72 71 73 76 66 65 72 73 75 79 75 67 61 61 60 72 67 77 77 66 61 58 70 59 69 74 77 77 77 72 67 63 60 58 56 51 52 51 47 44 44 46 46 47 46 46
72 73 74 73 69 70 72 65 65 68 72 70 76 75 70 63 64 67 68 76 75 71 66 61 65 67 67 58 74 77 77 79 78 72 66 61 61 57 52 49 52 48 49 48 46 47 44 46 47
70 68 72 75 70 64 70 64 62 65 66 67 72 77 76 69 69 68 74 80 87 80 80 71 77 73 67 66 62 67 71 73 77 75 70 65 60 54 51 51 49 53 53 51 48 44 48 46 47
65 69 71 73 71 68 65 64 63 63 61 64 73 76 75 66 72 73 77 73 83 84 87 84 72 68 64 61 58 59 68 75 74 71 71 68 61 59 56 52 55 56 55 50 51 52 48 51 50
63 68 68 68 65 64 62 63 61 63 66 70 75 79 80 76 79 81 80 76 87 83 85 87 77 73 68 65 63 65 64 65 69 68 72 70 67 55 54 57 57 55 50 50 53 53 56 55 50
60 61 61 63 65 67 67 66 68 69 67 71 80 81 82 82 84 87 84 89 100 96 93 84 79 73 71 59 53 54 54 57 62 68 67 63 63 60 60 58 55 60 59 56 57 58 58 55 56
54 58 61 64 64 64 64 61 62 67 67 71 80 82 81 91 99 98 93 99 104 101 108 86 80 76 74 62 58 59 55 57 57 56 55 61 63 62 64 67 65 62 57 56 56 57 59 57 59
57 57 57 59 58 53 50 48 48 51 57 70 80 82 86 103 104 94 103 98 100 102 98 87 87 80 76 66 61 59 57 57 54 57 50 54 55 59 61 64 64 63 60 57 58 58 61 62 60
52 52 50 49 44 41 39 39 40 41 52 69 78 82 92 104 104 101 106 98 94 95 91 87 82 82 80 82 71 68 64 63 59 58 58 58 60 61 58 58 60 61 58 51 57 62 62 65 62
44 41 40 36 35 34 34 33 36 40 50 61 71 80 99 112 111 99 96 95 87 84 83 79 82 79 75 77 72 66 68 61 62 64 65 64 64 64 62 61 61 59 60 56 58 62 62 64 66
33 31 30 29 30 28 28 29 35 41 45 55 69 95 115 119 115 110 100 91 82 85 81 78 83 83 80 80 74 67 64 67 61 63 64 65 67 68 66 66 62 64 62 58 60 64 68 66 72
25 23 21 22 21 23 25 29 35 42 52 60 72 98 114 117 110 99 103 107 87 94 90 89 83 80 80 81 75 72 69 71 69 69 71 73 74 76 75 72 74 73 66 64 64 64 71 74 75
16 18 19 19 19 21 24 29 33 42 51 66 87 110 107 119 120 113 110 110 102 103 99 91 85 89 89 90 85 78 72 69 68 73 73 72 75 75 80 82 85 82 80 78 76 73 75 75 77
18 18 18 18 17 20 23 31 38 47 61 72 108 118 122 122 125 121 110 110 119 112 93 96 95 95 94 90 92 95 84 78 70 75 78 76 78 80 83 78 80 82 82 82 77 76 77 78 83
16 18 18 21 18 17 22 28 41 52 60 80 119 124 123 128 122 125 120 110 116 106 94 100 107 95 103 96 89 92 102 95 97 92 90 89 87 87 91 90 90 91 90 87 90 86 87 89 89
19 23 23 19 19 16 16 20 33 48 68 95 110 124 125 119 125 134 123 131 105 122 114 96 99 105 94 92 92 94 94 95 90 94 93 99 91 93 92 89 89 87 83 85 82 82 83 82 84
22 22 23 20 20 17 15 18 24 48 76 104 114 114 107 115 109 123 128 117 122 123 123 112 103 88 92 94 99 96 96 97 102 103 97 102 103 87 87 84 87 90 84 84 84 83 88 91 92
26 25 25 21 20 22 16 18 25 36 78 108 110 115 111 116 110 109 125 128 116 111 114 101 91 92 89 93 86 84 91 99 104 106 105 111 106 109 97 92 93 100 101 95 94 94 94 95 96

GFSSGP_250_spd_102.txt.gz
Wind_Speed
40 35 33 25 17 11 18 29 36 44 40 45 55 60 62 66 70 73 62 57 55 60 54 47 43 45 41 39 37 34 33 33 31 27 25 22 23 20 18 15 15 15 15 16 16 17 19 19 21
46 41 32 27 21 17 29 36 33 33 36 38 43 51 53 67 65 71 66 61 65 64 60 55 49 47 47 44 42 39 36 35 33 32 28 27 26 22 20 18 17 19 19 19 19 19 19 19 21
57 48 42 31 18 22 36 36 33 34 31 41 33 44 52 63 66 66 67 68 70 68 66 62 56 51 49 48 45 43 40 38 36 34 32 29 29 28 26 23 21 20 20 21 22 22 22 24 22
59 56 48 42 29 34 37 39 35 31 30 36 48 46 38 56 52 54 68 66 75 74 71 69 63 58 53 51 49 47 45 42 39 36 35 33 32 29 28 27 24 22 21 21 22 24 25 26 25
64 61 53 47 44 42 44 42 39 36 37 39 46 51 56 52 49 54 64 70 72 72 74 72 68 63 59 54 51 49 47 45 41 39 37 36 34 31 29 30 27 23 22 21 24 25 26 27 25
68 68 62 54 54 49 46 47 46 46 42 38 45 51 50 53 44 46 59 66 69 70 71 74 72 66 63 58 53 51 50 49 45 42 39 40 38 33 33 31 29 27 25 26 27 27 27 27 25
76 70 65 62 59 59 55 56 47 48 49 44 46 54 59 55 47 45 53 59 61 69 69 69 68 68 68 63 57 56 54 53 51 48 44 43 42 37 35 33 30 30 29 27 26 26 26 26 26
81 75 65 66 68 69 66 61 52 48 50 52 53 53 54 65 55 45 47 58 63 63 63 59 58 68 68 67 63 59 58 57 56 52 48 45 44 41 37 36 34 32 30 30 27 29 27 26 27
82 76 69 73 76 73 72 65 60 53 54 55 61 61 61 63 63 60 46 53 61 67 55 61 59 62 65 69 67 64 61 58 58 55 49 48 46 45 41 40 37 34 32 33 31 30 29 34 33
86 80 73 78 77 72 73 72 68 61 56 58 64 66 74 68 66 67 57 51 61 67 65 52 58 58 64 61 68 68 65 62 61 59 54 52 49 48 46 44 41 40 38 38 38 35 33 35 33
87 80 81 79 78 75 72 73 69 68 60 67 74 74 82 76 67 68 61 55 59 63 63 74 73 73 62 50 56 64 67 64 61 61 61 58 55 53 50 49 46 43 42 41 40 38 37 33 35
89 83 85 83 80 78 76 75 73 71 64 66 79 75 85 81 73 72 63 54 56 63 67 63 67 72 61 56 51 60 66 64 62 65 63 62 59 57 54 55 51 48 46 43 41 43 35 37 41
86 87 86 88 87 85 83 78 73 72 66 72 77 80 85 81 72 72 67 59 55 59 64 67 68 61 59 65 54 58 62 66 66 64 64 65 62 60 58 57 55 52 51 46 44 47 44 42 43
90 86 84 87 88 87 84 82 79 71 74 76 80 81 82 74 72 79 71 60 57 66 69 72 64 63 60 60 54 55 61 63 67 67 71 70 68 66 63 57 56 56 51 51 47 44 47 44 42
85 85 85 85 86 87 87 79 79 77 76 70 75 77 80 72 75 81 75 62 60 71 73 71 71 64 65 72 64 60 57 55 62 67 70 72 71 70 69 66 60 54 53 50 49 47 51 49 50
83 82 84 84 84 84 82 77 75 69 68 68 74 75 74 74 79 82 76 65 67 78 84 89 79 67 64 73 69 64 63 57 58 62 69 68 70 74 73 69 67 62 56 55 54 49 53 54 56
78 81 79 78 78 79 76 70 67 64 64 66 70 74 73 79 82 82 77 69 74 84 89 90 89 79 78 77 69 70 71 61 63 60 59 64 65 66 67 68 68 61 62 57 52 55 55 55 56
66 68 71 73 73 69 68 62 64 66 65 68 69 73 74 77 83 83 79 68 73 89 90 83 87 81 78 71 78 73 79 67 60 61 63 61 63 66 68 66 67 66 65 57 60 58 56 57 58
59 61 62 65 65 64 65 61 64 63 61 61 64 62 64 74 83 84 73 67 71 81 94 98 83 73 74 78 78 76 72 68 67 61 54 53 55 62 62 63 62 64 62 61 60 61 59 61 63
52 54 56 60 60 60 61 61 59 60 57 57 59 60 71 76 83 82 69 74 72 80 91 95 87 80 78 79 75 75 75 75 65 56 55 48 59 61 62 62 60 62 65 66 69 66 68 67 63
47 50 55 57 57 58 59 61 63 62 61 62 62 67 75 82 85 79 77 78 78 83 88 90 97 88 82 84 84 80 75 73 69 62 52 50 55 57 57 53 56 60 65 68 69 69 65 62 64
47 52 53 55 57 58 58 56 53 52 54 56 60 67 80 86 86 83 83 81 88 88 93 98 97 95 91 80 83 80 75 72 64 60 61 59 58 55 58 62 58 57 61 63 64 67 67 68 70
47 49 49 48 47 45 41 38 39 40 45 49 53 66 74 82 86 91 88 89 91 90 89 92 86 100 91 90 87 84 71 69 69 63 62 64 64 68 64 62 60 63 68 67 64 63 65 72 73
39 37 36 34 33 29 28 28 30 33 37 42 50 62 76 85 92 92 91 89 84 90 89 88 91 96 87 85 83 76 77 81 80 75 75 71 69 69 69 68 66 72 76 73 74 72 72 75 75
26 26 27 28 26 21 23 26 28 30 34 39 55 73 79 84 81 94 89 92 95 96 93 92 96 98 101 96 93 89 82 83 83 83 82 80 78 73 73 73 72 76 77 77 76 75 74 76 78
18 20 19 17 17 21 25 27 28 33 40 52 73 90 85 77 84 94 97 100 104 105 100 92 97 96 100 95 93 93 89 84 85 80 77 80 78 78 77 76 75 82 83 81 84 81 80 80 84
10 11 13 16 17 22 21 25 31 38 49 66 81 93 88 79 89 92 102 105 103 109 102 95 88 94 93 97 93 95 93 92 87 87 88 81 81 81 79 79 81 87 88 83 85 83 83 84 90
17 20 24 21 21 20 24 29 35 45 55 71 89 97 86 82 90 96 110 101 98 97 103 99 89 90 90 92 93 91 91 94 97 89 87 81 86 81 79 82 84 90 86 84 84 85 84 88 91
28 28 29 25 24 22 20 26 32 52 66 82 96 99 81 84 86 87 97 95 90 96 108 98 97 96 98 97 97 98 94 89 91 90 88 87 87 89 89 85 87 91 87 90 90 91 97 98 98
31 36 34 33 28 24 21 21 29 49 72 93 92 101 84 82 99 88 92 95 98 85 100 102 108 103 96 98 95 103 99 94 94 94 95 95 98 98 97 98 98 105 103 105 107 101 105 103 101

GFSSGP_250_spd_105.txt.gz
Wind_Speed
45 46 42 40 37 28 24 31 36 43 44 47 47 49 58 63 62 66 66 61 61 62 56 52 49 46 43 40 37 34 31 28 28 27 27 25 22 18 16 15 14 13 13 14 15 16 16 16 16
58 51 46 40 30 32 31 35 33 38 38 38 44 37 51 52 60 67 67 65 66 68 63 57 54 51 48 45 41 38 35 32 31 29 29 28 25 24 20 16 15 15 15 15 17 18 19 19 19
60 57 53 45 33 37 38 40 37 38 36 34 40 41 36 51 55 63 66 68 69 70 70 61 58 56 53 49 46 43 40 38 35 33 31 31 30 26 25 23 20 18 19 18 19 21 21 21 23
65 61 60 53 43 45 45 44 40 39 36 34 37 38 38 35 52 53 64 64 69 70 77 68 61 58 58 54 50 47 45 43 39 37 34 32 32 29 26 25 26 23 22 19 19 19 22 24 25
72 68 63 54 57 56 52 49 44 43 38 36 37 34 35 43 35 51 53 57 66 69 76 72 64 64 62 59 56 52 49 46 44 41 38 36 34 31 27 26 26 25 25 22 21 21 22 24 26
77 74 67 60 59 61 57 60 55 48 46 42 45 40 38 39 42 44 44 51 56 69 73 73 67 67 66 65 61 58 53 51 50 45 42 38 38 34 30 27 28 29 28 26 24 24 26 25 25
82 79 69 68 67 63 69 70 63 56 50 47 44 45 38 35 40 43 41 55 50 59 70 76 72 66 72 69 67 64 59 56 53 49 44 42 41 38 34 31 29 30 31 28 26 26 26 26 26
85 79 77 76 76 70 73 73 69 64 57 55 48 41 43 41 42 46 50 51 48 52 64 67 67 63 67 71 70 68 63 60 57 52 48 45 46 43 40 37 34 32 32 29 27 27 26 27 24
80 76 78 81 82 78 79 73 74 69 63 63 59 54 48 49 45 47 49 50 40 50 53 63 63 59 71 66 65 69 67 61 59 56 51 50 50 47 45 41 39 37 34 32 31 29 28 29 29
89 80 78 83 81 82 84 80 77 75 72 70 69 63 58 49 45 50 52 57 50 54 61 59 65 60 70 67 57 59 67 63 62 57 54 53 53 51 49 46 44 42 39 37 34 34 34 33 34
93 85 86 83 85 84 81 79 78 78 74 74 76 75 67 58 48 53 55 60 64 55 53 58 65 67 63 65 58 58 62 61 63 61 58 56 54 54 53 50 47 44 44 42 40 38 36 37 35
97 94 89 87 89 87 82 80 79 73 74 79 80 73 76 65 55 56 63 69 70 64 56 56 66 71 61 61 57 50 56 60 62 63 62 61 59 59 59 56 53 52 50 48 46 45 38 39 37
99 95 93 93 90 90 88 82 81 82 82 82 79 79 77 74 62 59 62 68 77 76 68 60 68 69 65 65 49 59 59 58 56 57 62 63 62 62 58 56 58 56 53 51 51 48 47 47 44
101 95 91 93 92 91 87 87 84 85 90 86 86 82 75 78 71 66 70 70 81 77 72 58 70 71 71 69 59 64 63 54 51 52 57 64 64 65 61 60 60 57 56 53 49 50 51 49 50
97 97 93 92 93 93 91 89 91 89 88 86 82 84 80 78 73 70 74 75 79 78 72 61 65 73 73 70 71 56 57 61 59 53 53 59 64 67 66 66 65 64 63 62 60 54 52 50 52
89 90 90 91 91 92 92 98 90 86 84 86 89 86 83 79 75 77 75 79 80 75 75 59 67 73 75 75 67 64 65 63 64 65 57 58 60 60 63 68 68 68 68 68 63 64 62 61 59
79 82 84 84 87 91 90 96 89 87 84 83 80 77 75 75 76 77 76 81 79 77 75 59 69 74 78 76 68 66 64 65 63 58 52 51 48 50 56 64 64 63 65 68 67 65 68 66 63
71 74 77 80 80 83 86 87 86 82 78 74 70 70 75 75 77 75 73 78 79 74 73 59 73 74 78 82 73 58 63 64 66 63 57 56 55 52 52 51 56 61 64 66 70 64 69 65 64
62 66 70 73 79 80 77 73 72 73 70 68 64 67 70 70 68 69 74 78 82 72 75 59 74 81 75 64 67 75 73 70 64 70 66 67 60 51 53 56 59 60 63 64 67 68 64 66 66
58 64 70 74 71 70 68 65 65 64 61 63 60 59 61 62 64 69 73 80 84 78 73 59 81 86 79 71 73 70 70 66 68 66 66 62 65 64 57 60 61 65 68 60 67 68 68 71 73
60 62 64 65 64 62 62 59 55 54 55 55 56 54 56 57 65 66 70 80 87 81 71 68 91 94 95 85 72 70 72 75 74 67 71 68 65 65 66 66 62 60 61 55 56 58 64 72 72
49 50 52 53 52 53 52 53 53 54 53 52 54 52 53 58 64 67 74 80 84 80 68 71 91 95 92 93 81 77 67 73 71 69 70 76 68 68 67 60 59 57 55 60 65 62 70 71 71
41 41 43 45 44 47 49 53 54 52 50 49 51 51 52 56 62 68 72 78 79 74 62 72 86 100 99 93 92 78 78 75 73 75 70 72 74 78 74 70 65 53 59 62 66 69 72 68 70
34 37 39 42 46 49 51 54 53 52 49 43 43 45 53 59 67 74 77 77 74 70 64 78 83 80 90 90 83 80 83 84 82 80 73 74 70 75 78 75 75 73 73 70 69 69 73 74 76
33 36 38 41 44 43 41 40 36 33 30 30 33 40 46 55 65 73 74 74 71 68 73 84 80 75 85 86 89 93 84 81 86 78 80 83 83 81 76 69 62 69 72 75 76 76 76 80 79
32 29 28 28 28 26 26 25 23 22 25 32 32 41 47 57 64 65 71 73 76 73 77 80 81 86 93 93 95 93 85 96 91 86 89 87 84 91 84 78 74 70 77 77 82 84 84 83 81
19 15 15 18 17 20 18 21 25 28 34 38 52 56 61 62 66 64 69 76 69 75 78 78 81 84 92 94 95 94 95 95 98 91 93 101 94 89 89 90 89 87 83 84 88 88 86 85 85
12 14 18 18 22 25 31 33 34 43 59 69 67 65 60 67 68 64 66 73 73 78 82 87 85 89 92 90 90 91 98 95 93 93 94 95 94 93 93 91 89 90 90 88 91 93 92 90 88
19 21 25 25 24 28 37 43 54 75 77 76 70 70 69 64 69 71 69 68 76 82 85 91 93 101 100 89 94 98 95 100 95 99 101 94 92 92 97 102 99 93 87 87 87 91 92 92 92
23 25 30 24 28 33 35 43 64 82 83 79 72 71 74 71 65 70 68 73 77 80 84 85 95 100 106 97 94 102 99 92 94 101 96 93 96 103 97 99 100 102 96 99 98 99 94 92 95

GFSSGP_250_spd_108.txt.gz
Wind_Speed
52 49 47 44 42 38 38 38 42 45 46 46 43 42 47 55 61 64 67 64 64 62 59 54 54 50 46 44 41 39 38 34 32 29 27 25 24 21 19 15 13 13 14 15 15 16 16 17 17
59 55 55 51 42 38 44 47 48 51 45 42 45 48 44 51 58 65 67 67 68 66 63 58 57 56 52 50 46 44 41 38 35 31 28 26 27 24 22 19 14 13 15 16 16 18 19 20 20
61 62 60 51 45 41 49 50 56 52 48 46 41 41 43 46 52 56 62 67 66 69 69 66 62 61 57 54 50 48 45 42 38 34 31 28 28 27 26 22 22 19 17 19 17 20 20 22 24
66 67 64 59 54 52 55 51 56 52 52 50 45 41 36 41 48 51 53 58 66 69 71 71 64 64 62 58 53 51 48 45 42 38 35 33 31 28 29 27 24 23 22 21 20 19 20 21 24
71 71 68 60 61 64 61 59 54 59 56 52 43 42 39 42 39 44 44 53 57 65 67 72 69 66 65 62 59 54 52 49 47 44 41 39 36 32 29 28 26 26 25 24 22 20 21 22 23
70 72 72 68 64 69 67 67 61 58 59 54 47 41 34 38 44 39 40 37 52 57 64 71 74 71 68 66 63 60 57 54 51 49 46 43 41 35 33 32 30 28 27 27 26 25 24 24 25
75 72 74 76 74 70 74 75 66 64 60 61 53 45 41 38 40 39 37 37 42 52 56 65 73 71 68 70 69 64 60 60 57 53 50 47 45 43 39 35 34 31 29 28 29 28 26 26 26
80 77 72 78 81 77 80 77 72 67 69 67 60 52 47 44 44 43 41 39 37 38 50 58 63 70 71 66 68 69 68 65 62 58 53 51 48 47 45 40 38 36 32 30 29 29 28 27 27
89 81 78 78 86 78 80 77 73 72 71 71 71 64 57 49 45 45 44 43 44 46 43 56 63 65 68 70 64 68 71 66 67 64 58 53 52 50 49 46 43 41 38 35 33 30 29 29 28
98 89 84 85 83 84 83 78 78 74 71 76 75 72 70 61 53 48 47 45 49 52 46 47 57 58 60 65 67 69 70 70 70 65 63 58 54 53 51 49 46 45 43 41 38 34 33 31 30
101 96 95 89 85 84 83 82 82 78 74 79 80 77 76 72 65 60 51 48 47 57 57 45 53 60 64 66 65 62 69 71 72 71 67 63 58 56 54 51 50 50 48 45 42 40 36 35 34
102 103 99 96 93 91 86 82 80 76 73 80 85 80 75 74 74 68 59 52 51 51 58 57 55 55 67 71 65 60 65 69 68 69 67 65 60 58 57 56 53 53 50 49 48 44 44 42 41
102 105 101 101 97 93 92 87 85 79 80 83 83 85 79 77 77 76 72 63 58 52 65 67 62 62 66 74 67 59 64 67 67 66 62 66 65 64 60 60 58 57 55 54 52 50 49 47 45
98 102 102 99 98 96 96 93 90 93 91 87 87 84 82 77 74 73 72 71 67 60 63 66 70 67 59 67 66 62 63 67 67 63 63 64 63 65 64 62 61 60 60 56 50 50 49 48 49
94 99 100 96 96 95 94 94 94 92 88 87 90 89 87 81 80 74 73 72 73 67 69 68 72 69 63 73 70 72 66 68 70 67 63 64 64 63 66 65 65 67 61 59 56 55 53 56 57
87 89 92 94 95 93 88 96 92 91 87 89 91 92 94 89 85 82 81 78 78 75 76 69 74 76 78 76 66 73 72 70 70 65 61 59 65 65 59 63 66 64 64 62 62 62 60 63 63
80 80 84 87 92 89 87 96 88 86 88 92 96 91 90 90 85 82 81 81 82 81 81 73 74 81 81 79 64 71 76 72 70 65 60 58 63 61 58 59 56 57 61 62 63 63 65 67 65
72 73 78 82 81 83 86 94 90 87 93 92 92 93 89 83 83 76 81 81 79 79 82 77 74 81 79 80 67 69 75 74 74 67 60 71 64 63 63 63 57 56 54 57 61 61 61 61 65
66 69 74 72 72 77 80 84 85 81 84 88 87 83 80 78 78 79 75 72 77 83 83 81 79 84 83 81 65 66 75 81 77 68 62 67 63 63 62 59 56 52 48 52 56 54 62 63 63
58 63 64 66 67 69 70 70 72 72 72 72 71 68 68 70 70 72 73 73 79 80 76 80 84 84 79 74 67 67 75 83 82 77 76 66 57 58 56 57 56 54 49 51 56 58 60 62 67
54 59 60 60 59 61 60 63 63 63 61 60 59 60 60 65 66 69 73 76 82 79 78 80 84 81 72 69 65 69 73 78 81 79 79 73 65 66 59 63 58 58 59 56 57 61 64 64 64
49 52 53 55 56 57 55 52 51 52 54 54 51 50 52 56 61 66 67 69 72 73 74 75 79 74 71 65 61 69 70 77 82 84 66 62 61 62 67 63 60 64 62 60 63 61 70 70 69
46 47 48 49 50 51 48 48 45 46 46 47 46 45 45 48 49 52 56 60 62 67 67 70 71 67 68 61 65 71 72 79 79 81 72 67 71 64 64 67 67 67 65 65 64 67 71 64 70
38 38 40 40 41 42 42 40 42 42 42 43 43 42 43 45 48 51 54 57 61 64 62 66 64 67 62 57 67 71 72 71 70 70 71 72 81 75 74 73 73 76 76 77 74 68 69 70 75
28 31 32 33 34 35 36 38 40 41 40 40 41 41 43 46 49 52 55 57 57 59 62 62 64 66 58 59 67 67 78 75 71 67 68 71 75 82 82 83 80 75 74 77 75 76 77 76 77
23 25 26 28 31 34 35 35 35 35 33 32 36 39 44 49 54 57 60 61 59 58 60 62 62 63 56 62 68 71 80 76 77 75 66 70 70 68 74 72 76 80 79 72 74 73 72 72 76
21 22 23 24 25 23 22 22 23 23 24 26 30 34 38 42 46 50 54 57 59 63 62 60 61 55 59 64 73 76 82 88 91 82 75 81 77 81 80 79 79 79 73 74 74 75 77 80 82
17 13 14 16 16 16 18 19 20 25 32 33 37 39 42 44 46 47 45 47 45 44 55 60 60 57 60 65 69 81 89 87 83 92 92 86 83 85 83 80 82 84 88 84 88 92 90 88 91
12 12 14 14 17 21 20 28 36 44 44 43 44 50 52 52 60 64 63 51 51 48 45 52 59 57 57 61 66 67 75 78 81 85 85 93 92 96 96 91 91 94 94 96 97 100 101 99 98
9 12 16 21 28 34 34 33 43 48 49 53 53 52 56 55 57 54 51 57 50 47 43 49 56 57 65 66 65 73 75 83 86 91 94 94 96 99 98 99 97 100 99 98 99 98 103 101 97

GFSSGP_250_spd_111.txt.gz
Wind_Speed
51 51 50 48 42 37 39 41 42 46 42 33 33 37 45 51 57 64 70 65 63 60 56 54 49 48 47 43 41 40 36 34 34 32 31 29 28 24 22 20 17 16 15 16 17 16 17 17 17
54 52 55 50 47 39 46 47 48 50 40 40 36 36 37 47 53 57 58 66 68 66 64 61 56 51 49 49 46 43 41 37 36 36 35 33 32 27 25 22 20 16 17 17 18 18 20 19 20
59 57 52 52 51 49 57 55 56 54 47 42 40 38 39 47 48 55 52 56 60 65 66 67 62 57 55 54 52 50 46 43 40 40 38 36 36 32 28 26 25 23 18 19 20 20 21 22 22
67 64 62 54 51 60 62 60 58 56 54 48 45 41 43 45 48 52 48 47 53 57 61 65 68 63 60 58 55 53 51 48 45 42 41 38 38 34 29 27 27 26 25 24 23 22 22 23 22
74 69 67 63 60 63 66 66 64 59 55 51 49 43 45 43 43 47 49 40 42 46 54 62 67 67 66 64 61 58 56 54 49 47 44 43 40 38 34 31 29 28 28 26 26 26 23 23 23
79 77 71 66 68 69 68 68 67 64 58 56 48 49 47 44 46 41 43 39 38 41 45 53 61 65 64 65 65 64 61 58 54 52 48 45 44 42 39 38 36 31 29 28 27 28 28 25 24
82 79 76 73 74 73 76 72 69 71 67 59 55 53 48 46 48 46 44 40 33 34 34 45 56 59 63 65 66 67 66 63 60 57 54 52 48 47 45 41 40 36 33 31 31 29 28 27 27
86 82 79 79 79 79 79 74 70 71 73 67 61 57 54 52 51 50 45 43 39 34 32 35 42 53 58 62 64 67 69 67 64 61 59 56 54 51 50 46 44 42 39 35 33 31 29 28 28
94 86 80 85 83 81 82 77 72 74 76 71 68 65 62 58 54 51 48 47 46 39 41 40 37 47 49 55 59 67 69 71 69 66 64 60 60 58 55 51 48 46 44 43 38 35 32 30 29
98 94 89 88 89 87 86 82 76 74 78 78 75 69 69 68 60 58 56 51 49 49 47 46 43 42 45 52 54 56 65 70 72 71 70 65 64 64 62 56 54 51 48 47 45 40 38 35 33
105 101 98 95 94 91 93 87 82 75 74 82 80 77 72 72 70 67 63 57 54 52 49 49 50 50 47 51 56 58 59 65 71 72 72 70 69 67 65 63 59 55 52 49 47 45 42 41 39
108 107 106 100 100 98 96 93 91 83 79 84 84 81 77 73 73 70 72 66 60 56 52 49 53 49 49 50 56 59 55 56 61 71 71 73 73 71 68 66 65 61 56 53 52 49 45 43 42
94 101 105 106 106 104 102 100 95 89 85 92 90 84 80 74 72 71 69 75 69 67 65 61 58 56 54 46 47 47 54 56 59 63 68 73 73 72 70 69 68 66 61 58 55 51 47 47 46
95 95 97 102 105 105 103 103 95 99 93 89 91 87 83 81 77 75 72 70 75 76 73 67 65 59 55 50 51 49 52 55 62 65 66 67 72 74 73 72 71 70 66 61 59 55 52 52 51
92 92 93 96 101 102 100 99 98 99 93 94 91 91 85 83 79 76 76 73 73 73 71 70 73 71 66 62 61 57 56 54 56 64 63 66 64 67 71 74 74 71 67 65 62 59 56 54 55
88 87 91 93 95 95 93 93 98 97 93 93 94 93 93 87 85 81 79 77 75 74 73 73 72 75 73 70 67 63 64 59 54 55 61 60 62 47 71 69 71 71 69 67 62 61 58 58 58
84 84 86 85 86 86 83 85 101 90 89 92 96 96 94 88 80 82 81 79 79 76 75 72 72 76 77 74 72 70 67 63 60 58 64 63 64 69 68 73 73 71 67 66 64 63 63 59 62
81 77 76 78 79 76 76 81 93 85 81 89 96 93 89 90 86 80 82 82 81 79 77 75 73 75 78 76 75 75 73 64 66 67 70 66 70 64 50 75 69 69 68 66 58 58 57 57 61
66 63 68 72 71 69 78 76 87 76 75 82 86 86 84 83 83 80 78 78 79 78 77 78 78 79 81 77 79 80 78 74 70 72 69 61 71 68 68 71 66 61 64 68 66 58 57 56 58
54 57 61 68 66 68 66 74 73 71 66 70 76 81 82 82 77 75 74 75 70 74 75 77 77 77 78 75 80 81 84 77 74 78 66 60 70 68 67 67 65 67 67 63 64 64 60 67 60
44 52 58 61 59 59 59 63 62 60 61 66 69 70 72 73 72 71 71 69 74 73 76 80 78 78 76 80 80 79 83 83 80 75 69 57 70 66 60 67 66 65 65 62 61 65 72 65 63
42 46 50 48 49 50 50 55 56 57 55 56 58 59 60 61 62 66 70 71 73 73 79 81 81 85 88 84 85 82 83 82 80 76 64 59 74 75 80 76 71 65 57 57 56 59 62 63 61
39 40 41 41 44 48 47 48 46 44 45 47 48 50 52 54 54 57 62 66 72 72 77 79 78 82 87 90 88 85 85 81 76 74 63 60 74 76 75 83 73 66 62 63 65 66 62 61 63
33 34 34 34 38 37 36 37 37 39 39 39 42 45 47 48 51 54 57 59 62 63 66 70 74 77 77 78 79 80 80 74 69 61 57 66 73 77 82 82 78 85 69 64 61 61 72 70 71
23 24 26 27 30 31 31 30 31 31 34 35 36 39 41 41 44 46 48 51 56 62 65 66 66 66 67 72 75 73 67 62 55 54 60 63 68 72 78 81 86 85 75 70 73 70 74 73 75
19 19 18 21 22 22 25 27 27 29 31 33 35 37 37 38 40 41 42 44 47 50 53 52 53 57 62 64 64 60 54 51 51 54 59 61 61 65 71 73 82 79 77 79 81 80 74 76 77
11 13 14 16 17 19 22 24 26 27 29 32 33 34 37 39 42 44 44 45 45 46 47 48 49 52 55 54 52 50 45 47 50 52 54 57 63 66 72 77 80 75 78 80 83 84 78 76 81
11 9 10 10 12 16 18 17 19 20 23 25 26 27 30 36 41 45 46 47 47 45 42 43 45 46 47 46 44 43 47 49 48 52 57 60 68 69 66 68 68 76 80 83 87 87 82 82 83
11 11 10 11 13 13 12 14 15 19 18 20 21 24 27 28 31 36 44 43 48 47 43 46 47 44 44 40 40 46 49 47 57 59 62 65 68 61 66 68 76 74 75 80 83 81 82 77 77
9 11 14 16 18 19 20 14 18 21 23 23 28 29 34 34 32 30 34 31 32 37 40 43 44 39 41 42 47 49 49 51 64 68 66 69 69 70 75 76 79 83 83 83 88 81 78 82 87

GFSSGP_250_spd_114.txt.gz
Wind_Speed
48 49 44 45 49 42 41 42 43 42 38 34 34 36 41 44 49 47 49 51 53 54 55 51 47 42 41 39 38 37 37 36 34 34 31 30 28 28 27 25 24 21 20 21 20 20 19 19 18
53 51 47 47 45 50 49 46 48 46 44 32 32 33 34 38 44 46 47 48 54 55 55 54 51 46 46 43 43 44 41 39 36 36 36 34 32 28 29 28 26 23 21 21 21 20 21 22 21
55 55 53 47 47 52 55 55 51 50 48 37 32 32 34 36 39 42 41 48 49 55 60 59 57 56 53 51 49 47 45 44 41 38 38 37 36 33 31 32 31 28 26 22 21 21 22 24 25
62 60 57 55 53 58 56 60 57 52 52 47 41 36 37 40 40 44 41 43 45 48 51 59 65 65 61 58 57 53 49 48 47 44 42 41 38 38 34 33 34 31 30 27 26 25 25 25 27
70 66 63 61 63 65 62 59 58 57 50 50 49 46 44 41 41 43 46 40 37 41 43 48 54 59 64 64 61 59 55 53 53 49 48 44 42 39 38 36 35 33 31 31 30 29 27 27 28
80 75 71 69 70 72 70 64 62 59 57 58 56 56 49 50 47 47 44 41 29 37 39 43 43 46 52 57 62 63 62 59 56 54 51 50 47 44 42 41 40 37 35 34 32 31 29 28 28
84 80 76 74 77 79 77 70 66 66 63 59 56 59 55 54 51 49 45 42 37 28 32 31 32 38 43 50 55 61 64 64 63 61 58 54 53 49 46 46 44 42 39 37 36 34 32 31 30
89 87 84 86 84 84 82 76 73 70 70 65 61 59 61 58 55 53 47 44 40 35 31 37 31 30 34 40 48 55 59 66 65 64 62 61 58 56 53 49 48 47 45 42 40 38 36 34 31
98 94 95 93 87 84 84 82 79 76 73 69 65 64 66 64 60 55 53 45 42 44 40 36 35 32 35 38 41 48 53 55 64 65 65 63 62 60 56 54 53 52 50 48 46 43 41 38 37
99 97 97 96 91 87 86 86 83 79 78 76 71 68 68 69 67 63 60 54 48 48 43 45 47 42 38 41 38 39 43 50 52 62 65 65 64 62 62 59 58 56 56 53 51 48 45 42 40
103 99 99 97 93 92 89 89 87 82 81 84 79 73 69 71 69 68 68 62 57 54 52 44 49 50 47 50 47 39 35 42 46 51 60 64 65 66 65 63 62 61 59 57 56 55 52 48 45
105 103 104 103 97 94 92 92 91 88 85 88 88 80 72 71 73 70 71 69 64 63 57 54 51 55 49 52 49 40 40 43 45 49 55 58 67 70 69 69 67 65 65 62 61 59 56 53 51
97 103 106 105 105 99 99 101 102 95 95 92 91 87 80 75 71 74 72 70 72 70 66 61 59 57 56 52 49 49 50 47 49 51 48 52 57 67 71 71 72 71 70 67 66 63 60 57 55
92 96 100 104 107 106 106 108 109 109 101 98 96 92 87 80 75 71 76 75 74 77 75 73 68 63 60 58 56 54 50 46 43 37 41 46 50 56 61 66 72 72 73 74 70 66 65 61 59
87 88 90 93 98 100 101 104 107 109 107 101 99 96 90 89 84 81 77 78 78 80 79 77 76 73 65 65 64 62 59 48 44 46 41 46 53 59 60 65 63 64 69 71 71 70 68 67 65
89 90 90 87 91 91 91 90 99 102 103 100 99 98 92 89 86 84 81 79 81 77 78 77 77 75 75 74 72 70 66 62 58 61 53 47 52 58 58 57 62 59 58 56 71 72 72 68 68
93 90 88 88 85 85 88 84 93 99 98 94 95 95 96 94 87 83 83 82 81 82 82 80 79 77 73 74 73 71 69 66 66 63 62 58 54 52 51 48 55 54 52 56 56 64 71 70 66
93 91 89 91 88 83 83 79 83 94 95 86 90 94 97 89 84 82 84 84 84 82 84 82 81 80 76 74 74 74 70 69 67 66 65 64 60 56 53 48 56 54 48 59 59 63 67 64 63
95 94 93 91 83 77 77 68 75 92 89 80 84 86 87 87 85 77 78 81 81 81 80 81 81 80 79 77 76 74 72 68 67 68 67 67 63 61 63 56 53 61 50 58 57 60 60 65 68
84 85 79 77 70 64 65 67 75 85 78 72 74 75 78 80 77 71 73 76 79 79 75 78 78 77 77 78 78 75 75 70 68 69 70 70 68 66 66 63 57 62 66 64 64 63 65 59 59
74 69 64 62 63 60 61 62 69 72 62 59 64 67 68 69 68 67 68 68 67 71 67 71 79 77 74 77 78 75 75 72 74 72 70 73 73 72 70 70 65 60 65 64 67 66 68 64 60
54 53 53 51 52 48 47 54 54 51 49 48 55 58 58 58 61 65 66 67 65 66 67 65 72 75 77 75 79 80 80 78 78 77 78 77 77 72 72 72 72 65 66 63 66 64 75 64 58
40 40 39 40 40 40 39 43 39 42 39 41 48 52 53 60 63 66 66 62 63 67 71 71 71 76 77 82 86 82 83 83 81 83 81 82 78 75 76 76 73 67 68 64 68 73 73 67 65
29 30 29 30 29 29 32 34 33 37 37 36 43 50 54 58 60 60 60 61 62 63 66 70 76 81 87 86 86 89 88 87 87 88 88 86 82 79 77 77 74 64 67 63 61 62 74 68 62
20 18 20 22 25 23 26 26 26 29 30 33 38 42 45 48 50 50 54 58 59 59 60 63 69 73 78 85 87 91 91 90 90 92 89 87 86 85 83 76 61 64 66 66 66 73 75 74 70
14 15 14 15 17 18 18 19 19 21 23 26 29 32 35 38 40 41 45 50 53 53 54 58 63 66 69 73 76 80 83 85 82 78 77 75 74 71 66 62 63 66 65 70 71 80 78 85 84
11 10 9 11 12 12 13 14 15 17 18 20 23 26 27 28 32 34 36 40 42 45 50 52 54 57 61 63 66 68 69 67 65 65 65 58 60 58 58 59 58 62 65 65 77 84 86 91 88
9 8 10 9 8 8 8 9 11 12 13 17 20 22 24 27 30 31 31 33 35 39 42 43 44 48 52 56 58 57 57 57 54 50 49 46 47 50 52 54 55 58 60 65 71 74 79 81 77
10 10 8 7 7 5 5 8 9 9 11 13 14 17 21 25 29 31 33 35 37 39 38 37 38 41 43 45 47 47 45 44 43 41 40 43 43 44 45 46 47 50 55 59 61 67 70 71 76
11 10 11 13 11 9 9 4 7 4 7 8 6 9 14 17 21 25 29 37 42 40 38 36 34 32 38 38 33 33 34 37 38 40 43 42 43 43 46 51 52 53 60 64 67 73 70 78 81

GFSSGP_250_spd_117.txt.gz
Wind_Speed
46 45 41 42 39 38 40 42 39 37 33 31 26 25 29 34 38 41 43 42 40 42 46 49 48 46 44 41 39 37 36 35 34 30 30 29 28 27 27 25 26 23 23 21 22 20 22 22 21
49 48 43 44 43 41 43 45 46 43 38 31 31 27 27 30 31 34 38 39 39 38 41 46 48 47 46 44 42 39 36 35 35 34 33 33 31 29 29 29 27 26 24 23 22 22 22 23 23
55 54 52 45 48 48 46 49 45 48 46 39 33 34 31 31 31 32 32 34 35 37 38 44 46 47 49 49 46 43 40 40 39 38 38 36 33 31 32 32 30 29 27 27 25 24 23 24 25
63 60 57 56 53 53 52 48 46 48 51 48 41 37 37 33 33 32 33 33 31 29 32 39 46 49 49 50 50 49 47 44 42 41 40 40 38 33 35 36 34 33 31 29 29 27 26 26 27
69 66 62 61 61 59 54 53 49 46 46 51 49 44 42 41 38 38 35 34 32 30 29 33 38 44 52 55 54 54 55 53 51 48 45 43 42 40 38 39 38 37 35 32 30 30 30 29 28
75 73 69 67 69 65 62 58 54 52 53 52 50 50 46 47 44 43 41 39 34 33 30 26 33 37 41 48 58 61 61 58 58 55 52 49 46 46 44 43 41 39 39 38 35 33 32 31 30
77 78 74 74 74 71 67 67 61 58 57 56 56 53 51 50 50 50 48 45 42 37 34 31 33 32 34 37 42 50 54 58 60 59 57 56 54 51 49 47 46 44 42 43 41 38 35 35 33
80 76 81 79 80 79 76 73 72 68 62 60 63 59 59 56 58 57 53 49 46 40 40 35 31 32 31 29 33 37 46 53 56 59 60 59 58 56 54 53 52 50 46 45 46 44 41 38 36
82 78 80 82 82 82 78 77 77 73 70 68 67 67 66 61 58 58 58 54 48 46 44 42 36 37 35 34 34 33 37 42 51 56 60 62 61 61 60 58 56 55 53 50 49 49 47 45 43
87 84 83 82 82 82 81 79 80 79 75 76 73 72 70 68 65 61 61 61 54 50 47 46 44 37 38 36 34 38 38 38 37 46 53 59 62 63 62 60 58 57 57 55 54 51 50 49 48
90 89 89 87 88 87 86 86 85 83 82 84 79 74 72 72 70 67 64 65 63 57 52 50 49 48 44 42 41 42 39 36 32 34 40 48 53 58 60 60 61 60 59 58 57 57 56 54 53
97 95 96 96 92 91 91 92 90 90 94 90 84 81 77 75 73 70 68 67 68 66 61 55 52 52 52 50 49 47 45 39 40 38 33 32 38 43 49 55 61 61 61 61 62 60 59 58 58
98 100 102 103 102 98 99 100 99 100 98 93 89 85 83 79 78 73 71 70 71 71 68 65 59 55 56 54 59 58 53 48 46 45 38 38 41 45 46 47 55 60 62 63 64 65 65 64 61
92 101 102 103 104 106 104 104 101 104 97 99 96 91 87 85 82 78 75 76 74 75 74 71 67 63 60 57 57 59 60 52 50 48 46 44 42 45 40 37 42 49 57 64 65 67 68 67 69
81 85 90 100 107 108 107 108 107 105 104 104 102 99 93 89 86 83 80 79 80 77 78 77 75 70 68 65 60 60 60 60 54 51 49 45 43 38 38 39 42 44 45 45 54 59 62 69 73
81 82 80 80 82 86 91 91 101 106 106 107 106 104 102 97 93 88 88 85 84 82 78 78 79 75 73 71 70 66 60 59 58 54 54 51 51 47 47 44 42 45 48 53 59 52 54 55 59
88 86 84 84 83 79 76 75 87 91 92 94 99 102 101 101 95 94 91 91 90 84 84 81 78 80 78 75 74 71 67 67 65 63 62 62 58 58 55 50 51 47 50 47 48 47 43 48 51
92 91 93 91 85 81 78 74 80 86 84 86 92 96 97 94 94 91 91 91 92 90 85 85 84 80 79 81 77 73 73 74 72 72 70 67 65 64 62 61 60 57 52 51 44 48 46 42 45
95 96 95 92 90 85 82 80 87 88 90 88 89 91 90 88 89 89 84 84 88 87 84 83 87 85 80 80 79 76 74 74 75 74 72 72 69 68 65 63 61 61 57 55 53 45 48 47 52
98 99 98 96 93 88 90 85 82 83 87 84 84 81 82 84 86 88 82 78 79 82 83 79 81 84 83 79 78 80 79 75 75 76 75 73 70 67 65 66 64 63 61 57 60 54 49 48 47
102 99 97 91 87 78 77 70 75 73 78 76 70 69 73 80 82 81 77 73 74 76 79 80 77 82 81 82 79 78 79 79 79 79 80 75 71 69 68 66 65 64 61 60 63 62 58 54 55
78 84 83 78 78 75 60 55 65 65 54 57 59 64 68 66 67 67 68 69 70 74 77 76 77 76 80 80 78 78 76 81 83 81 81 78 73 71 69 69 68 65 65 67 67 66 62 64 64
67 64 63 62 62 60 48 48 54 44 48 46 46 50 55 56 62 66 64 60 61 66 71 70 70 71 75 79 81 81 83 84 83 83 80 77 74 72 72 71 70 72 72 73 71 71 70 65 67
56 55 55 53 51 43 39 37 38 34 37 36 37 44 49 53 53 57 57 58 58 63 68 69 67 68 71 76 85 87 88 87 84 80 78 78 75 74 73 72 71 72 73 74 77 80 77 72 72
37 35 34 32 31 27 27 25 22 24 26 27 31 37 42 46 50 53 54 53 54 62 65 64 62 63 68 72 76 82 87 89 87 83 82 82 79 78 77 77 77 78 81 81 81 82 84 77 73
22 23 19 16 16 18 18 17 14 16 18 20 23 30 34 40 44 46 49 50 51 54 57 59 62 63 64 68 72 79 86 87 87 86 84 82 82 82 82 82 80 81 86 89 88 83 76 71 69
11 11 12 14 14 11 10 7 9 10 13 15 17 20 25 27 29 32 35 38 39 44 49 53 59 64 64 65 67 70 76 83 88 87 86 83 83 85 85 88 90 90 88 82 74 69 66 67 64
12 12 12 9 6 7 5 3 3 4 7 10 14 15 18 21 23 25 27 29 34 39 42 46 51 53 56 58 59 61 65 69 76 83 86 87 87 87 85 82 78 75 69 65 61 61 61 62 63
14 11 10 7 6 5 2 2 2 3 2 4 6 10 14 17 19 20 21 25 29 33 36 40 44 47 49 49 50 51 54 58 60 62 66 69 69 68 66 64 58 55 54 52 53 56 59 60 63
13 12 11 9 6 7 8 5 4 3 3 4 4 1 2 8 15 20 20 24 27 29 30 33 36 38 39 40 41 43 46 49 50 52 54 54 51 48 48 49 47 45 43 45 45 47 50 52 57